EW1734 Weather Reports


Display with metric or nautical units.
time (UTC)temp
F
wind
direction
speed
MPH
gust
MPH
rain 1hr
in
rain 24hr
in
rain mn
in
humidity
%
barometer
mb
20260906091206 70 64 1.0 0.0 0.00 0.00 0.00 40 1012.4
20260906091202 71 64 1.0 0.0 0.00 0.00 0.00 44 1012.4
20260906091152 71 64 1.0 0.0 0.00 0.00 0.00 43 1012.4
20260906091148 71 38 0.0 0.0 0.00 0.00 0.00 44 1013.5
20260906091141 71 64 1.0 0.0 0.00 0.00 0.00 42 1012.4
20260906091131 71 64 1.0 0.0 0.00 0.00 0.00 43 1012.4
20260906090819 71 64 1.0 0.0 0.00 0.00 0.00 39 1012.4
20260906090807 70 64 1.0 2.0 0.00 0.00 0.00 40 1012.4
20260906090727 71 64 1.0 0.0 0.00 0.00 0.00 39 1012.4
20260906090715 71 64 1.0 0.0 0.00 0.00 0.00 40 1012.4
20260906090704 70 64 1.0 0.0 0.00 0.00 0.00 39 1012.4
20260906090644 71 50 1.0 2.0 0.00 0.00 0.00 40 1013.3
20260906090435 70 64 1.0 0.0 0.00 0.00 0.00 40 1012.4
20260906090425 70 64 1.0 0.0 0.00 0.00 0.00 39 1012.4
20260906090219 70 91 0.0 0.0 0.00 0.00 0.00 41 1012.5
20260906090215 70 91 0.0 0.0 0.00 0.00 0.00 40 1012.5
20260906090143 70 44 0.0 2.0 0.00 0.00 0.00 40 1013.3
20260906090126 70 91 0.0 0.0 0.00 0.00 0.00 41 1012.5
20260906090121 70 91 0.0 0.0 0.00 0.00 0.00 40 1012.5
20260906090109 70 91 0.0 0.0 0.00 0.00 0.00 40 1012.5
20260906085916 70 91 0.0 0.0 0.00 0.00 0.00 41 1012.5
20260906085905 70 91 0.0 0.0 0.00 0.00 0.00 41 1012.5
20260906085855 70 91 0.0 0.0 0.00 0.00 0.00 42 1012.5
20260906085714 70 91 0.0 0.0 0.00 0.00 0.00 40 1012.5
20260906085704 70 91 0.0 0.0 0.00 0.00 0.00 41 1012.5
20260906085654 70 91 0.0 0.0 0.00 0.00 0.00 42 1012.5
20260906085642 70 43 0.0 2.0 0.00 0.00 0.00 41 1013.4
20260906085515 70 91 0.0 0.0 0.00 0.00 0.00 41 1012.5
20260906085445 70 91 0.0 0.0 0.00 0.00 0.00 42 1012.5
20260906085414 70 91 0.0 0.0 0.00 0.00 0.00 41 1012.5
20260906085345 70 91 0.0 0.0 0.00 0.00 0.00 41 1012.5
20260906085329 70 91 0.0 0.0 0.00 0.00 0.00 41 1012.5
20260906085220 70 50 0.0 0.0 0.00 0.00 0.00 40 1012.6
20260906085214 70 50 0.0 0.0 0.00 0.00 0.00 41 1012.6
20260906085137 70 50 0.0 0.0 0.00 0.00 0.00 41 1013.5
20260906085115 70 50 0.0 0.0 0.00 0.00 0.00 41 1012.6
20260906085050 70 50 0.0 0.0 0.00 0.00 0.00 40 1012.6
20260906085044 70 50 0.0 0.0 0.00 0.00 0.00 41 1012.6
20260906085017 70 50 0.0 0.0 0.00 0.00 0.00 43 1012.6
20260906084945 70 50 0.0 0.0 0.00 0.00 0.00 43 1012.6
20260906084914 70 50 0.0 0.0 0.00 0.00 0.00 39 1012.6
20260906084901 70 315 0.0 0.0 0.00 0.00 0.00 42 1012.7
20260906084854 70 50 0.0 0.0 0.00 0.00 0.00 40 1012.6
20260906084735 70 50 0.0 0.0 0.00 0.00 0.00 39 1012.6
20260906084724 70 50 0.0 0.0 0.00 0.00 0.00 41 1012.6
20260906084632 70 50 0.0 0.0 0.00 0.00 0.00 39 1013.4
20260906084515 70 50 0.0 0.0 0.00 0.00 0.00 39 1012.6
20260906084445 70 50 0.0 0.0 0.00 0.00 0.00 39 1012.6
20260906084419 70 315 0.0 0.0 0.00 0.00 0.00 40 1012.7
20260906084415 70 50 0.0 0.0 0.00 0.00 0.00 41 1012.6
20260906084405 70 50 0.0 0.0 0.00 0.00 0.00 41 1012.6
20260906084356 70 50 0.0 0.0 0.00 0.00 0.00 42 1012.6
20260906084214 70 315 0.0 0.0 0.00 0.00 0.00 43 1012.7
20260906084144 70 315 0.0 0.0 0.00 0.00 0.00 43 1012.7
20260906084131 70 53 0.0 2.0 0.00 0.00 0.00 40 1013.4
20260906084114 70 315 0.0 0.0 0.00 0.00 0.00 40 1012.7
20260906084044 70 315 0.0 0.0 0.00 0.00 0.00 40 1012.7
20260906084020 70 315 0.0 0.0 0.00 0.00 0.00 39 1012.7
20260906084014 70 315 0.0 0.0 0.00 0.00 0.00 41 1012.7
20260906083944 70 315 0.0 0.0 0.00 0.00 0.00 41 1012.7
20260906083933 70 315 0.0 0.0 0.00 0.00 0.00 41 1012.7
20260906083928 70 315 0.0 0.0 0.00 0.00 0.00 40 1012.7
20260906083744 70 315 0.0 0.0 0.00 0.00 0.00 42 1012.7
20260906083726 70 347 0.0 0.0 0.00 0.00 0.00 40 1012.7
20260906083721 70 315 0.0 0.0 0.00 0.00 0.00 40 1012.7
20260906083706 70 315 0.0 0.0 0.00 0.00 0.00 40 1012.7
20260906083658 70 315 0.0 0.0 0.00 0.00 0.00 40 1012.7
20260906083626 70 37 0.0 2.0 0.00 0.00 0.00 40 1013.5
20260906083525 70 315 0.0 0.0 0.00 0.00 0.00 40 1012.7
20260906083350 70 347 0.0 0.0 0.00 0.00 0.00 40 1012.7
20260906083346 70 315 0.0 0.0 0.00 0.00 0.00 39 1012.7
20260906083336 70 315 0.0 0.0 0.00 0.00 0.00 39 1012.7
20260906083324 70 347 0.0 0.0 0.00 0.00 0.00 39 1012.7
20260906083121 70 19 1.0 1.0 0.00 0.00 0.00 40 1013.5
20260906083115 70 347 0.0 0.0 0.00 0.00 0.00 40 1012.7
20260906083056 70 347 0.0 0.0 0.00 0.00 0.00 39 1012.7
20260906083044 70 347 0.0 0.0 0.00 0.00 0.00 40 1012.7
20260906083015 70 347 0.0 0.0 0.00 0.00 0.00 41 1012.7
20260906082957 70 347 0.0 0.0 0.00 0.00 0.00 39 1012.7
20260906082919 70 347 0.0 0.0 0.00 0.00 0.00 40 1012.7
20260906082915 70 347 0.0 0.0 0.00 0.00 0.00 40 1012.7
20260906082900 70 347 0.0 0.0 0.00 0.00 0.00 39 1012.7
20260906082847 70 347 0.0 0.0 0.00 0.00 0.00 40 1012.7
20260906082617 70 89 0.0 2.0 0.00 0.00 0.00 40 1013.6
20260906082514 70 347 0.0 0.0 0.00 0.00 0.00 40 1012.7
20260906082447 70 20 2.0 0.0 0.00 0.00 0.00 41 1012.7
20260906082436 70 347 0.0 0.0 0.00 0.00 0.00 41 1012.7
20260906082427 70 347 0.0 0.0 0.00 0.00 0.00 40 1012.7
20260906082247 70 20 2.0 0.0 0.00 0.00 0.00 40 1012.7
20260906082215 70 20 2.0 0.0 0.00 0.00 0.00 40 1012.7
20260906082116 70 20 2.0 0.0 0.00 0.00 0.00 40 1012.7
20260906082112 70 6 0.0 3.0 0.00 0.00 0.00 40 1013.6
20260906082050 70 20 2.0 0.0 0.00 0.00 0.00 40 1012.7
20260906082035 70 20 2.0 0.0 0.00 0.00 0.00 40 1012.7
20260906082027 70 20 2.0 0.0 0.00 0.00 0.00 40 1012.7
20260906081814 70 20 2.0 0.0 0.00 0.00 0.00 41 1012.7
20260906081755 70 20 2.0 2.0 0.00 0.00 0.00 41 1012.7
20260906081734 70 20 2.0 0.0 0.00 0.00 0.00 41 1012.7
20260906081725 70 20 2.0 0.0 0.00 0.00 0.00 41 1012.7
20260906081608 70 55 0.0 1.0 0.00 0.00 0.00 41 1013.6
20260906081545 70 20 2.0 0.0 0.00 0.00 0.00 41 1012.7
20260906081518 69 50 0.0 0.0 0.00 0.00 0.00 41 1012.9
20260906081514 70 20 2.0 0.0 0.00 0.00 0.00 42 1012.7
20260906081445 70 20 2.0 0.0 0.00 0.00 0.00 42 1012.7
20260906081434 70 20 2.0 0.0 0.00 0.00 0.00 41 1012.7
20260906081425 70 20 2.0 0.0 0.00 0.00 0.00 41 1012.7
20260906081244 69 50 0.0 0.0 0.00 0.00 0.00 41 1012.9
20260906081215 69 50 0.0 0.0 0.00 0.00 0.00 42 1012.9
20260906081154 69 50 0.0 0.0 0.00 0.00 0.00 41 1012.9
20260906081102 69 44 0.0 2.0 0.00 0.00 0.00 42 1013.6
20260906081016 69 50 0.0 0.0 0.00 0.00 0.00 41 1012.9
20260906080915 69 50 0.0 0.0 0.00 0.00 0.00 41 1012.9
20260906080905 69 50 0.0 0.0 0.00 0.00 0.00 43 1012.9
20260906080844 69 50 0.0 0.0 0.00 0.00 0.00 42 1012.9
20260906080816 69 50 0.0 0.0 0.00 0.00 0.00 43 1012.9
20260906080751 69 50 0.0 0.0 0.00 0.00 0.00 43 1012.9
20260906080745 69 50 0.0 0.0 0.00 0.00 0.00 42 1012.9
20260906080714 69 50 0.0 0.0 0.00 0.00 0.00 42 1012.9
20260906080614 69 50 0.0 0.0 0.00 0.00 0.00 42 1012.9
20260906080604 69 50 0.0 0.0 0.00 0.00 0.00 44 1012.9
20260906080559 69 17 0.0 2.0 0.00 0.00 0.00 43 1013.7
20260906080555 69 50 0.0 0.0 0.00 0.00 0.00 43 1012.9
20260906080545 69 50 0.0 0.0 0.00 0.00 0.00 42 1012.9
20260906080534 69 50 0.0 0.0 0.00 0.00 0.00 43 1012.9
20260906080245 69 103 0.0 0.0 0.00 0.00 0.00 43 1012.7
20260906080220 69 103 0.0 0.0 0.00 0.00 0.00 42 1012.7
20260906080207 69 103 0.0 0.0 0.00 0.00 0.00 42 1012.7
20260906080144 70 103 0.0 0.0 0.00 0.00 0.00 43 1012.7
20260906080116 69 103 0.0 0.0 0.00 0.00 0.00 42 1012.7
20260906080055 69 47 0.0 2.0 0.00 0.00 0.00 41 1013.5
20260906080048 69 103 0.0 0.0 0.00 0.00 0.00 43 1012.7
20260906080018 69 103 0.0 0.0 0.00 0.00 0.00 41 1012.7
20260906075914 69 103 0.0 0.0 0.00 0.00 0.00 42 1012.7
20260906075849 69 103 0.0 0.0 0.00 0.00 0.00 42 1012.7
20260906075834 69 103 0.0 0.0 0.00 0.00 0.00 42 1012.7
20260906075549 69 125 0.0 1.0 0.00 0.00 0.00 43 1013.7
20260906075545 69 103 0.0 0.0 0.00 0.00 0.00 43 1012.7
20260906075512 69 103 0.0 0.0 0.00 0.00 0.00 43 1012.7
20260906075416 69 103 0.0 0.0 0.00 0.00 0.00 44 1012.7
20260906075406 70 50 0.0 0.0 0.00 0.00 0.00 42 1012.5
20260906075344 69 103 0.0 0.0 0.00 0.00 0.00 44 1012.7
20260906075315 69 103 0.0 1.0 0.00 0.00 0.00 44 1012.7
20260906075245 69 50 0.0 0.0 0.00 0.00 0.00 44 1012.5
20260906075220 70 50 0.0 0.0 0.00 0.00 0.00 42 1012.8
20260906075215 69 50 0.0 0.0 0.00 0.00 0.00 44 1012.5
20260906075146 69 50 0.0 0.0 0.00 0.00 0.00 45 1012.5
20260906075115 70 50 0.0 0.0 0.00 0.00 0.00 44 1012.5
20260906075106 70 50 0.0 0.0 0.00 0.00 0.00 43 1012.5
20260906075049 70 50 0.0 0.0 0.00 0.00 0.00 44 1012.5
20260906075044 70 44 0.0 2.0 0.00 0.00 0.00 44 1013.5
20260906075038 70 50 0.0 0.0 0.00 0.00 0.00 44 1012.5
20260906075028 70 50 0.0 0.0 0.00 0.00 0.00 43 1012.5
20260906074857 70 50 0.0 0.0 0.00 0.00 0.00 43 1012.5
20260906074849 70 50 0.0 0.0 0.00 0.00 0.00 43 1012.5
20260906074733 70 50 0.0 0.0 0.00 0.00 0.00 42 1012.5
20260906074725 70 50 0.0 0.0 0.00 0.00 0.00 42 1012.5
20260906074556 70 50 0.0 0.0 0.00 0.00 0.00 42 1012.5
20260906074539 70 32 0.0 1.0 0.00 0.00 0.00 42 1013.7
20260906074423 69 50 0.0 0.0 0.00 0.00 0.00 43 1012.8
20260906074419 70 50 0.0 0.0 0.00 0.00 0.00 44 1012.5
20260906074407 70 50 0.0 0.0 0.00 0.00 0.00 44 1012.5
20260906074358 70 50 0.0 0.0 0.00 0.00 0.00 43 1012.5
20260906074227 69 50 0.0 0.0 0.00 0.00 0.00 43 1012.8
20260906074214 70 50 0.0 0.0 0.00 0.00 0.00 42 1012.8
20260906074157 70 50 0.0 0.0 0.00 0.00 0.00 42 1012.8
20260906074116 70 50 0.0 0.0 0.00 0.00 0.00 42 1012.8
20260906074049 70 50 0.0 0.0 0.00 0.00 0.00 42 1012.8
20260906074039 69 50 0.0 0.0 0.00 0.00 0.00 42 1012.8
20260906074037 69 60 0.0 1.0 0.00 0.00 0.00 42 1013.5
20260906074031 69 50 0.0 0.0 0.00 0.00 0.00 42 1012.8
20260906074015 70 50 0.0 0.0 0.00 0.00 0.00 43 1012.8
20260906074005 69 50 0.0 0.0 0.00 0.00 0.00 45 1012.8
20260906073715 69 50 0.0 0.0 0.00 0.00 0.00 42 1012.8
20260906073647 69 50 0.0 0.0 0.00 0.00 0.00 43 1012.8
20260906073614 69 50 0.0 0.0 0.00 0.00 0.00 43 1012.8
20260906073546 69 50 0.0 0.0 0.00 0.00 0.00 43 1012.8
20260906073532 69 53 0.0 0.0 0.00 0.00 0.00 44 1013.6
20260906073515 69 50 0.0 0.0 0.00 0.00 0.00 44 1012.8
20260906073446 69 50 0.0 0.0 0.00 0.00 0.00 44 1012.8
20260906073415 69 50 0.0 0.0 0.00 0.00 0.00 45 1012.8
20260906073400 69 60 0.0 0.0 0.00 0.00 0.00 46 1012.4
20260906073346 69 50 0.0 0.0 0.00 0.00 0.00 45 1012.8
20260906073315 69 50 0.0 0.0 0.00 0.00 0.00 44 1012.8
20260906073245 69 60 0.0 0.0 0.00 0.00 0.00 44 1012.4
20260906073214 69 60 0.0 0.0 0.00 0.00 0.00 45 1012.4
20260906073144 69 60 0.0 0.0 0.00 0.00 0.00 45 1012.4
20260906073114 69 60 0.0 0.0 0.00 0.00 0.00 45 1012.4
20260906073046 69 60 0.0 0.0 0.00 0.00 0.00 45 1012.4
20260906073036 69 60 0.0 0.0 0.00 0.00 0.00 44 1012.4
20260906073028 69 44 0.0 0.0 0.00 0.00 0.00 44 1013.6
20260906073026 69 60 0.0 0.0 0.00 0.00 0.00 45 1012.4
20260906072846 69 60 0.0 0.0 0.00 0.00 0.00 46 1012.4
20260906072822 69 60 0.0 0.0 0.00 0.00 0.00 45 1012.4
20260906072815 69 60 0.0 0.0 0.00 0.00 0.00 45 1012.4
20260906072745 69 60 0.0 0.0 0.00 0.00 0.00 47 1012.4
20260906072714 69 60 0.0 0.0 0.00 0.00 0.00 45 1012.4
20260906072630 69 60 0.0 0.0 0.00 0.00 0.00 45 1012.4
20260906072523 69 142 0.0 0.0 0.00 0.00 0.00 45 1013.5
20260906072505 69 60 0.0 0.0 0.00 0.00 0.00 45 1012.4
20260906072454 69 60 0.0 0.0 0.00 0.00 0.00 46 1012.4
20260906072325 69 180 0.0 0.0 0.00 0.00 0.00 44 1012.5
20260906072315 69 60 0.0 0.0 0.00 0.00 0.00 45 1012.4
20260906072245 69 180 0.0 0.0 0.00 0.00 0.00 43 1012.5
20260906072215 69 180 0.0 0.0 0.00 0.00 0.00 44 1012.5
20260906072145 69 180 0.0 0.0 0.00 0.00 0.00 44 1012.5
20260906072129 69 180 0.0 0.0 0.00 0.00 0.00 43 1012.5
20260906072115 69 180 0.0 0.0 0.00 0.00 0.00 44 1012.5
20260906072020 69 135 0.0 1.0 0.00 0.00 0.00 46 1013.5
20260906072016 69 180 0.0 0.0 0.00 0.00 0.00 45 1012.5
20260906072006 69 180 0.0 0.0 0.00 0.00 0.00 46 1012.5
20260906071955 69 180 0.0 0.0 0.00 0.00 0.00 45 1012.5
20260906071821 70 180 0.0 0.0 0.00 0.00 0.00 44 1012.5
20260906071814 69 180 0.0 0.0 0.00 0.00 0.00 44 1012.5
20260906071755 69 180 0.0 0.0 0.00 0.00 0.00 43 1012.5
20260906071625 70 351 1.0 0.0 0.00 0.00 0.00 44 1012.7
20260906071614 69 180 0.0 0.0 0.00 0.00 0.00 43 1012.5
20260906071518 70 351 1.0 0.0 0.00 0.00 0.00 43 1012.7
20260906071515 70 119 0.0 0.0 0.00 0.00 0.00 43 1013.5
20260906071504 70 180 0.0 0.0 0.00 0.00 0.00 43 1012.5
20260906071454 70 180 0.0 0.0 0.00 0.00 0.00 44 1012.5
20260906071329 70 180 0.0 0.0 0.00 0.00 0.00 44 1012.5
20260906071305 70 351 1.0 0.0 0.00 0.00 0.00 44 1012.7
20260906071255 70 351 1.0 0.0 0.00 0.00 0.00 45 1012.7
20260906071122 70 351 1.0 0.0 0.00 0.00 0.00 43 1012.7
20260906071108 70 351 1.0 0.0 0.00 0.00 0.00 43 1012.7
20260906071011 70 9 1.0 2.0 0.00 0.00 0.00 43 1013.5
20260906070915 70 351 1.0 0.0 0.00 0.00 0.00 43 1012.7
20260906070844 70 351 1.0 0.0 0.00 0.00 0.00 43 1012.7
20260906070814 70 351 1.0 0.0 0.00 0.00 0.00 43 1012.7
20260906070745 70 351 1.0 0.0 0.00 0.00 0.00 43 1012.7
20260906070714 70 351 1.0 0.0 0.00 0.00 0.00 43 1012.7
20260906070644 70 351 1.0 0.0 0.00 0.00 0.00 43 1012.7
20260906070614 70 351 1.0 0.0 0.00 0.00 0.00 43 1012.7
20260906070544 70 351 1.0 0.0 0.00 0.00 0.00 43 1012.7
20260906070514 70 351 1.0 0.0 0.00 0.00 0.00 43 1012.7
20260906070506 70 349 0.0 2.0 0.00 0.00 0.00 42 1013.5
20260906070444 70 351 1.0 0.0 0.00 0.00 0.00 43 1012.7
20260906070414 70 351 1.0 0.0 0.00 0.00 0.00 42 1012.7
20260906070344 70 351 1.0 0.0 0.00 0.00 0.00 42 1012.7
20260906070316 70 351 1.0 1.0 0.00 0.00 0.00 43 1012.7
20260906070303 70 25 0.0 0.0 0.00 0.00 0.00 44 1012.7
20260906070256 70 25 0.0 0.0 0.00 0.00 0.00 43 1012.7
20260906070215 70 25 0.0 0.0 0.00 0.00 0.00 43 1012.7
20260906070145 70 25 0.0 0.0 0.00 0.00 0.00 43 1012.7
20260906070119 70 25 0.0 0.0 0.00 0.00 0.00 43 1012.7
20260906070114 70 25 0.0 0.0 0.00 0.00 0.00 43 1012.7
20260906070045 70 25 0.0 0.0 0.00 0.00 0.00 43 1012.7
20260906070014 70 25 0.0 0.0 0.00 0.00 0.00 43 1012.7
20260906070002 70 7 0.0 2.0 0.00 0.00 0.00 43 1013.5
20260906065950 70 25 0.0 0.0 0.00 0.00 0.00 43 1012.7
20260906065929 70 25 0.0 0.0 0.00 0.00 0.00 43 1012.7
20260906065916 70 25 0.0 0.0 0.00 0.00 0.00 43 1012.7
20260906065908 70 25 0.0 0.0 0.00 0.00 0.00 43 1012.7
20260906065614 70 25 0.0 0.0 0.00 0.00 0.00 43 1012.7
20260906065601 70 84 0.0 0.0 0.00 0.00 0.00 43 1012.5
20260906065554 70 25 0.0 0.0 0.00 0.00 0.00 43 1012.7
20260906065501 70 6 0.0 2.0 0.00 0.00 0.00 43 1013.6
20260906065416 70 25 0.0 0.0 0.00 0.00 0.00 43 1012.7
20260906065354 70 84 0.0 0.0 0.00 0.00 0.00 44 1012.5
20260906065344 70 25 0.0 0.0 0.00 0.00 0.00 43 1012.7
20260906065315 70 25 0.0 2.0 0.00 0.00 0.00 44 1012.7
20260906065235 69 84 0.0 0.0 0.00 0.00 0.00 45 1012.5
20260906065228 70 84 0.0 0.0 0.00 0.00 0.00 43 1012.5
20260906065047 70 84 0.0 0.0 0.00 0.00 0.00 44 1012.5
20260906065037 69 84 0.0 0.0 0.00 0.00 0.00 45 1012.5
20260906065033 70 84 0.0 0.0 0.00 0.00 0.00 43 1012.5
20260906064956 70 343 0.0 1.0 0.00 0.00 0.00 44 1013.7
20260906064900 69 0 0.0 0.0 0.00 0.00 0.00 45 1012.7
20260906064854 69 84 0.0 0.0 0.00 0.00 0.00 44 1012.5
20260906064715 69 84 0.0 0.0 0.00 0.00 0.00 44 1012.5
20260906064645 69 84 0.0 0.0 0.00 0.00 0.00 44 1012.5
20260906064635 69 0 0.0 0.0 0.00 0.00 0.00 44 1012.7
20260906064619 69 0 0.0 0.0 0.00 0.00 0.00 45 1012.7
20260906064615 69 84 0.0 0.0 0.00 0.00 0.00 45 1012.5
20260906064601 70 0 0.0 0.0 0.00 0.00 0.00 45 1012.7
20260906064557 69 84 0.0 0.0 0.00 0.00 0.00 45 1012.5
20260906064547 69 84 0.0 0.0 0.00 0.00 0.00 44 1012.5
20260906064538 69 84 0.0 0.0 0.00 0.00 0.00 44 1012.5
20260906064453 69 69 0.0 1.0 0.00 0.00 0.00 45 1013.5
20260906064420 69 84 0.0 0.0 0.00 0.00 0.00 45 1012.5
20260906064409 69 84 0.0 1.0 0.00 0.00 0.00 44 1012.5
20260906064129 69 0 0.0 0.0 0.00 0.00 0.00 46 1012.7
20260906063948 69 38 0.0 0.0 0.00 0.00 0.00 48 1013.5
20260906063945 69 0 0.0 0.0 0.00 0.00 0.00 47 1012.7
20260906063919 70 0 0.0 1.0 0.00 0.00 0.00 45 1012.7
20260906063915 69 0 0.0 0.0 0.00 0.00 0.00 49 1012.7
20260906063905 69 0 0.0 0.0 0.00 0.00 0.00 46 1012.7
20260906063855 70 0 0.0 0.0 0.00 0.00 0.00 46 1012.7
20260906063716 70 0 0.0 0.0 0.00 0.00 0.00 45 1012.7
20260906063645 70 0 0.0 0.0 0.00 0.00 0.00 45 1012.7
20260906063614 70 0 0.0 0.0 0.00 0.00 0.00 45 1012.7
20260906063534 70 50 0.0 0.0 0.00 0.00 0.00 46 1012.7
20260906063515 70 0 0.0 0.0 0.00 0.00 0.00 45 1012.7
20260906063450 70 50 0.0 0.0 0.00 0.00 0.00 46 1012.7
20260906063446 70 0 0.0 0.0 0.00 0.00 0.00 45 1012.7
20260906063443 70 52 1.0 2.0 0.00 0.00 0.00 45 1013.6
20260906063436 70 0 0.0 0.0 0.00 0.00 0.00 46 1012.7
20260906063426 70 0 0.0 0.0 0.00 0.00 0.00 44 1012.7
20260906063249 70 50 0.0 0.0 0.00 0.00 0.00 45 1012.7
20260906063245 70 50 0.0 0.0 0.00 0.00 0.00 45 1012.7
20260906063225 70 50 0.0 0.0 0.00 0.00 0.00 46 1012.7
20260906063219 70 50 0.0 0.0 0.00 0.00 0.00 46 1012.7
20260906063205 70 50 0.0 0.0 0.00 0.00 0.00 45 1012.7
20260906063046 70 50 0.0 0.0 0.00 0.00 0.00 45 1012.7
20260906063035 70 50 0.0 0.0 0.00 0.00 0.00 45 1012.7
20260906062938 70 37 0.0 1.0 0.00 0.00 0.00 46 1013.6
20260906062749 70 30 1.0 0.0 0.00 0.00 0.00 46 1012.6
20260906062745 70 50 0.0 0.0 0.00 0.00 0.00 45 1012.7
20260906062727 70 50 0.0 0.0 0.00 0.00 0.00 46 1012.7
20260906062717 70 50 0.0 0.0 0.00 0.00 0.00 47 1012.7
20260906062707 70 50 0.0 0.0 0.00 0.00 0.00 48 1012.7
20260906062433 70 50 0.0 1.0 0.00 0.00 0.00 45 1013.7
20260906062417 70 50 0.0 0.0 0.00 0.00 0.00 45 1012.7
20260906062407 70 50 0.0 0.0 0.00 0.00 0.00 45 1012.7
20260906062356 70 50 0.0 0.0 0.00 0.00 0.00 45 1012.7
20260906062214 70 30 1.0 0.0 0.00 0.00 0.00 45 1012.6
20260906062146 70 30 1.0 0.0 0.00 0.00 0.00 45 1012.6
20260906062114 70 30 1.0 0.0 0.00 0.00 0.00 46 1012.6
20260906062044 70 30 1.0 0.0 0.00 0.00 0.00 46 1012.6
20260906062025 70 30 1.0 0.0 0.00 0.00 0.00 44 1012.6
20260906062014 70 30 1.0 0.0 0.00 0.00 0.00 45 1012.6
20260906061945 71 30 1.0 0.0 0.00 0.00 0.00 45 1012.6
20260906061927 71 44 0.0 2.0 0.00 0.00 0.00 45 1013.7
20260906061915 71 30 1.0 0.0 0.00 0.00 0.00 44 1012.6
20260906061844 71 30 1.0 0.0 0.00 0.00 0.00 45 1012.6
20260906061834 70 30 1.0 1.0 0.00 0.00 0.00 45 1012.6
20260906061814 71 30 1.0 0.0 0.00 0.00 0.00 45 1012.6
20260906061726 70 22 2.0 0.0 0.00 0.00 0.00 45 1012.7
20260906061715 71 30 1.0 0.0 0.00 0.00 0.00 45 1012.6
20260906061654 70 30 1.0 0.0 0.00 0.00 0.00 44 1012.6
20260906061531 70 22 2.0 0.0 0.00 0.00 0.00 46 1012.7
20260906061527 70 30 1.0 0.0 0.00 0.00 0.00 45 1012.6
20260906061515 70 30 1.0 0.0 0.00 0.00 0.00 45 1012.6
20260906061507 70 30 1.0 0.0 0.00 0.00 0.00 45 1012.6
20260906061424 70 22 0.0 1.0 0.00 0.00 0.00 45 1013.8
20260906061215 70 22 2.0 0.0 0.00 0.00 0.00 45 1012.7
20260906061144 70 22 2.0 0.0 0.00 0.00 0.00 45 1012.7
20260906061114 70 22 2.0 0.0 0.00 0.00 0.00 46 1012.7
20260906061035 71 22 2.0 0.0 0.00 0.00 0.00 44 1012.7
20260906061031 70 22 2.0 0.0 0.00 0.00 0.00 46 1012.7
20260906060918 70 44 0.0 2.0 0.00 0.00 0.00 45 1013.6
20260906060845 70 22 2.0 0.0 0.00 0.00 0.00 45 1012.7
20260906060814 70 22 2.0 0.0 0.00 0.00 0.00 45 1012.7
20260906060715 71 22 2.0 0.0 0.00 0.00 0.00 45 1012.7
20260906060626 71 22 2.0 0.0 0.00 0.00 0.00 45 1012.7
20260906060618 71 22 2.0 0.0 0.00 0.00 0.00 45 1012.7
20260906060607 71 22 2.0 0.0 0.00 0.00 0.00 44 1012.7
20260906060416 71 26 1.0 2.0 0.00 0.00 0.00 44 1013.6
20260906060358 71 22 2.0 0.0 0.00 0.00 0.00 44 1012.7
20260906060315 71 22 2.0 2.0 0.00 0.00 0.00 44 1012.7
20260906060245 71 15 0.0 0.0 0.00 0.00 0.00 44 1012.7
20260906060215 71 15 0.0 0.0 0.00 0.00 0.00 44 1012.7
20260906060145 71 15 0.0 0.0 0.00 0.00 0.00 45 1012.7
20260906060117 71 15 0.0 0.0 0.00 0.00 0.00 44 1012.7
20260906060044 71 15 0.0 0.0 0.00 0.00 0.00 45 1012.7
20260906060016 71 15 0.0 0.0 0.00 0.00 0.00 44 1012.7
20260906055957 71 15 0.0 0.0 0.00 0.00 0.00 44 1012.7
20260906055915 71 15 0.0 0.0 0.00 0.00 0.00 44 1012.7
20260906055912 71 13 0.0 1.0 0.00 0.00 0.00 44 1013.6
20260906055844 71 15 0.0 0.0 0.00 0.00 0.00 45 1012.7
20260906055817 71 15 0.0 0.0 0.00 0.00 0.00 44 1012.7
20260906055716 71 15 0.0 0.0 0.00 0.00 0.00 44 1012.7
20260906055645 71 15 0.0 0.0 0.00 0.00 0.00 44 1012.7
20260906055614 71 15 0.0 0.0 0.00 0.00 0.00 45 1012.7
20260906055544 71 15 0.0 0.0 0.00 0.00 0.00 44 1012.7
20260906055514 71 15 0.0 0.0 0.00 0.00 0.00 44 1012.7
20260906055415 71 15 0.0 0.0 0.00 0.00 0.00 44 1012.7
20260906055407 71 354 0.0 2.0 0.00 0.00 0.00 45 1013.3
20260906055344 71 15 0.0 0.0 0.00 0.00 0.00 44 1012.7
20260906055316 71 15 0.0 2.0 0.00 0.00 0.00 45 1012.7
20260906055215 71 50 0.0 0.0 0.00 0.00 0.00 45 1012.7
20260906055145 71 50 0.0 0.0 0.00 0.00 0.00 45 1012.7
20260906055114 71 50 0.0 0.0 0.00 0.00 0.00 45 1012.7
20260906055045 71 50 0.0 0.0 0.00 0.00 0.00 45 1012.7
20260906055022 69 50 0.0 0.0 0.00 0.00 0.00 47 1012.7
20260906055015 70 50 0.0 0.0 0.00 0.00 0.00 45 1012.7
20260906054914 70 50 0.0 0.0 0.00 0.00 0.00 45 1012.7
20260906054903 70 356 0.0 2.0 0.00 0.00 0.00 45 1013.7
20260906054853 70 50 0.0 0.0 0.00 0.00 0.00 50 1012.7
20260906054846 70 50 0.0 0.0 0.00 0.00 0.00 45 1012.7
20260906054814 70 50 0.0 0.0 0.00 0.00 0.00 45 1012.7
20260906054744 70 50 0.0 0.0 0.00 0.00 0.00 45 1012.7
20260906054727 70 50 0.0 0.0 0.00 0.00 0.00 46 1012.7
20260906054717 70 50 0.0 0.0 0.00 0.00 0.00 47 1012.7
20260906054654 69 50 0.0 0.0 0.00 0.00 0.00 48 1012.7
20260906054535 69 50 0.0 0.0 0.00 0.00 0.00 47 1012.7
20260906054525 70 50 0.0 0.0 0.00 0.00 0.00 48 1012.7
20260906054357 69 50 0.0 0.0 0.00 0.00 0.00 51 1012.7
20260906054316 70 50 0.0 0.0 0.00 0.00 0.00 48 1012.7
20260906054245 70 32 0.0 0.0 0.00 0.00 0.00 48 1012.5
20260906054214 70 32 0.0 0.0 0.00 0.00 0.00 49 1012.5
20260906054145 70 32 0.0 0.0 0.00 0.00 0.00 47 1012.5
20260906054114 70 32 0.0 0.0 0.00 0.00 0.00 47 1012.5
20260906054045 70 32 0.0 0.0 0.00 0.00 0.00 47 1012.5
20260906054014 70 32 0.0 0.0 0.00 0.00 0.00 47 1012.5
20260906053917 70 32 0.0 0.0 0.00 0.00 0.00 48 1012.5
20260906053853 70 32 0.0 0.0 0.00 0.00 0.00 47 1013.8
20260906053815 70 32 0.0 0.0 0.00 0.00 0.00 47 1012.5
20260906053750 70 129 0.0 0.0 0.00 0.00 0.00 47 1012.7
20260906053745 70 32 0.0 0.0 0.00 0.00 0.00 47 1012.5
20260906053715 70 32 0.0 0.0 0.00 0.00 0.00 47 1012.5
20260906053645 70 32 0.0 0.0 0.00 0.00 0.00 47 1012.5
20260906053628 70 129 0.0 0.0 0.00 0.00 0.00 47 1012.7
20260906053615 70 32 0.0 0.0 0.00 0.00 0.00 46 1012.5
20260906053544 70 32 0.0 0.0 0.00 0.00 0.00 46 1012.5
20260906053514 70 32 0.0 0.0 0.00 0.00 0.00 46 1012.5
20260906053438 70 129 0.0 0.0 0.00 0.00 0.00 47 1012.7
20260906053431 70 32 0.0 0.0 0.00 0.00 0.00 47 1012.5
20260906053422 70 32 0.0 0.0 0.00 0.00 0.00 47 1012.5
20260906053412 70 32 0.0 0.0 0.00 0.00 0.00 47 1012.5
20260906053349 70 32 0.0 0.0 0.00 0.00 0.00 47 1013.5
20260906053116 70 129 0.0 0.0 0.00 0.00 0.00 47 1012.7
20260906053102 70 129 0.0 0.0 0.00 0.00 0.00 46 1012.7
20260906053055 70 129 0.0 0.0 0.00 0.00 0.00 47 1012.7
20260906052920 70 129 0.0 0.0 0.00 0.00 0.00 46 1012.7
20260906052914 70 129 0.0 0.0 0.00 0.00 0.00 47 1012.7
20260906052844 70 129 0.0 0.0 0.00 0.00 0.00 47 1012.7
20260906052815 70 129 0.0 0.0 0.00 0.00 0.00 46 1012.7
20260906052722 70 129 0.0 0.0 0.00 0.00 0.00 46 1012.7
20260906052709 70 129 0.0 0.0 0.00 0.00 0.00 46 1012.7
20260906052414 70 129 0.0 0.0 0.00 0.00 0.00 46 1012.7
20260906052348 71 0 0.0 0.0 0.00 0.00 0.00 45 1012.7
20260906052344 70 129 0.0 0.0 0.00 0.00 0.00 45 1012.7
20260906052341 70 129 0.0 0.0 0.00 0.00 0.00 46 1013.5
20260906052315 70 129 0.0 0.0 0.00 0.00 0.00 46 1012.7
20260906052245 70 0 0.0 0.0 0.00 0.00 0.00 47 1012.7
20260906052235 71 0 0.0 0.0 0.00 0.00 0.00 45 1012.7
20260906052214 70 0 0.0 0.0 0.00 0.00 0.00 47 1012.7
20260906052144 70 0 0.0 0.0 0.00 0.00 0.00 47 1012.7
20260906052120 71 0 0.0 0.0 0.00 0.00 0.00 45 1012.7
20260906052115 70 0 0.0 0.0 0.00 0.00 0.00 46 1012.7
20260906052047 71 0 0.0 0.0 0.00 0.00 0.00 46 1012.7
20260906052037 71 0 0.0 0.0 0.00 0.00 0.00 47 1012.7
20260906052025 71 0 0.0 0.0 0.00 0.00 0.00 46 1012.7
20260906051837 71 119 0.0 0.0 0.00 0.00 0.00 45 1013.7
20260906051614 71 0 0.0 0.0 0.00 0.00 0.00 46 1012.7
20260906051544 71 0 0.0 0.0 0.00 0.00 0.00 45 1012.7
20260906051532 71 11 0.0 0.0 0.00 0.00 0.00 44 1012.7
20260906051514 71 0 0.0 0.0 0.00 0.00 0.00 45 1012.7
20260906051430 71 11 0.0 0.0 0.00 0.00 0.00 46 1012.7
20260906051415 71 0 0.0 0.0 0.00 0.00 0.00 45 1012.7
20260906051344 71 0 0.0 0.0 0.00 0.00 0.00 45 1012.7
20260906051336 71 0 0.0 0.0 0.00 0.00 0.00 45 1013.9
20260906051315 71 0 0.0 0.0 0.00 0.00 0.00 45 1012.7
20260906051255 71 11 0.0 0.0 0.00 0.00 0.00 47 1012.7
20260906051220 71 11 0.0 0.0 0.00 0.00 0.00 45 1012.7
20260906051206 71 11 0.0 0.0 0.00 0.00 0.00 44 1012.7
20260906050933 71 11 0.0 0.0 0.00 0.00 0.00 45 1012.7
20260906050925 71 11 0.0 0.0 0.00 0.00 0.00 45 1012.7
20260906050832 71 143 0.0 0.0 0.00 0.00 0.00 47 1013.7
20260906050744 71 11 0.0 0.0 0.00 0.00 0.00 47 1012.7
20260906050713 71 11 0.0 0.0 0.00 0.00 0.00 46 1012.7
20260906050658 71 11 0.0 0.0 0.00 0.00 0.00 46 1012.7
20260906050613 71 11 0.0 0.0 0.00 0.00 0.00 46 1012.7
20260906050513 71 11 0.0 0.0 0.00 0.00 0.00 45 1012.7
20260906050414 71 11 0.0 0.0 0.00 0.00 0.00 46 1012.7
20260906050344 71 11 0.0 0.0 0.00 0.00 0.00 46 1012.7
20260906050327 71 11 0.0 0.0 0.00 0.00 0.00 46 1013.7
20260906050315 71 11 0.0 0.0 0.00 0.00 0.00 47 1012.7
20260906050244 71 37 0.0 0.0 0.00 0.00 0.00 46 1012.7
20260906050213 71 37 0.0 0.0 0.00 0.00 0.00 46 1012.7
20260906050143 71 37 0.0 0.0 0.00 0.00 0.00 46 1012.7
20260906050113 71 37 0.0 0.0 0.00 0.00 0.00 46 1012.7
20260906050024 72 37 0.0 0.0 0.00 0.00 0.00 47 1012.7
20260906050013 72 37 0.0 0.0 0.00 0.00 0.00 46 1012.7
20260906045914 72 37 0.0 0.0 0.00 0.00 0.00 46 1012.7
20260906045844 72 37 0.0 0.0 0.00 0.00 0.00 46 1012.7
20260906045826 72 80 0.0 2.0 0.00 0.00 0.00 46 1013.8
20260906045815 72 37 0.0 0.0 0.00 0.00 0.00 45 1012.7
20260906045716 72 37 0.0 0.0 0.00 0.00 0.00 46 1012.7
20260906045706 72 50 0.0 0.0 0.00 0.00 0.00 48 1013.0
20260906045655 72 37 0.0 0.0 0.00 0.00 0.00 46 1012.7
20260906045513 72 37 0.0 0.0 0.00 0.00 0.00 47 1012.7
20260906045443 72 37 0.0 0.0 0.00 0.00 0.00 48 1012.7
20260906045413 72 37 0.0 0.0 0.00 0.00 0.00 47 1012.7
20260906045344 72 37 0.0 0.0 0.00 0.00 0.00 47 1012.7
20260906045334 72 50 0.0 0.0 0.00 0.00 0.00 48 1013.0
20260906045330 72 37 0.0 0.0 0.00 0.00 0.00 48 1012.7
20260906045320 72 37 0.0 1.0 0.00 0.00 0.00 48 1013.9
20260906045143 72 50 0.0 0.0 0.00 0.00 0.00 47 1013.0
20260906045113 72 50 0.0 0.0 0.00 0.00 0.00 47 1013.0
20260906045013 72 50 0.0 0.0 0.00 0.00 0.00 48 1013.0
20260906044943 72 50 0.0 0.0 0.00 0.00 0.00 48 1013.0
20260906044934 72 50 0.0 0.0 0.00 0.00 0.00 50 1013.0
20260906044930 72 50 0.0 0.0 0.00 0.00 0.00 47 1013.0
20260906044817 72 44 0.0 1.0 0.00 0.00 0.00 48 1013.9
20260906044714 72 50 0.0 0.0 0.00 0.00 0.00 48 1013.0
20260906044643 72 50 0.0 0.0 0.00 0.00 0.00 48 1013.0
20260906044613 72 50 0.0 0.0 0.00 0.00 0.00 48 1013.0
20260906044559 72 37 0.0 0.0 0.00 0.00 0.00 49 1013.3
20260906044534 72 50 0.0 0.0 0.00 0.00 0.00 48 1013.0
20260906044523 72 50 0.0 0.0 0.00 0.00 0.00 49 1013.0
20260906044348 72 37 0.0 0.0 0.00 0.00 0.00 48 1013.3
20260906044344 72 50 0.0 0.0 0.00 0.00 0.00 49 1013.0
20260906044316 72 50 0.0 0.0 0.00 0.00 0.00 50 1013.0
20260906044311 72 50 0.0 0.0 0.00 0.00 0.00 50 1014.0
20260906044243 72 37 0.0 0.0 0.00 0.00 0.00 50 1013.3
20260906044233 72 37 0.0 0.0 0.00 0.00 0.00 47 1013.3
20260906044229 72 37 0.0 0.0 0.00 0.00 0.00 49 1013.3
20260906044036 72 37 0.0 0.0 0.00 0.00 0.00 47 1013.3
20260906044032 72 37 0.0 0.0 0.00 0.00 0.00 49 1013.3
20260906043904 72 37 0.0 0.0 0.00 0.00 0.00 48 1013.3
20260906043854 72 37 0.0 0.0 0.00 0.00 0.00 47 1013.3
20260906043807 72 50 0.0 0.0 0.00 0.00 0.00 47 1013.9
20260906043714 72 37 0.0 0.0 0.00 0.00 0.00 47 1013.3
20260906043643 72 37 0.0 0.0 0.00 0.00 0.00 47 1013.3
20260906043613 72 37 0.0 0.0 0.00 0.00 0.00 47 1013.3
20260906043544 72 37 0.0 0.0 0.00 0.00 0.00 47 1013.3
20260906043514 72 37 0.0 0.0 0.00 0.00 0.00 47 1013.3
20260906043448 72 217 0.0 0.0 0.00 0.00 0.00 48 1013.0
20260906043435 72 37 0.0 0.0 0.00 0.00 0.00 47 1013.3
20260906043425 72 37 0.0 0.0 0.00 0.00 0.00 48 1013.3
20260906043303 72 37 0.0 0.0 0.00 0.00 0.00 47 1014.1
20260906043244 72 217 0.0 0.0 0.00 0.00 0.00 47 1013.0
20260906043215 72 217 0.0 0.0 0.00 0.00 0.00 49 1013.0
20260906043129 72 217 0.0 0.0 0.00 0.00 0.00 48 1013.0
20260906042944 72 217 0.0 0.0 0.00 0.00 0.00 48 1013.0
20260906042914 73 217 0.0 0.0 0.00 0.00 0.00 48 1013.0
20260906042814 73 217 0.0 0.0 0.00 0.00 0.00 48 1013.0
20260906042802 73 62 1.0 1.0 0.00 0.00 0.00 48 1014.0
20260906042743 73 217 0.0 0.0 0.00 0.00 0.00 48 1013.0
20260906042713 73 217 0.0 0.0 0.00 0.00 0.00 48 1013.0
20260906042614 73 217 0.0 0.0 0.00 0.00 0.00 48 1013.0
20260906042544 73 217 0.0 0.0 0.00 0.00 0.00 48 1013.0
20260906042514 73 217 0.0 0.0 0.00 0.00 0.00 48 1013.0
20260906042444 73 217 0.0 0.0 0.00 0.00 0.00 48 1013.0
20260906042414 73 217 0.0 0.0 0.00 0.00 0.00 48 1013.0
20260906042343 73 217 0.0 0.0 0.00 0.00 0.00 48 1013.0
20260906042331 73 297 0.0 0.0 0.00 0.00 0.00 48 1012.8
20260906042315 73 217 0.0 0.0 0.00 0.00 0.00 47 1013.0
20260906042301 73 354 0.0 0.0 0.00 0.00 0.00 48 1013.9
20260906042243 73 297 0.0 0.0 0.00 0.00 0.00 48 1012.8
20260906042213 73 297 0.0 0.0 0.00 0.00 0.00 49 1012.8
20260906042126 73 297 0.0 0.0 0.00 0.00 0.00 47 1012.8
20260906042056 73 297 0.0 0.0 0.00 0.00 0.00 47 1012.8
20260906042020 73 297 0.0 0.0 0.00 0.00 0.00 51 1012.8
20260906042013 73 297 0.0 0.0 0.00 0.00 0.00 47 1012.8
20260906042003 73 297 0.0 0.0 0.00 0.00 0.00 47 1012.8
20260906041953 73 297 0.0 0.0 0.00 0.00 0.00 48 1012.8
20260906041815 73 297 0.0 0.0 0.00 0.00 0.00 48 1012.8
20260906041757 73 17 0.0 2.0 0.00 0.00 0.00 49 1014.0
20260906041714 73 297 0.0 0.0 0.00 0.00 0.00 49 1012.8
20260906041654 73 309 0.0 0.0 0.00 0.00 0.00 52 1012.5
20260906041644 73 297 0.0 0.0 0.00 0.00 0.00 48 1012.8
20260906041634 73 297 0.0 0.0 0.00 0.00 0.00 49 1012.8
20260906041624 73 297 0.0 0.0 0.00 0.00 0.00 52 1012.8
20260906041443 73 297 0.0 0.0 0.00 0.00 0.00 51 1012.8
20260906041414 73 297 0.0 0.0 0.00 0.00 0.00 50 1012.8
20260906041343 73 297 0.0 0.0 0.00 0.00 0.00 52 1012.8
20260906041315 73 297 0.0 0.0 0.00 0.00 0.00 52 1012.8
20260906041255 73 309 0.0 0.0 0.00 0.00 0.00 53 1012.5
20260906041252 73 297 0.0 0.0 0.00 0.00 0.00 53 1013.7
20260906041245 73 309 0.0 0.0 0.00 0.00 0.00 52 1012.5
20260906041222 73 309 0.0 0.0 0.00 0.00 0.00 51 1012.5
20260906041211 73 309 0.0 0.0 0.00 0.00 0.00 52 1012.5
20260906041044 73 309 0.0 0.0 0.00 0.00 0.00 51 1012.5
20260906041013 73 309 0.0 0.0 0.00 0.00 0.00 51 1012.5
20260906040944 73 309 0.0 0.0 0.00 0.00 0.00 52 1012.5
20260906040913 73 309 0.0 0.0 0.00 0.00 0.00 50 1012.5
20260906040814 73 309 0.0 0.0 0.00 0.00 0.00 50 1012.5
20260906040752 73 297 0.0 0.0 0.00 0.00 0.00 51 1012.5
20260906040747 73 324 0.0 1.0 0.00 0.00 0.00 50 1013.6
20260906040733 73 309 0.0 0.0 0.00 0.00 0.00 50 1012.5
20260906040725 73 309 0.0 0.0 0.00 0.00 0.00 50 1012.5
20260906040525 73 309 0.0 0.0 0.00 0.00 0.00 52 1012.5
20260906040419 73 297 0.0 0.0 0.00 0.00 0.00 53 1012.5
20260906040415 73 309 0.0 0.0 0.00 0.00 0.00 52 1012.5
20260906040405 73 309 0.0 0.0 0.00 0.00 0.00 52 1012.5
20260906040355 73 309 0.0 0.0 0.00 0.00 0.00 51 1012.5
20260906040242 73 309 0.0 0.0 0.00 0.00 0.00 51 1013.6
20260906040213 73 297 0.0 0.0 0.00 0.00 0.00 52 1012.5
20260906040157 73 297 0.0 0.0 0.00 0.00 0.00 52 1012.5
20260906040115 73 297 0.0 0.0 0.00 0.00 0.00 52 1012.5
20260906040043 73 297 0.0 0.0 0.00 0.00 0.00 52 1012.5
20260906040032 73 297 0.0 0.0 0.00 0.00 0.00 53 1012.5
20260906040013 73 297 0.0 0.0 0.00 0.00 0.00 52 1012.5
20260906040001 73 297 0.0 0.0 0.00 0.00 0.00 54 1012.5
20260906035954 73 297 0.0 0.0 0.00 0.00 0.00 53 1012.5
20260906035814 73 297 0.0 0.0 0.00 0.00 0.00 54 1012.5
20260906035744 73 297 0.0 0.0 0.00 0.00 0.00 53 1012.5
20260906035738 73 50 0.0 0.0 0.00 0.00 0.00 54 1013.5
20260906035719 73 5 0.0 0.0 0.00 0.00 0.00 53 1012.6
20260906035715 73 297 0.0 0.0 0.00 0.00 0.00 55 1012.5
20260906035705 73 297 0.0 0.0 0.00 0.00 0.00 54 1012.5
20260906035655 73 297 0.0 0.0 0.00 0.00 0.00 53 1012.5
20260906035535 73 5 0.0 0.0 0.00 0.00 0.00 53 1012.6
20260906035528 73 297 0.0 0.0 0.00 0.00 0.00 54 1012.5
20260906035346 73 297 0.0 0.0 0.00 0.00 0.00 55 1012.5
20260906035336 73 5 0.0 0.0 0.00 0.00 0.00 53 1012.6
20260906035332 73 297 0.0 0.0 0.00 0.00 0.00 54 1012.5
20260906035229 73 5 0.0 0.0 0.00 0.00 0.00 53 1013.6
20260906035130 73 5 0.0 0.0 0.00 0.00 0.00 53 1012.6
20260906034944 73 5 0.0 0.0 0.00 0.00 0.00 53 1012.6
20260906034917 73 5 0.0 0.0 0.00 0.00 0.00 53 1012.6
20260906034913 73 5 0.0 0.0 0.00 0.00 0.00 54 1012.6
20260906034903 73 5 0.0 0.0 0.00 0.00 0.00 53 1012.6
20260906034853 73 5 0.0 0.0 0.00 0.00 0.00 54 1012.6
20260906034728 73 49 0.0 0.0 0.00 0.00 0.00 53 1013.5
20260906034713 73 5 0.0 0.0 0.00 0.00 0.00 53 1012.6
20260906034655 74 19 0.0 0.0 0.00 0.00 0.00 51 1012.5
20260906034643 73 5 0.0 0.0 0.00 0.00 0.00 53 1012.6
20260906034613 73 5 0.0 0.0 0.00 0.00 0.00 54 1012.6
20260906034545 73 5 0.0 0.0 0.00 0.00 0.00 54 1012.6
20260906034534 74 19 0.0 0.0 0.00 0.00 0.00 54 1012.5
20260906034529 73 5 0.0 0.0 0.00 0.00 0.00 55 1012.6
20260906034402 74 19 0.0 0.0 0.00 0.00 0.00 52 1012.5
20260906034349 73 5 0.0 0.0 0.00 0.00 0.00 52 1012.6
20260906034339 73 5 0.0 0.0 0.00 0.00 0.00 53 1012.6
20260906034328 73 19 0.0 0.0 0.00 0.00 0.00 52 1012.5
20260906034223 74 5 0.0 0.0 0.00 0.00 0.00 53 1013.6
20260906034214 74 19 0.0 0.0 0.00 0.00 0.00 52 1012.5
20260906034202 74 19 0.0 0.0 0.00 0.00 0.00 53 1012.5
20260906034153 74 19 0.0 0.0 0.00 0.00 0.00 52 1012.5
20260906034143 74 19 0.0 0.0 0.00 0.00 0.00 53 1012.5
20260906033844 74 19 0.0 0.0 0.00 0.00 0.00 51 1012.5
20260906033834 74 19 0.0 0.0 0.00 0.00 0.00 50 1012.5
20260906033824 74 19 0.0 0.0 0.00 0.00 0.00 50 1012.5
20260906033718 74 62 0.0 0.0 0.00 0.00 0.00 50 1013.4
20260906033643 74 19 0.0 0.0 0.00 0.00 0.00 50 1012.5
20260906033623 75 348 0.0 0.0 0.00 0.00 0.00 48 1012.4
20260906033614 74 19 0.0 0.0 0.00 0.00 0.00 51 1012.5
20260906033544 74 19 0.0 0.0 0.00 0.00 0.00 51 1012.5
20260906033513 74 19 0.0 0.0 0.00 0.00 0.00 50 1012.5
20260906033443 74 19 0.0 0.0 0.00 0.00 0.00 48 1012.5
20260906033426 75 348 0.0 0.0 0.00 0.00 0.00 47 1012.4
20260906033414 74 19 0.0 0.0 0.00 0.00 0.00 49 1012.5
20260906033356 74 19 0.0 0.0 0.00 0.00 0.00 48 1012.5
20260906033314 75 19 0.0 0.0 0.00 0.00 0.00 49 1012.5
20260906033254 75 348 0.0 0.0 0.00 0.00 0.00 48 1012.4
20260906033213 75 19 0.0 1.0 0.00 0.00 0.00 47 1013.5
20260906033117 75 348 0.0 0.0 0.00 0.00 0.00 48 1012.4
20260906033113 75 348 0.0 0.0 0.00 0.00 0.00 48 1012.4
20260906033103 75 348 0.0 0.0 0.00 0.00 0.00 48 1012.4
20260906033053 75 348 0.0 0.0 0.00 0.00 0.00 47 1012.4
20260906032914 75 348 0.0 0.0 0.00 0.00 0.00 47 1012.4
20260906032844 75 348 0.0 0.0 0.00 0.00 0.00 49 1012.4
20260906032813 75 348 0.0 0.0 0.00 0.00 0.00 48 1012.4
20260906032726 75 117 0.0 0.0 0.00 0.00 0.00 47 1012.1
20260906032715 75 348 0.0 0.0 0.00 0.00 0.00 48 1012.4
20260906032710 75 205 0.0 3.0 0.00 0.00 0.00 48 1013.3
20260906032705 75 348 0.0 0.0 0.00 0.00 0.00 48 1012.4
20260906032655 75 348 0.0 0.0 0.00 0.00 0.00 47 1012.4
20260906032514 75 348 0.0 0.0 0.00 0.00 0.00 48 1012.4
20260906032425 75 117 0.0 0.0 0.00 0.00 0.00 46 1012.1
20260906032415 75 348 0.0 0.0 0.00 0.00 0.00 48 1012.4
20260906032405 75 348 0.0 0.0 0.00 0.00 0.00 48 1012.4
20260906032354 75 348 0.0 2.0 0.00 0.00 0.00 47 1012.4
20260906032219 75 117 0.0 0.0 0.00 0.00 0.00 46 1012.1
20260906032213 75 117 0.0 0.0 0.00 0.00 0.00 46 1012.1
20260906032209 75 322 0.0 1.0 0.00 0.00 0.00 46 1013.5
20260906032144 75 117 0.0 0.0 0.00 0.00 0.00 47 1012.1
20260906032126 75 117 0.0 0.0 0.00 0.00 0.00 46 1012.1
20260906032053 75 117 0.0 0.0 0.00 0.00 0.00 46 1012.1
20260906031914 75 117 0.0 0.0 0.00 0.00 0.00 46 1012.1
20260906031854 75 117 0.0 0.0 0.00 0.00 0.00 46 1012.1
20260906031714 75 117 0.0 0.0 0.00 0.00 0.00 46 1012.1
20260906031705 75 352 0.0 2.0 0.00 0.00 0.00 46 1013.3
20260906031643 75 117 0.0 0.0 0.00 0.00 0.00 46 1012.1
20260906031613 75 117 0.0 0.0 0.00 0.00 0.00 45 1012.1
20260906031549 75 117 0.0 0.0 0.00 0.00 0.00 46 1012.1
20260906031513 75 117 0.0 0.0 0.00 0.00 0.00 46 1012.1
20260906031445 75 117 0.0 0.0 0.00 0.00 0.00 46 1012.1
20260906031413 75 117 0.0 0.0 0.00 0.00 0.00 46 1012.1
20260906031344 76 117 0.0 0.0 0.00 0.00 0.00 46 1012.1
20260906031315 76 117 0.0 0.0 0.00 0.00 0.00 45 1012.1
20260906031244 76 333 1.0 0.0 0.00 0.00 0.00 45 1011.9
20260906031213 76 333 1.0 0.0 0.00 0.00 0.00 45 1011.9
20260906031200 76 257 0.0 2.0 0.00 0.00 0.00 45 1013.1
20260906031116 76 333 1.0 0.0 0.00 0.00 0.00 45 1011.9
20260906031015 76 333 1.0 0.0 0.00 0.00 0.00 45 1011.9
20260906030952 76 333 1.0 0.0 0.00 0.00 0.00 46 1011.9
20260906030913 76 333 1.0 0.0 0.00 0.00 0.00 45 1011.9
20260906030813 76 333 1.0 0.0 0.00 0.00 0.00 45 1011.9
20260906030714 76 333 1.0 0.0 0.00 0.00 0.00 45 1011.9
20260906030700 76 347 2.0 2.0 0.00 0.00 0.00 45 1013.1
20260906030646 76 333 1.0 0.0 0.00 0.00 0.00 45 1011.9
20260906030636 76 333 1.0 0.0 0.00 0.00 0.00 45 1011.9
20260906030444 76 333 1.0 0.0 0.00 0.00 0.00 44 1011.9
20260906030419 76 324 2.0 0.0 0.00 0.00 0.00 45 1012.1
20260906030413 76 333 1.0 0.0 0.00 0.00 0.00 45 1011.9
20260906030343 76 333 1.0 0.0 0.00 0.00 0.00 44 1011.9
20260906030314 76 333 1.0 2.0 0.00 0.00 0.00 45 1011.9
20260906030257 76 324 2.0 0.0 0.00 0.00 0.00 44 1012.1
20260906030229 76 324 2.0 0.0 0.00 0.00 0.00 45 1012.1
20260906030154 76 18 0.0 2.0 0.00 0.00 0.00 45 1013.0
20260906030143 76 324 2.0 0.0 0.00 0.00 0.00 45 1012.1
20260906030120 76 324 2.0 0.0 0.00 0.00 0.00 44 1012.1
20260906030106 76 324 2.0 0.0 0.00 0.00 0.00 45 1012.1
20260906025913 76 324 2.0 0.0 0.00 0.00 0.00 46 1012.1
20260906025814 76 324 2.0 0.0 0.00 0.00 0.00 46 1012.1
20260906025713 76 324 2.0 0.0 0.00 0.00 0.00 46 1012.1
20260906025656 76 324 2.0 0.0 0.00 0.00 0.00 45 1012.1
20260906025653 76 352 0.0 2.0 0.00 0.00 0.00 45 1013.2
20260906025613 76 324 2.0 0.0 0.00 0.00 0.00 45 1012.1
20260906025545 76 324 2.0 0.0 0.00 0.00 0.00 45 1012.1
20260906025513 76 324 2.0 0.0 0.00 0.00 0.00 45 1012.1
20260906025444 76 324 2.0 0.0 0.00 0.00 0.00 46 1012.1
20260906025414 76 324 2.0 0.0 0.00 0.00 0.00 46 1012.1
20260906025350 77 275 0.0 0.0 0.00 0.00 0.00 45 1012.0
20260906025343 76 324 2.0 0.0 0.00 0.00 0.00 45 1012.1
20260906025315 76 324 2.0 2.0 0.00 0.00 0.00 45 1012.1
20260906025244 76 275 0.0 0.0 0.00 0.00 0.00 45 1012.0
20260906025213 76 275 0.0 0.0 0.00 0.00 0.00 45 1012.0
20260906025148 77 57 0.0 2.0 0.00 0.00 0.00 46 1013.0
20260906025113 76 275 0.0 0.0 0.00 0.00 0.00 45 1012.0
20260906025031 77 275 0.0 0.0 0.00 0.00 0.00 45 1012.0
20260906024817 77 275 0.0 0.0 0.00 0.00 0.00 45 1012.0
20260906024720 77 275 0.0 0.0 0.00 0.00 0.00 45 1012.0
20260906024644 77 275 0.0 0.0 0.00 0.00 0.00 44 1012.0
20260906024642 77 6 2.0 2.0 0.00 0.00 0.00 44 1012.7
20260906024626 77 275 0.0 0.0 0.00 0.00 0.00 44 1012.0
20260906024513 77 275 0.0 0.0 0.00 0.00 0.00 44 1012.0
20260906024442 77 275 0.0 0.0 0.00 0.00 0.00 45 1012.0
20260906024413 77 275 0.0 0.0 0.00 0.00 0.00 44 1012.0
20260906024342 77 275 0.0 0.0 0.00 0.00 0.00 44 1012.0
20260906024313 77 275 0.0 0.0 0.00 0.00 0.00 45 1012.0
20260906024211 77 354 0.0 0.0 0.00 0.00 0.00 44 1012.1
20260906024141 77 354 0.0 0.0 0.00 0.00 0.00 45 1012.1
20260906024136 77 315 1.0 2.0 0.00 0.00 0.00 44 1013.1
20260906024107 77 354 0.0 0.0 0.00 0.00 0.00 44 1012.1
20260906024042 77 354 0.0 0.0 0.00 0.00 0.00 44 1012.1
20260906024011 77 354 0.0 0.0 0.00 0.00 0.00 44 1012.1
20260906023942 77 354 0.0 0.0 0.00 0.00 0.00 45 1012.1
20260906023912 77 354 0.0 0.0 0.00 0.00 0.00 44 1012.1
20260906023853 77 354 0.0 0.0 0.00 0.00 0.00 45 1012.1
20260906023633 77 342 1.0 2.0 0.00 0.00 0.00 44 1013.0
20260906023512 77 354 0.0 0.0 0.00 0.00 0.00 45 1012.1
20260906023441 77 354 0.0 0.0 0.00 0.00 0.00 45 1012.1
20260906023410 77 354 0.0 0.0 0.00 0.00 0.00 45 1012.1
20260906023355 78 223 1.0 0.0 0.00 0.00 0.00 44 1012.1
20260906023340 78 354 0.0 0.0 0.00 0.00 0.00 45 1012.1
20260906023310 78 354 0.0 0.0 0.00 0.00 0.00 45 1012.1
20260906023251 78 0.0 0.0 0.00 0.00 0.00 44
20260906023133 78 48 1.0 2.0 0.00 0.00 0.00 44 1013.0
20260906023032 78 223 1.0 0.0 0.00 0.00 0.00 45 1012.1
20260906023013 78 223 1.0 0.0 0.00 0.00 0.00 44 1012.1
20260906022834 78 223 1.0 0.0 0.00 0.00 0.00 44 1012.1
20260906022815 78 223 1.0 0.0 0.00 0.00 0.00 44 1012.1
20260906022806 78 223 1.0 0.0 0.00 0.00 0.00 44 1012.1
20260906022632 78 322 0.0 2.0 0.00 0.00 0.00 44 1012.9
20260906022522 78 223 1.0 0.0 0.00 0.00 0.00 44 1012.1
20260906022436 78 223 1.0 0.0 0.00 0.00 0.00 44 1012.1
20260906022221 78 223 1.0 0.0 0.00 0.00 0.00 44 1012.1
20260906022152 78 223 1.0 1.0 0.00 0.00 0.00 44 1012.1
20260906022132 78 341 0.0 0.0 0.00 0.00 0.00 43 1012.0
20260906022128 78 354 0.0 2.0 0.00 0.00 0.00 43 1012.9
20260906022121 78 341 0.0 0.0 0.00 0.00 0.00 44 1012.0
20260906022042 78 341 0.0 0.0 0.00 0.00 0.00 43 1012.0
20260906021920 78 341 0.0 0.0 0.00 0.00 0.00 43 1012.0
20260906021910 79 341 0.0 0.0 0.00 0.00 0.00 43 1012.0
20260906021822 78 341 0.0 0.0 0.00 0.00 0.00 43 1012.0
20260906021808 79 341 0.0 0.0 0.00 0.00 0.00 43 1012.0
20260906021800 78 341 0.0 0.0 0.00 0.00 0.00 43 1012.0
20260906021624 79 28 1.0 1.0 0.00 0.00 0.00 43 1012.9
20260906021622 78 341 0.0 0.0 0.00 0.00 0.00 43 1012.0
20260906021600 79 12 0.0 0.0 0.00 0.00 0.00 42 1011.9
20260906021554 79 341 0.0 0.0 0.00 0.00 0.00 43 1012.0
20260906021303 79 12 0.0 0.0 0.00 0.00 0.00 42 1011.9
20260906021221 79 341 0.0 0.0 0.00 0.00 0.00 43 1012.0
20260906021151 79 341 0.0 2.0 0.00 0.00 0.00 43 1012.0
20260906021125 79 12 0.0 0.0 0.00 0.00 0.00 42 1011.9
20260906021123 79 302 0.0 4.0 0.00 0.00 0.00 42 1012.9
20260906021111 79 12 0.0 0.0 0.00 0.00 0.00 42 1011.9
20260906021102 79 12 0.0 0.0 0.00 0.00 0.00 43 1011.9
20260906020942 79 12 0.0 0.0 0.00 0.00 0.00 42 1011.9
20260906020936 79 12 0.0 0.0 0.00 0.00 0.00 42 1011.9
20260906020720 79 12 0.0 0.0 0.00 0.00 0.00 42 1011.9
20260906020704 80 12 0.0 0.0 0.00 0.00 0.00 43 1011.9
20260906020623 79 59 1.0 2.0 0.00 0.00 0.00 42 1012.6
20260906020603 79 12 0.0 0.0 0.00 0.00 0.00 42 1011.9
20260906020420 79 12 0.0 0.0 0.00 0.00 0.00 42 1011.9
20260906020403 80 32 2.0 0.0 0.00 0.00 0.00 41 1011.8
20260906020354 79 12 0.0 0.0 0.00 0.00 0.00 41 1011.9
20260906020345 80 12 0.0 0.0 0.00 0.00 0.00 41 1011.9
20260906020335 80 12 0.0 0.0 0.00 0.00 0.00 42 1011.9
20260906020206 80 12 0.0 0.0 0.00 0.00 0.00 41 1011.9
20260906020122 80 32 2.0 0.0 0.00 0.00 0.00 42 1011.8
20260906020118 80 255 0.0 2.0 0.00 0.00 0.00 41 1012.7
20260906020038 80 32 2.0 0.0 0.00 0.00 0.00 41 1011.8
20260906015823 80 32 2.0 0.0 0.00 0.00 0.00 41 1011.8
20260906015751 80 32 2.0 0.0 0.00 0.00 0.00 42 1011.8
20260906015723 80 32 2.0 0.0 0.00 0.00 0.00 41 1011.8
20260906015628 81 32 2.0 2.0 0.00 0.00 0.00 40 1011.8
20260906015622 80 32 2.0 0.0 0.00 0.00 0.00 41 1011.8
20260906015612 80 228 0.0 2.0 0.00 0.00 0.00 41 1012.6
20260906015522 80 32 2.0 0.0 0.00 0.00 0.00 41 1011.8
20260906015421 80 32 2.0 0.0 0.00 0.00 0.00 41 1011.8
20260906015322 80 32 2.0 0.0 0.00 0.00 0.00 40 1011.8
20260906015306 81 32 2.0 0.0 0.00 0.00 0.00 40 1011.8
20260906015129 81 284 0.0 0.0 0.00 0.00 0.00 40 1011.6
20260906015122 81 284 0.0 0.0 0.00 0.00 0.00 40 1011.6
20260906015111 81 231 1.0 2.0 0.00 0.00 0.00 40 1012.7
20260906015024 81 284 0.0 0.0 0.00 0.00 0.00 40 1011.6
20260906015012 81 284 0.0 0.0 0.00 0.00 0.00 40 1011.6
20260906014922 81 284 0.0 0.0 0.00 0.00 0.00 40 1011.6
20260906014903 82 284 0.0 0.0 0.00 0.00 0.00 40 1011.6
20260906014850 81 284 0.0 0.0 0.00 0.00 0.00 41 1011.6
20260906014822 81 284 0.0 0.0 0.00 0.00 0.00 40 1011.6
20260906014812 82 297 0.0 0.0 0.00 0.00 0.00 39 1011.7
20260906014805 81 284 0.0 0.0 0.00 0.00 0.00 40 1011.6
20260906014606 81 317 2.0 3.0 0.00 0.00 0.00 40 1012.6
20260906014323 82 284 0.0 0.0 0.00 0.00 0.00 40 1011.6
20260906014250 82 284 0.0 0.0 0.00 0.00 0.00 40 1011.6
20260906014222 82 284 0.0 0.0 0.00 0.00 0.00 39 1011.6
20260906014152 82 284 0.0 0.0 0.00 0.00 0.00 39 1011.6
20260906014132 82 297 0.0 0.0 0.00 0.00 0.00 38 1011.7
20260906014122 82 297 0.0 0.0 0.00 0.00 0.00 39 1011.7
20260906014102 82 297 0.0 0.0 0.00 0.00 0.00 39 1011.7
20260906013922 82 297 0.0 0.0 0.00 0.00 0.00 39 1011.7
20260906013850 82 297 0.0 0.0 0.00 0.00 0.00 39 1011.7
20260906013822 82 297 0.0 0.0 0.00 0.00 0.00 38 1011.7
20260906013802 82 297 0.0 0.0 0.00 0.00 0.00 39 1011.7
20260906013621 82 297 0.0 0.0 0.00 0.00 0.00 38 1011.7
20260906013557 82 294 1.0 2.0 0.00 0.00 0.00 38 1012.5
20260906013550 82 297 0.0 0.0 0.00 0.00 0.00 38 1011.7
20260906013520 82 297 0.0 0.0 0.00 0.00 0.00 38 1011.7
20260906013451 82 297 0.0 0.0 0.00 0.00 0.00 38 1011.7
20260906013420 83 297 0.0 0.0 0.00 0.00 0.00 38 1011.7
20260906013322 83 297 0.0 0.0 0.00 0.00 0.00 38 1011.7
20260906013251 83 297 0.0 0.0 0.00 0.00 0.00 38 1011.7
20260906013222 83 297 0.0 0.0 0.00 0.00 0.00 37 1011.7
20260906013151 83 297 0.0 1.0 0.00 0.00 0.00 37 1011.7
20260906013122 83 254 1.0 0.0 0.00 0.00 0.00 37 1011.7
20260906013108 83 332 1.0 0.0 0.00 0.00 0.00 36 1012.0
20260906013053 83 327 0.0 2.0 0.00 0.00 0.00 38 1012.7
20260906013027 83 254 1.0 0.0 0.00 0.00 0.00 37 1011.7
20260906012941 83 254 1.0 0.0 0.00 0.00 0.00 37 1011.7
20260906012924 83 254 1.0 0.0 0.00 0.00 0.00 37 1011.7
20260906012822 83 254 1.0 0.0 0.00 0.00 0.00 37 1011.7
20260906012810 83 254 1.0 0.0 0.00 0.00 0.00 37 1011.7
20260906012749 83 254 1.0 0.0 0.00 0.00 0.00 37 1011.7
20260906012741 83 254 1.0 0.0 0.00 0.00 0.00 37 1011.7
20260906012624 83 254 1.0 0.0 0.00 0.00 0.00 37 1011.7
20260906012614 84 332 1.0 0.0 0.00 0.00 0.00 37 1012.0
20260906012603 83 254 1.0 0.0 0.00 0.00 0.00 37 1011.7
20260906012548 83 273 2.0 3.0 0.00 0.00 0.00 37 1012.7
20260906012443 84 332 1.0 0.0 0.00 0.00 0.00 36 1012.0
20260906012436 83 254 1.0 0.0 0.00 0.00 0.00 37 1011.7
20260906012306 83 254 1.0 0.0 0.00 0.00 0.00 37 1011.7
20260906012258 83 254 1.0 0.0 0.00 0.00 0.00 37 1011.7
20260906012248 83 254 1.0 1.0 0.00 0.00 0.00 36 1011.7
20260906012047 84 288 2.0 3.0 0.00 0.00 0.00 36 1012.5
20260906012008 84 332 1.0 0.0 0.00 0.00 0.00 36 1012.0
20260906012000 84 332 1.0 0.0 0.00 0.00 0.00 36 1012.0
20260906011822 84 332 1.0 0.0 0.00 0.00 0.00 36 1012.0
20260906011750 84 332 1.0 0.0 0.00 0.00 0.00 36 1012.0
20260906011720 84 332 1.0 0.0 0.00 0.00 0.00 36 1012.0
20260906011705 84 332 1.0 0.0 0.00 0.00 0.00 36 1012.0
20260906011631 84 262 1.0 0.0 0.00 0.00 0.00 36 1011.9
20260906011621 84 332 1.0 0.0 0.00 0.00 0.00 36 1012.0
20260906011601 84 332 1.0 0.0 0.00 0.00 0.00 36 1012.0
20260906011544 84 351 1.0 3.0 0.00 0.00 0.00 36 1012.7
20260906011422 84 332 1.0 0.0 0.00 0.00 0.00 36 1012.0
20260906011410 84 262 1.0 0.0 0.00 0.00 0.00 36 1011.9
20260906011403 84 262 1.0 0.0 0.00 0.00 0.00 37 1011.9
20260906011353 84 332 1.0 0.0 0.00 0.00 0.00 36 1012.0
20260906011216 84 332 1.0 0.0 0.00 0.00 0.00 36 1012.0
20260906011205 85 332 1.0 2.0 0.00 0.00 0.00 36 1012.0
20260906011141 85 262 1.0 0.0 0.00 0.00 0.00 36 1011.9
20260906011043 85 311 0.0 2.0 0.00 0.00 0.00 36 1012.7
20260906011023 85 262 1.0 0.0 0.00 0.00 0.00 36 1011.9
20260906010958 85 262 1.0 0.0 0.00 0.00 0.00 36 1011.9
20260906010950 85 262 1.0 0.0 0.00 0.00 0.00 36 1011.9
20260906010940 85 262 1.0 0.0 0.00 0.00 0.00 37 1011.9
20260906010710 84 262 1.0 0.0 0.00 0.00 0.00 37 1011.9
20260906010700 84 262 1.0 0.0 0.00 0.00 0.00 36 1011.9
20260906010538 84 101 1.0 2.0 0.00 0.00 0.00 36 1012.7
20260906010522 84 262 1.0 0.0 0.00 0.00 0.00 36 1011.9
20260906010420 84 262 1.0 0.0 0.00 0.00 0.00 36 1011.9
20260906010350 84 262 1.0 0.0 0.00 0.00 0.00 37 1011.9
20260906010322 84 262 1.0 0.0 0.00 0.00 0.00 36 1011.9
20260906010305 84 262 1.0 0.0 0.00 0.00 0.00 36 1011.9
20260906010231 85 249 1.0 0.0 0.00 0.00 0.00 35 1011.8
20260906010221 84 262 1.0 0.0 0.00 0.00 0.00 36 1011.9
20260906010151 84 262 1.0 0.0 0.00 0.00 0.00 36 1011.9
20260906010135 85 262 1.0 3.0 0.00 0.00 0.00 35 1011.9
20260906010034 85 252 2.0 4.0 0.00 0.00 0.00 36 1012.7
20260906010023 85 249 1.0 0.0 0.00 0.00 0.00 36 1011.8
20260906010007 85 249 1.0 0.0 0.00 0.00 0.00 35 1011.8
20260906005921 85 249 1.0 0.0 0.00 0.00 0.00 35 1011.8
20260906005907 85 249 1.0 0.0 0.00 0.00 0.00 36 1011.8
20260906005901 85 249 1.0 0.0 0.00 0.00 0.00 35 1011.8
20260906005724 85 249 1.0 0.0 0.00 0.00 0.00 35 1011.8
20260906005712 85 249 1.0 0.0 0.00 0.00 0.00 35 1011.8
20260906005705 85 355 0.0 0.0 0.00 0.00 0.00 36 1011.8
20260906005656 85 249 1.0 0.0 0.00 0.00 0.00 35 1011.8
20260906005644 85 249 1.0 0.0 0.00 0.00 0.00 35 1011.8
20260906005533 85 333 2.0 3.0 0.00 0.00 0.00 35 1012.6
20260906005400 87 117 0.0 0.0 0.00 0.00 0.00 35 1011.5
20260906005350 85 249 1.0 0.0 0.00 0.00 0.00 36 1011.8
20260906005333 86 355 0.0 0.0 0.00 0.00 0.00 35 1011.8
20260906005329 85 249 1.0 0.0 0.00 0.00 0.00 35 1011.8
20260906005317 85 249 1.0 0.0 0.00 0.00 0.00 35 1011.8
20260906005157 85 249 1.0 2.0 0.00 0.00 0.00 35 1011.8
20260906005146 85 355 0.0 0.0 0.00 0.00 0.00 35 1011.8
20260906005032 86 296 0.0 3.0 0.00 0.00 0.00 36 1012.6
20260906004950 85 355 0.0 0.0 0.00 0.00 0.00 36 1011.8
20260906004922 85 355 0.0 0.0 0.00 0.00 0.00 35 1011.8
20260906004902 86 355 0.0 0.0 0.00 0.00 0.00 35 1011.8
20260906004852 86 355 0.0 0.0 0.00 0.00 0.00 35 1011.8
20260906004842 86 355 0.0 0.0 0.00 0.00 0.00 35 1011.8
20260906004832 86 355 0.0 0.0 0.00 0.00 0.00 35 1011.8
20260906004822 86 355 0.0 0.0 0.00 0.00 0.00 36 1011.8
20260906004811 86 355 0.0 0.0 0.00 0.00 0.00 36 1011.8
20260906004801 86 355 0.0 0.0 0.00 0.00 0.00 35 1011.8
20260906004532 86 255 1.0 2.0 0.00 0.00 0.00 35 1012.6
20260906004523 86 355 0.0 0.0 0.00 0.00 0.00 35 1011.8
20260906004511 86 355 0.0 0.0 0.00 0.00 0.00 35 1011.8
20260906004501 86 355 0.0 0.0 0.00 0.00 0.00 36 1011.8
20260906004341 87 117 0.0 0.0 0.00 0.00 0.00 35 1011.5
20260906004337 86 355 0.0 0.0 0.00 0.00 0.00 35 1011.8
20260906004213 86 355 0.0 0.0 0.00 0.00 0.00 35 1011.8
20260906004202 86 355 0.0 2.0 0.00 0.00 0.00 35 1011.8
20260906004027 87 355 2.0 2.0 0.00 0.00 0.00 35 1012.5
20260906003951 87 117 0.0 0.0 0.00 0.00 0.00 35 1011.5
20260906003920 87 117 0.0 0.0 0.00 0.00 0.00 35 1011.5
20260906003856 87 117 0.0 0.0 0.00 0.00 0.00 34 1011.5
20260906003822 87 117 0.0 0.0 0.00 0.00 0.00 35 1011.5
20260906003753 87 117 0.0 0.0 0.00 0.00 0.00 34 1011.5
20260906003743 87 117 0.0 0.0 0.00 0.00 0.00 34 1011.5
20260906003734 87 117 0.0 0.0 0.00 0.00 0.00 35 1011.5
20260906003537 87 117 0.0 0.0 0.00 0.00 0.00 34 1011.5
20260906003522 87 263 2.0 3.0 0.00 0.00 0.00 34 1012.3
20260906003400 87 117 0.0 0.0 0.00 0.00 0.00 34 1011.5
20260906003222 87 117 0.0 0.0 0.00 0.00 0.00 34 1011.5
20260906003159 88 246 0.0 0.0 0.00 0.00 0.00 32 1011.6
20260906003150 87 117 0.0 0.0 0.00 0.00 0.00 34 1011.5
20260906003122 87 117 0.0 0.0 0.00 0.00 0.00 34 1011.5
20260906003050 87 246 0.0 0.0 0.00 0.00 0.00 33 1011.6
20260906003024 87 246 0.0 0.0 0.00 0.00 0.00 32 1011.6
20260906003018 87 246 0.0 2.0 0.00 0.00 0.00 34 1012.5
20260906002950 87 246 0.0 0.0 0.00 0.00 0.00 33 1011.6
20260906002923 87 246 0.0 0.0 0.00 0.00 0.00 32 1011.6
20260906002841 87 246 0.0 0.0 0.00 0.00 0.00 34 1011.6
20260906002831 87 246 0.0 0.0 0.00 0.00 0.00 33 1011.6
20260906002650 88 246 0.0 0.0 0.00 0.00 0.00 34 1011.6
20260906002620 88 246 0.0 0.0 0.00 0.00 0.00 33 1011.6
20260906002551 88 246 0.0 0.0 0.00 0.00 0.00 33 1011.6
20260906002521 88 246 0.0 0.0 0.00 0.00 0.00 32 1011.6
20260906002513 88 91 1.0 1.0 0.00 0.00 0.00 32 1012.5
20260906002450 88 246 0.0 0.0 0.00 0.00 0.00 32 1011.6
20260906002427 88 233 0.0 0.0 0.00 0.00 0.00 24 1011.7
20260906002422 88 246 0.0 0.0 0.00 0.00 0.00 27 1011.6
20260906002320 88 246 0.0 0.0 0.00 0.00 0.00 24 1011.6
20260906002221 88 246 0.0 0.0 0.00 0.00 0.00 24 1011.6
20260906002151 88 246 0.0 0.0 0.00 0.00 0.00 24 1011.6
20260906002122 88 246 0.0 3.0 0.00 0.00 0.00 24 1011.6
20260906002102 88 233 0.0 0.0 0.00 0.00 0.00 24 1011.7
20260906002008 88 222 1.0 3.0 0.00 0.00 0.00 24 1012.5
20260906001924 88 233 0.0 0.0 0.00 0.00 0.00 24 1011.7
20260906001822 88 233 0.0 0.0 0.00 0.00 0.00 24 1011.7
20260906001751 88 233 0.0 0.0 0.00 0.00 0.00 24 1011.7
20260906001721 88 233 0.0 0.0 0.00 0.00 0.00 23 1011.7
20260906001652 88 233 0.0 0.0 0.00 0.00 0.00 24 1011.7
20260906001621 88 233 0.0 0.0 0.00 0.00 0.00 23 1011.7
20260906001522 89 233 0.0 0.0 0.00 0.00 0.00 24 1011.7
20260906001503 89 219 3.0 6.0 0.00 0.00 0.00 24 1012.5
20260906001422 89 233 0.0 0.0 0.00 0.00 0.00 24 1011.7
20260906001321 89 233 0.0 0.0 0.00 0.00 0.00 24 1011.7
20260906001250 90 233 0.0 0.0 0.00 0.00 0.00 23 1011.7
20260906001234 90 233 0.0 0.0 0.00 0.00 0.00 24 1011.7
20260906001203 91 205 2.0 0.0 0.00 0.00 0.00 23 1011.6
20260906001151 90 233 0.0 0.0 0.00 0.00 0.00 24 1011.7
20260906001122 90 233 0.0 2.0 0.00 0.00 0.00 24 1011.7
20260906001026 90 205 2.0 0.0 0.00 0.00 0.00 24 1011.6
20260906001003 91 205 2.0 0.0 0.00 0.00 0.00 23 1011.6
20260906000952 90 220 2.0 5.0 0.00 0.00 0.00 23 1012.4
20260906000920 90 205 2.0 0.0 0.00 0.00 0.00 23 1011.6
20260906000904 91 205 2.0 0.0 0.00 0.00 0.00 24 1011.6
20260906000840 90 205 2.0 0.0 0.00 0.00 0.00 23 1011.6
20260906000836 91 205 2.0 0.0 0.00 0.00 0.00 23 1011.6
20260906000640 90 207 5.0 0.0 0.00 0.00 0.00 23 1011.7
20260906000635 91 205 2.0 0.0 0.00 0.00 0.00 23 1011.6
20260906000505 90 205 2.0 0.0 0.00 0.00 0.00 24 1011.6
20260906000448 90 264 0.0 8.0 0.00 0.00 0.00 24 1012.4
20260906000440 90 205 2.0 0.0 0.00 0.00 0.00 23 1011.6
20260906000220 90 205 2.0 0.0 0.00 0.00 0.00 23 1011.6
20260906000154 90 205 2.0 0.0 0.00 0.00 0.00 23 1011.6
20260906000144 90 205 2.0 3.0 0.00 0.00 0.00 23 1011.6
20260905235959 89 207 5.0 0.0 0.00 0.00 0.00 24 1011.7
20260905235948 90 221 0.0 4.0 0.00 0.00 0.00 23 1012.6
20260905235922 90 207 5.0 0.0 0.00 0.00 0.00 23 1011.7
20260905235850 90 207 5.0 0.0 0.00 0.00 0.00 23 1011.7
20260905235835 90 207 5.0 0.0 0.00 0.00 0.00 24 1011.7
20260905235822 89 207 5.0 0.0 0.00 0.00 0.00 24 1011.7
20260905235724 89 207 5.0 0.0 0.00 0.00 0.00 24 1011.7
20260905235651 90 226 4.0 0.0 0.00 0.00 0.00 23 1011.6
20260905235641 89 207 5.0 0.0 0.00 0.00 0.00 24 1011.7
20260905235632 89 207 5.0 0.0 0.00 0.00 0.00 23 1011.7
20260905235511 89 207 5.0 0.0 0.00 0.00 0.00 24 1011.7
20260905235501 90 207 5.0 0.0 0.00 0.00 0.00 23 1011.7
20260905235442 90 220 3.0 9.0 0.00 0.00 0.00 24 1012.4
20260905235321 90 207 5.0 0.0 0.00 0.00 0.00 24 1011.7
20260905235222 90 207 5.0 0.0 0.00 0.00 0.00 23 1011.7
20260905235150 90 207 5.0 0.0 0.00 0.00 0.00 23 1011.7
20260905235123 91 207 5.0 5.0 0.00 0.00 0.00 23 1011.7
20260905235035 90 226 4.0 0.0 0.00 0.00 0.00 23 1011.6
20260905234937 90 196 1.0 8.0 0.00 0.00 0.00 23 1012.6
20260905234850 90 226 4.0 0.0 0.00 0.00 0.00 23 1011.6
20260905234822 90 226 4.0 0.0 0.00 0.00 0.00 24 1011.6
20260905234753 90 226 4.0 0.0 0.00 0.00 0.00 24 1011.6
20260905234732 90 226 4.0 0.0 0.00 0.00 0.00 24 1011.6
20260905234721 90 226 4.0 0.0 0.00 0.00 0.00 24 1011.6
20260905234650 90 226 4.0 0.0 0.00 0.00 0.00 24 1011.6
20260905234620 90 226 4.0 0.0 0.00 0.00 0.00 24 1011.6
20260905234553 90 226 4.0 0.0 0.00 0.00 0.00 23 1011.6
20260905234521 90 226 4.0 0.0 0.00 0.00 0.00 23 1011.6
20260905234432 90 210 3.0 6.0 0.00 0.00 0.00 23 1012.5
20260905234423 90 226 4.0 0.0 0.00 0.00 0.00 23 1011.6
20260905234401 90 226 4.0 0.0 0.00 0.00 0.00 23 1011.6
20260905234222 90 226 4.0 0.0 0.00 0.00 0.00 24 1011.6
20260905234150 90 226 4.0 0.0 0.00 0.00 0.00 23 1011.6
20260905234123 90 226 4.0 4.0 0.00 0.00 0.00 23 1011.6
20260905234110 91 192 3.0 0.0 0.00 0.00 0.00 23 1011.7
20260905234026 90 192 3.0 0.0 0.00 0.00 0.00 23 1011.7
20260905233951 90 192 3.0 0.0 0.00 0.00 0.00 23 1011.7
20260905233927 91 105 3.0 6.0 0.00 0.00 0.00 23 1012.4
20260905233921 91 192 3.0 0.0 0.00 0.00 0.00 23 1011.7
20260905233820 91 192 3.0 0.0 0.00 0.00 0.00 23 1011.7
20260905233737 91 192 3.0 0.0 0.00 0.00 0.00 23 1011.7
20260905233558 90 219 4.0 0.0 0.00 0.00 0.00 24 1011.6
20260905233522 91 192 3.0 0.0 0.00 0.00 0.00 23 1011.7
20260905233427 90 219 4.0 0.0 0.00 0.00 0.00 24 1011.6
20260905233422 90 215 0.0 4.0 0.00 0.00 0.00 24 1012.5
20260905233420 90 192 3.0 0.0 0.00 0.00 0.00 23 1011.7
20260905233352 90 192 3.0 0.0 0.00 0.00 0.00 24 1011.7
20260905233321 90 192 3.0 0.0 0.00 0.00 0.00 24 1011.7
20260905233252 89 192 3.0 0.0 0.00 0.00 0.00 24 1011.7
20260905233236 90 192 3.0 0.0 0.00 0.00 0.00 24 1011.7
20260905233226 90 192 3.0 0.0 0.00 0.00 0.00 23 1011.7
20260905233216 90 192 3.0 4.0 0.00 0.00 0.00 24 1011.7
20260905232921 89 198 5.0 10.0 0.00 0.00 0.00 24 1012.5
20260905232859 89 219 4.0 0.0 0.00 0.00 0.00 24 1011.6
20260905232850 89 219 4.0 0.0 0.00 0.00 0.00 24 1011.6
20260905232820 89 219 4.0 0.0 0.00 0.00 0.00 24 1011.6
20260905232722 89 219 4.0 0.0 0.00 0.00 0.00 24 1011.6
20260905232656 90 219 4.0 0.0 0.00 0.00 0.00 23 1011.6
20260905232622 89 219 4.0 0.0 0.00 0.00 0.00 24 1011.6
20260905232551 90 219 4.0 0.0 0.00 0.00 0.00 24 1011.6
20260905232537 89 219 4.0 0.0 0.00 0.00 0.00 24 1011.6
20260905232418 89 212 5.0 10.0 0.00 0.00 0.00 24 1012.4
20260905232340 89 219 4.0 0.0 0.00 0.00 0.00 24 1011.6
20260905232330 89 219 4.0 0.0 0.00 0.00 0.00 24 1011.6
20260905232151 90 219 4.0 0.0 0.00 0.00 0.00 24 1011.6
20260905232122 90 219 4.0 5.0 0.00 0.00 0.00 24 1011.6
20260905232051 91 237 4.0 0.0 0.00 0.00 0.00 23 1011.8
20260905232022 91 237 4.0 0.0 0.00 0.00 0.00 24 1011.8
20260905231921 91 237 4.0 0.0 0.00 0.00 0.00 24 1011.8
20260905231912 91 213 4.0 9.0 0.00 0.00 0.00 24 1012.5
20260905231850 91 237 4.0 0.0 0.00 0.00 0.00 24 1011.8
20260905231820 92 237 4.0 0.0 0.00 0.00 0.00 23 1011.8
20260905231722 92 237 4.0 0.0 0.00 0.00 0.00 23 1011.8
20260905231623 92 237 4.0 0.0 0.00 0.00 0.00 23 1011.8
20260905231523 92 237 4.0 0.0 0.00 0.00 0.00 23 1011.8
20260905231422 91 237 4.0 0.0 0.00 0.00 0.00 23 1011.8
20260905231408 91 121 1.0 4.0 0.00 0.00 0.00 23 1012.6
20260905231323 91 237 4.0 0.0 0.00 0.00 0.00 23 1011.8
20260905231250 91 237 4.0 0.0 0.00 0.00 0.00 23 1011.8
20260905231222 90 237 4.0 0.0 0.00 0.00 0.00 23 1011.8
20260905231152 90 237 4.0 0.0 0.00 0.00 0.00 23 1011.8
20260905231123 90 237 4.0 6.0 0.00 0.00 0.00 23 1011.8
20260905231051 90 220 3.0 0.0 0.00 0.00 0.00 23 1011.8
20260905231023 91 220 3.0 0.0 0.00 0.00 0.00 23 1011.8
20260905230920 91 220 3.0 0.0 0.00 0.00 0.00 23 1011.8
20260905230905 91 225 2.0 6.0 0.00 0.00 0.00 23 1012.6
20260905230822 91 220 3.0 0.0 0.00 0.00 0.00 22 1011.8
20260905230812 90 220 3.0 0.0 0.00 0.00 0.00 22 1011.8
20260905230720 91 220 3.0 0.0 0.00 0.00 0.00 22 1011.8
20260905230633 91 220 3.0 0.0 0.00 0.00 0.00 22 1011.8
20260905230523 91 220 3.0 0.0 0.00 0.00 0.00 22 1011.8
20260905230450 91 220 3.0 0.0 0.00 0.00 0.00 22 1011.8
20260905230440 91 220 3.0 0.0 0.00 0.00 0.00 23 1011.8
20260905230430 91 220 3.0 0.0 0.00 0.00 0.00 22 1011.8
20260905230402 91 126 2.0 3.0 0.00 0.00 0.00 22 1012.5
20260905230251 90 220 3.0 0.0 0.00 0.00 0.00 22 1011.8
20260905230221 90 220 3.0 0.0 0.00 0.00 0.00 23 1011.8
20260905230150 90 220 3.0 0.0 0.00 0.00 0.00 22 1011.8
20260905230123 90 220 3.0 3.0 0.00 0.00 0.00 22 1011.8
20260905230104 90 216 4.0 0.0 0.00 0.00 0.00 23 1011.9
20260905230030 90 216 4.0 0.0 0.00 0.00 0.00 22 1011.9
20260905225950 90 216 4.0 0.0 0.00 0.00 0.00 23 1011.9
20260905225921 90 216 4.0 0.0 0.00 0.00 0.00 22 1011.9
20260905225901 91 213 6.0 6.0 0.00 0.00 0.00 22 1012.7
20260905225831 90 216 4.0 0.0 0.00 0.00 0.00 23 1011.9
20260905225822 91 216 4.0 0.0 0.00 0.00 0.00 22 1011.9
20260905225723 90 216 4.0 0.0 0.00 0.00 0.00 22 1011.9
20260905225704 90 216 4.0 0.0 0.00 0.00 0.00 23 1011.9
20260905225621 90 216 4.0 0.0 0.00 0.00 0.00 22 1011.9
20260905225522 90 216 4.0 0.0 0.00 0.00 0.00 22 1011.9
20260905225511 90 216 4.0 0.0 0.00 0.00 0.00 23 1011.9
20260905225501 90 216 4.0 0.0 0.00 0.00 0.00 22 1011.9
20260905225356 90 152 2.0 11.0 0.00 0.00 0.00 23 1012.6
20260905225335 90 216 4.0 0.0 0.00 0.00 0.00 23 1011.9
20260905225150 90 216 4.0 0.0 0.00 0.00 0.00 23 1011.9
20260905225123 90 216 4.0 4.0 0.00 0.00 0.00 23 1011.9
20260905225023 90 139 2.0 0.0 0.00 0.00 0.00 23 1012.0
20260905224950 90 139 2.0 0.0 0.00 0.00 0.00 23 1012.0
20260905224937 91 139 2.0 0.0 0.00 0.00 0.00 22 1012.0
20260905224922 90 139 2.0 0.0 0.00 0.00 0.00 22 1012.0
20260905224852 90 203 7.0 9.0 0.00 0.00 0.00 23 1012.7
20260905224842 91 139 2.0 0.0 0.00 0.00 0.00 23 1012.0
20260905224822 90 139 2.0 0.0 0.00 0.00 0.00 23 1012.0
20260905224721 90 139 2.0 0.0 0.00 0.00 0.00 23 1012.0
20260905224643 90 198 0.0 0.0 0.00 0.00 0.00 24 1011.9
20260905224638 90 139 2.0 0.0 0.00 0.00 0.00 23 1012.0
20260905224623 91 139 2.0 0.0 0.00 0.00 0.00 22 1012.0
20260905224610 91 139 2.0 0.0 0.00 0.00 0.00 23 1012.0
20260905224347 90 36 0.0 2.0 0.00 0.00 0.00 25 1012.5
20260905224321 90 139 2.0 0.0 0.00 0.00 0.00 24 1012.0
20260905224250 90 139 2.0 0.0 0.00 0.00 0.00 24 1012.0
20260905224222 90 139 2.0 0.0 0.00 0.00 0.00 23 1012.0
20260905224211 90 139 2.0 0.0 0.00 0.00 0.00 23 1012.0
20260905224201 90 139 2.0 2.0 0.00 0.00 0.00 23 1012.0
20260905224022 90 198 0.0 0.0 0.00 0.00 0.00 23 1011.9
20260905223950 90 198 0.0 0.0 0.00 0.00 0.00 23 1011.9
20260905223920 90 198 0.0 0.0 0.00 0.00 0.00 23 1011.9
20260905223850 90 198 0.0 0.0 0.00 0.00 0.00 23 1011.9
20260905223842 91 172 3.0 8.0 0.00 0.00 0.00 23 1012.6
20260905223821 91 198 0.0 0.0 0.00 0.00 0.00 23 1011.9
20260905223723 91 198 0.0 0.0 0.00 0.00 0.00 23 1011.9
20260905223640 91 198 0.0 0.0 0.00 0.00 0.00 23 1011.9
20260905223621 92 198 0.0 0.0 0.00 0.00 0.00 23 1011.9
20260905223552 92 198 0.0 0.0 0.00 0.00 0.00 23 1011.9
20260905223522 92 198 0.0 0.0 0.00 0.00 0.00 23 1011.9
20260905223422 92 198 0.0 0.0 0.00 0.00 0.00 23 1011.9
20260905223339 91 221 4.0 4.0 0.00 0.00 0.00 23 1013.0
20260905223321 91 198 0.0 0.0 0.00 0.00 0.00 23 1011.9
20260905223300 91 198 0.0 0.0 0.00 0.00 0.00 23 1011.9
20260905223123 91 198 0.0 2.0 0.00 0.00 0.00 23 1011.9
20260905223022 91 235 0.0 0.0 0.00 0.00 0.00 23 1012.2
20260905222922 91 235 0.0 0.0 0.00 0.00 0.00 24 1012.2
20260905222834 90 219 4.0 4.0 0.00 0.00 0.00 24 1013.1
20260905222823 91 235 0.0 0.0 0.00 0.00 0.00 24 1012.2
20260905222750 90 235 0.0 0.0 0.00 0.00 0.00 24 1012.2
20260905222723 91 235 0.0 0.0 0.00 0.00 0.00 24 1012.2
20260905222700 90 235 0.0 0.0 0.00 0.00 0.00 24 1012.2
20260905222651 91 235 0.0 0.0 0.00 0.00 0.00 24 1012.2
20260905222621 90 235 0.0 0.0 0.00 0.00 0.00 24 1012.2
20260905222522 90 235 0.0 0.0 0.00 0.00 0.00 24 1012.2
20260905222432 89 178 1.0 0.0 0.00 0.00 0.00 24 1012.2
20260905222421 91 235 0.0 0.0 0.00 0.00 0.00 24 1012.2
20260905222336 90 235 0.0 0.0 0.00 0.00 0.00 24 1012.2
20260905222333 90 229 4.0 4.0 0.00 0.00 0.00 24 1013.0
20260905222150 90 235 0.0 0.0 0.00 0.00 0.00 24 1012.2
20260905222122 90 235 0.0 0.0 0.00 0.00 0.00 24 1012.2
20260905222111 90 178 1.0 0.0 0.00 0.00 0.00 24 1012.2
20260905222101 89 178 1.0 0.0 0.00 0.00 0.00 24 1012.2
20260905221921 89 178 1.0 0.0 0.00 0.00 0.00 24 1012.2
20260905221852 89 178 1.0 0.0 0.00 0.00 0.00 24 1012.2
20260905221829 89 197 3.0 10.0 0.00 0.00 0.00 24 1013.1
20260905221821 89 178 1.0 0.0 0.00 0.00 0.00 24 1012.2
20260905221722 89 178 1.0 0.0 0.00 0.00 0.00 24 1012.2
20260905221620 89 178 1.0 0.0 0.00 0.00 0.00 24 1012.2
20260905221522 89 178 1.0 0.0 0.00 0.00 0.00 24 1012.2
20260905221451 89 178 1.0 0.0 0.00 0.00 0.00 24 1012.2
20260905221420 90 178 1.0 0.0 0.00 0.00 0.00 24 1012.2
20260905221350 90 178 1.0 0.0 0.00 0.00 0.00 24 1012.2
20260905221326 90 51 1.0 8.0 0.00 0.00 0.00 25 1013.0
20260905221320 90 178 1.0 0.0 0.00 0.00 0.00 24 1012.2
20260905221300 89 84 2.0 0.0 0.00 0.00 0.00 25 1012.1
20260905221250 90 178 1.0 0.0 0.00 0.00 0.00 25 1012.2
20260905221222 89 178 1.0 0.0 0.00 0.00 0.00 25 1012.2
20260905221150 89 178 1.0 0.0 0.00 0.00 0.00 25 1012.2
20260905221122 89 178 1.0 2.0 0.00 0.00 0.00 25 1012.2
20260905221050 89 84 2.0 0.0 0.00 0.00 0.00 26 1012.1
20260905221027 89 84 2.0 0.0 0.00 0.00 0.00 25 1012.1
20260905220940 89 84 2.0 0.0 0.00 0.00 0.00 25 1012.1
20260905220930 88 84 2.0 0.0 0.00 0.00 0.00 25 1012.1
20260905220821 89 219 11.0 11.0 0.00 0.00 0.00 25 1013.1
20260905220753 89 84 2.0 0.0 0.00 0.00 0.00 24 1012.1
20260905220722 89 84 2.0 0.0 0.00 0.00 0.00 25 1012.1
20260905220628 90 84 2.0 0.0 0.00 0.00 0.00 25 1012.1
20260905220623 89 84 2.0 0.0 0.00 0.00 0.00 25 1012.1
20260905220522 89 84 2.0 0.0 0.00 0.00 0.00 25 1012.1
20260905220421 90 84 2.0 0.0 0.00 0.00 0.00 24 1012.1
20260905220329 89 180 3.0 0.0 0.00 0.00 0.00 25 1012.4
20260905220324 90 84 2.0 0.0 0.00 0.00 0.00 24 1012.1
20260905220318 91 169 6.0 9.0 0.00 0.00 0.00 24 1013.0
20260905220311 91 84 2.0 0.0 0.00 0.00 0.00 24 1012.1
20260905220301 90 84 2.0 0.0 0.00 0.00 0.00 25 1012.1
20260905220123 90 84 2.0 4.0 0.00 0.00 0.00 26 1012.1
20260905220104 90 180 3.0 0.0 0.00 0.00 0.00 25 1012.4
20260905220023 89 180 3.0 0.0 0.00 0.00 0.00 25 1012.4
20260905215957 89 180 3.0 0.0 0.00 0.00 0.00 26 1012.4
20260905215936 89 180 3.0 0.0 0.00 0.00 0.00 26 1012.4
20260905215816 89 192 3.0 12.0 0.00 0.00 0.00 26 1013.2
20260905215805 90 180 3.0 0.0 0.00 0.00 0.00 26 1012.4
20260905215721 89 180 3.0 0.0 0.00 0.00 0.00 26 1012.4
20260905215637 89 180 3.0 0.0 0.00 0.00 0.00 26 1012.4
20260905215437 90 180 3.0 0.0 0.00 0.00 0.00 25 1012.4
20260905215313 89 121 1.0 6.0 0.00 0.00 0.00 26 1013.2
20260905215251 89 180 3.0 0.0 0.00 0.00 0.00 27 1012.4
20260905215225 89 180 3.0 0.0 0.00 0.00 0.00 26 1012.4
20260905215151 89 180 3.0 0.0 0.00 0.00 0.00 26 1012.4
20260905215123 89 180 3.0 3.0 0.00 0.00 0.00 26 1012.4
20260905215051 89 204 3.0 0.0 0.00 0.00 0.00 26 1012.5
20260905215025 90 204 3.0 0.0 0.00 0.00 0.00 26 1012.5
20260905214921 90 204 3.0 0.0 0.00 0.00 0.00 25 1012.5
20260905214821 90 204 3.0 0.0 0.00 0.00 0.00 25 1012.5
20260905214809 90 139 6.0 8.0 0.00 0.00 0.00 26 1013.2
20260905214722 90 204 3.0 0.0 0.00 0.00 0.00 26 1012.5
20260905214621 90 204 3.0 0.0 0.00 0.00 0.00 26 1012.5
20260905214550 89 204 3.0 0.0 0.00 0.00 0.00 25 1012.5
20260905214522 90 204 3.0 0.0 0.00 0.00 0.00 25 1012.5
20260905214450 90 204 3.0 0.0 0.00 0.00 0.00 25 1012.5
20260905214422 89 204 3.0 0.0 0.00 0.00 0.00 26 1012.5
20260905214322 89 204 3.0 0.0 0.00 0.00 0.00 26 1012.5
20260905214304 90 137 6.0 7.0 0.00 0.00 0.00 25 1013.3
20260905214222 89 204 3.0 0.0 0.00 0.00 0.00 26 1012.5
20260905214200 89 199 2.0 0.0 0.00 0.00 0.00 27 1012.5
20260905214151 90 204 3.0 0.0 0.00 0.00 0.00 25 1012.5
20260905214123 90 204 3.0 3.0 0.00 0.00 0.00 25 1012.5
20260905214022 89 199 2.0 0.0 0.00 0.00 0.00 25 1012.5
20260905213934 89 199 2.0 0.0 0.00 0.00 0.00 26 1012.5
20260905213921 89 199 2.0 0.0 0.00 0.00 0.00 26 1012.5
20260905213852 89 199 2.0 0.0 0.00 0.00 0.00 26 1012.5
20260905213842 89 199 2.0 0.0 0.00 0.00 0.00 25 1012.5
20260905213832 89 199 2.0 0.0 0.00 0.00 0.00 26 1012.5
20260905213759 89 238 2.0 9.0 0.00 0.00 0.00 27 1013.4
20260905213650 89 199 2.0 0.0 0.00 0.00 0.00 27 1012.5
20260905213621 89 199 2.0 0.0 0.00 0.00 0.00 26 1012.5
20260905213611 89 199 2.0 0.0 0.00 0.00 0.00 26 1012.5
20260905213601 90 199 2.0 0.0 0.00 0.00 0.00 26 1012.5
20260905213423 89 199 2.0 0.0 0.00 0.00 0.00 26 1012.5
20260905213351 89 199 2.0 0.0 0.00 0.00 0.00 26 1012.5
20260905213322 90 199 2.0 0.0 0.00 0.00 0.00 26 1012.5
20260905213255 91 155 4.0 10.0 0.00 0.00 0.00 26 1013.4
20260905213252 90 199 2.0 0.0 0.00 0.00 0.00 26 1012.5
20260905213221 91 199 2.0 0.0 0.00 0.00 0.00 26 1012.5
20260905213150 90 199 2.0 0.0 0.00 0.00 0.00 27 1012.5
20260905213123 90 199 2.0 3.0 0.00 0.00 0.00 27 1012.5
20260905213051 90 208 4.0 0.0 0.00 0.00 0.00 27 1012.6
20260905213023 89 208 4.0 0.0 0.00 0.00 0.00 28 1012.6
20260905212951 89 208 4.0 0.0 0.00 0.00 0.00 28 1012.6
20260905212921 89 208 4.0 0.0 0.00 0.00 0.00 28 1012.6
20260905212851 89 208 4.0 0.0 0.00 0.00 0.00 28 1012.6
20260905212823 88 208 4.0 0.0 0.00 0.00 0.00 28 1012.6
20260905212756 89 208 4.0 0.0 0.00 0.00 0.00 27 1012.6
20260905212749 88 122 2.0 6.0 0.00 0.00 0.00 29 1013.4
20260905212721 88 208 4.0 0.0 0.00 0.00 0.00 28 1012.6
20260905212623 88 208 4.0 0.0 0.00 0.00 0.00 28 1012.6
20260905212604 88 208 4.0 7.0 0.00 0.00 0.00 27 1012.6
20260905212534 89 208 4.0 0.0 0.00 0.00 0.00 28 1012.6
20260905212451 88 208 4.0 0.0 0.00 0.00 0.00 27 1012.6
20260905212437 89 208 4.0 0.0 0.00 0.00 0.00 27 1012.6
20260905212253 89 173 0.0 0.0 0.00 0.00 0.00 27 1012.8
20260905212249 88 192 4.0 11.0 0.00 0.00 0.00 27 1013.4
20260905212243 88 208 4.0 0.0 0.00 0.00 0.00 27 1012.6
20260905212233 88 208 4.0 0.0 0.00 0.00 0.00 28 1012.6
20260905212023 89 173 0.0 0.0 0.00 0.00 0.00 27 1012.8
20260905211950 88 173 0.0 0.0 0.00 0.00 0.00 28 1012.8
20260905211929 89 173 0.0 0.0 0.00 0.00 0.00 27 1012.8
20260905211924 89 173 0.0 0.0 0.00 0.00 0.00 27 1012.8
20260905211852 89 173 0.0 0.0 0.00 0.00 0.00 27 1012.8
20260905211842 89 173 0.0 0.0 0.00 0.00 0.00 26 1012.8
20260905211837 89 173 0.0 0.0 0.00 0.00 0.00 26 1012.8
20260905211748 89 205 1.0 5.0 0.00 0.00 0.00 27 1013.4
20260905211651 89 173 0.0 0.0 0.00 0.00 0.00 27 1012.8
20260905211631 88 173 0.0 3.0 0.00 0.00 0.00 27 1012.8
20260905211623 88 173 0.0 0.0 0.00 0.00 0.00 28 1012.8
20260905211613 88 173 0.0 0.0 0.00 0.00 0.00 27 1012.8
20260905211602 89 173 0.0 0.0 0.00 0.00 0.00 27 1012.8
20260905211442 89 127 3.0 0.0 0.00 0.00 0.00 27 1012.7
20260905211438 89 173 0.0 0.0 0.00 0.00 0.00 27 1012.8
20260905211305 90 127 3.0 0.0 0.00 0.00 0.00 27 1012.7
20260905211256 89 173 0.0 0.0 0.00 0.00 0.00 26 1012.8
20260905211245 89 173 0.0 0.0 0.00 0.00 0.00 27 1012.8
20260905211027 89 127 3.0 0.0 0.00 0.00 0.00 27 1012.7
20260905211005 89 127 3.0 0.0 0.00 0.00 0.00 26 1012.7
20260905211001 89 127 3.0 0.0 0.00 0.00 0.00 26 1012.7
20260905210954 89 127 3.0 0.0 0.00 0.00 0.00 27 1012.7
20260905210942 88 127 3.0 0.0 0.00 0.00 0.00 27 1012.7
20260905210741 89 198 4.0 13.0 0.00 0.00 0.00 27 1013.6
20260905210651 90 127 3.0 0.0 0.00 0.00 0.00 26 1012.7
20260905210620 90 127 3.0 0.0 0.00 0.00 0.00 26 1012.7
20260905210606 88 200 4.0 0.0 0.00 0.00 0.00 26 1013.0
20260905210549 90 127 3.0 0.0 0.00 0.00 0.00 26 1012.7
20260905210405 88 200 4.0 0.0 0.00 0.00 0.00 26 1013.0
20260905210349 89 127 3.0 0.0 0.00 0.00 0.00 27 1012.7
20260905210240 89 157 0.0 3.0 0.00 0.00 0.00 26 1013.6
20260905210224 89 127 3.0 0.0 0.00 0.00 0.00 26 1012.7
20260905210214 89 127 3.0 3.0 0.00 0.00 0.00 27 1012.7
20260905210043 89 200 4.0 0.0 0.00 0.00 0.00 26 1013.0
20260905210033 88 200 4.0 0.0 0.00 0.00 0.00 27 1013.0
20260905205851 88 200 4.0 0.0 0.00 0.00 0.00 27 1013.0
20260905205822 87 200 4.0 0.0 0.00 0.00 0.00 27 1013.0
20260905205754 87 200 4.0 0.0 0.00 0.00 0.00 27 1013.0
20260905205744 89 200 4.0 0.0 0.00 0.00 0.00 26 1013.0
20260905205740 87 200 4.0 0.0 0.00 0.00 0.00 26 1013.0
20260905205531 89 84 2.0 0.0 0.00 0.00 0.00 26 1012.8
20260905205522 89 200 4.0 0.0 0.00 0.00 0.00 26 1013.0
20260905205422 89 200 4.0 0.0 0.00 0.00 0.00 26 1013.0
20260905205354 89 84 2.0 0.0 0.00 0.00 0.00 26 1012.8
20260905205338 89 200 4.0 0.0 0.00 0.00 0.00 26 1013.0
20260905205234 89 166 3.0 8.0 0.00 0.00 0.00 26 1013.9
20260905205213 89 200 4.0 0.0 0.00 0.00 0.00 26 1013.0
20260905205204 89 200 4.0 6.0 0.00 0.00 0.00 25 1013.0
20260905205028 87 84 2.0 0.0 0.00 0.00 0.00 26 1012.8
20260905205024 88 84 2.0 0.0 0.00 0.00 0.00 26 1012.8
20260905205011 88 84 2.0 0.0 0.00 0.00 0.00 26 1012.8
20260905205001 89 84 2.0 0.0 0.00 0.00 0.00 26 1012.8
20260905204820 88 84 2.0 0.0 0.00 0.00 0.00 26 1012.8
20260905204733 87 174 3.0 6.0 0.00 0.00 0.00 26 1013.9
20260905204722 88 84 2.0 0.0 0.00 0.00 0.00 26 1012.8
20260905204629 89 84 2.0 3.0 0.00 0.00 0.00 26 1012.8
20260905204622 87 84 2.0 0.0 0.00 0.00 0.00 26 1012.8
20260905204608 88 123 1.0 0.0 0.00 0.00 0.00 26 1013.1
20260905204601 88 84 2.0 0.0 0.00 0.00 0.00 26 1012.8
20260905204422 87 84 2.0 0.0 0.00 0.00 0.00 26 1012.8
20260905204350 88 84 2.0 0.0 0.00 0.00 0.00 26 1012.8
20260905204336 88 123 1.0 0.0 0.00 0.00 0.00 26 1013.1
20260905204328 89 84 2.0 0.0 0.00 0.00 0.00 25 1012.8
20260905204308 88 123 1.0 0.0 0.00 0.00 0.00 26 1013.1
20260905204258 89 84 2.0 0.0 0.00 0.00 0.00 26 1012.8
20260905204248 89 84 2.0 0.0 0.00 0.00 0.00 26 1012.8
20260905204229 89 103 2.0 3.0 0.00 0.00 0.00 26 1013.9
20260905204126 89 123 1.0 0.0 0.00 0.00 0.00 27 1013.1
20260905204116 88 123 1.0 0.0 0.00 0.00 0.00 26 1013.1
20260905203830 88 122 2.0 0.0 0.00 0.00 0.00 27 1013.2
20260905203820 88 123 1.0 0.0 0.00 0.00 0.00 26 1013.1
20260905203801 88 123 1.0 0.0 0.00 0.00 0.00 26 1013.1
20260905203729 88 191 4.0 6.0 0.00 0.00 0.00 26 1013.9
20260905203620 89 123 1.0 0.0 0.00 0.00 0.00 25 1013.1
20260905203551 89 123 1.0 0.0 0.00 0.00 0.00 25 1013.1
20260905203523 88 123 1.0 0.0 0.00 0.00 0.00 26 1013.1
20260905203451 88 123 1.0 0.0 0.00 0.00 0.00 26 1013.1
20260905203438 88 123 1.0 0.0 0.00 0.00 0.00 27 1013.1
20260905203423 88 123 1.0 0.0 0.00 0.00 0.00 27 1013.1
20260905203224 88 88 2.0 5.0 0.00 0.00 0.00 27 1014.1
20260905203220 88 123 1.0 0.0 0.00 0.00 0.00 26 1013.1
20260905203159 88 122 2.0 0.0 0.00 0.00 0.00 26 1013.2
20260905203150 88 123 1.0 0.0 0.00 0.00 0.00 26 1013.1
20260905203123 88 123 1.0 2.0 0.00 0.00 0.00 26 1013.1
20260905203040 87 122 2.0 0.0 0.00 0.00 0.00 27 1013.2
20260905203023 88 122 2.0 0.0 0.00 0.00 0.00 26 1013.2
20260905203007 87 122 2.0 0.0 0.00 0.00 0.00 27 1013.2
20260905203001 88 122 2.0 0.0 0.00 0.00 0.00 26 1013.2
20260905202951 88 122 2.0 0.0 0.00 0.00 0.00 25 1013.2
20260905202941 88 122 2.0 0.0 0.00 0.00 0.00 26 1013.2
20260905202720 88 269 0.0 9.0 0.00 0.00 0.00 26 1014.0
20260905202711 87 122 2.0 0.0 0.00 0.00 0.00 27 1013.2
20260905202702 88 122 2.0 0.0 0.00 0.00 0.00 26 1013.2
20260905202522 87 122 2.0 0.0 0.00 0.00 0.00 27 1013.2
20260905202425 87 122 2.0 0.0 0.00 0.00 0.00 26 1013.2
20260905202413 87 122 2.0 0.0 0.00 0.00 0.00 27 1013.2
20260905202215 87 75 4.0 5.0 0.00 0.00 0.00 26 1014.2
20260905202122 87 122 2.0 4.0 0.00 0.00 0.00 27 1013.2
20260905202022 87 64 2.0 0.0 0.00 0.00 0.00 26 1013.3
20260905201925 87 64 2.0 0.0 0.00 0.00 0.00 26 1013.3
20260905201920 87 64 2.0 0.0 0.00 0.00 0.00 26 1013.3
20260905201819 88 64 2.0 0.0 0.00 0.00 0.00 25 1013.3
20260905201720 88 64 2.0 0.0 0.00 0.00 0.00 26 1013.3
20260905201711 88 225 0.0 5.0 0.00 0.00 0.00 26 1014.2
20260905201649 88 64 2.0 0.0 0.00 0.00 0.00 26 1013.3
20260905201624 86 246 3.0 0.0 0.00 0.00 0.00 26 1013.4
20260905201620 87 64 2.0 0.0 0.00 0.00 0.00 26 1013.3
20260905201559 87 64 2.0 0.0 0.00 0.00 0.00 26 1013.3
20260905201320 87 64 2.0 0.0 0.00 0.00 0.00 27 1013.3
20260905201304 86 246 3.0 0.0 0.00 0.00 0.00 26 1013.4
20260905201220 87 64 2.0 0.0 0.00 0.00 0.00 26 1013.3
20260905201210 87 187 0.0 7.0 0.00 0.00 0.00 27 1014.2
20260905201153 86 246 3.0 0.0 0.00 0.00 0.00 26 1013.4
20260905201149 87 64 2.0 0.0 0.00 0.00 0.00 27 1013.3
20260905201139 87 64 2.0 2.0 0.00 0.00 0.00 27 1013.3
20260905201128 87 246 3.0 0.0 0.00 0.00 0.00 26 1013.4
20260905201118 87 246 3.0 0.0 0.00 0.00 0.00 27 1013.4
20260905200949 87 246 3.0 0.0 0.00 0.00 0.00 27 1013.4
20260905200940 86 246 3.0 0.0 0.00 0.00 0.00 27 1013.4
20260905200930 86 246 3.0 0.0 0.00 0.00 0.00 27 1013.4
20260905200810 86 246 3.0 0.0 0.00 0.00 0.00 27 1013.4
20260905200800 86 246 3.0 0.0 0.00 0.00 0.00 26 1013.4
20260905200706 86 203 6.0 8.0 0.00 0.00 0.00 27 1014.2
20260905200634 86 246 3.0 0.0 0.00 0.00 0.00 26 1013.4
20260905200503 86 246 3.0 0.0 0.00 0.00 0.00 26 1013.4
20260905200420 86 246 3.0 0.0 0.00 0.00 0.00 26 1013.4
20260905200320 86 246 3.0 0.0 0.00 0.00 0.00 26 1013.4
20260905200230 85 208 4.0 0.0 0.00 0.00 0.00 26 1013.7
20260905200220 86 246 3.0 0.0 0.00 0.00 0.00 26 1013.4
20260905200201 86 208 2.0 6.0 0.00 0.00 0.00 26 1014.4
20260905200150 86 246 3.0 0.0 0.00 0.00 0.00 26 1013.4
20260905200122 86 246 3.0 5.0 0.00 0.00 0.00 26 1013.4
20260905200103 86 208 4.0 0.0 0.00 0.00 0.00 26 1013.7
20260905200033 86 208 4.0 0.0 0.00 0.00 0.00 26 1013.7
20260905200022 86 208 4.0 0.0 0.00 0.00 0.00 26 1013.7
20260905195950 86 208 4.0 0.0 0.00 0.00 0.00 26 1013.7
20260905195919 85 208 4.0 0.0 0.00 0.00 0.00 27 1013.7
20260905195859 85 208 4.0 0.0 0.00 0.00 0.00 26 1013.7
20260905195721 85 208 4.0 0.0 0.00 0.00 0.00 26 1013.7
20260905195659 85 208 4.0 0.0 0.00 0.00 0.00 26 1013.7
20260905195530 87 225 4.0 0.0 0.00 0.00 0.00 27 1013.5
20260905195521 87 208 4.0 0.0 0.00 0.00 0.00 26 1013.7
20260905195450 87 208 4.0 0.0 0.00 0.00 0.00 25 1013.7
20260905195420 87 208 4.0 0.0 0.00 0.00 0.00 25 1013.7
20260905195320 87 208 4.0 0.0 0.00 0.00 0.00 26 1013.7
20260905195231 87 225 4.0 0.0 0.00 0.00 0.00 26 1013.5
20260905195223 87 208 4.0 0.0 0.00 0.00 0.00 26 1013.7
20260905195212 87 208 4.0 0.0 0.00 0.00 0.00 25 1013.7
20260905195202 87 208 4.0 6.0 0.00 0.00 0.00 26 1013.7
20260905195154 87 207 4.0 6.0 0.00 0.00 0.00 26 1014.5
20260905195021 87 225 4.0 0.0 0.00 0.00 0.00 26 1013.5
20260905194950 88 225 4.0 0.0 0.00 0.00 0.00 26 1013.5
20260905194920 87 225 4.0 0.0 0.00 0.00 0.00 26 1013.5
20260905194910 87 225 4.0 0.0 0.00 0.00 0.00 27 1013.5
20260905194900 87 225 4.0 0.0 0.00 0.00 0.00 26 1013.5
20260905194720 86 225 4.0 0.0 0.00 0.00 0.00 27 1013.5
20260905194654 85 225 4.0 0.0 0.00 0.00 0.00 27 1013.5
20260905194650 86 284 0.0 4.0 0.00 0.00 0.00 27 1014.6
20260905194620 86 225 4.0 0.0 0.00 0.00 0.00 27 1013.5
20260905194551 85 225 4.0 0.0 0.00 0.00 0.00 27 1013.5
20260905194520 85 225 4.0 0.0 0.00 0.00 0.00 27 1013.5
20260905194420 86 225 4.0 0.0 0.00 0.00 0.00 27 1013.5
20260905194335 86 225 4.0 0.0 0.00 0.00 0.00 27 1013.5
20260905194205 85 146 1.0 0.0 0.00 0.00 0.00 27 1013.7
20260905194150 86 225 4.0 0.0 0.00 0.00 0.00 27 1013.5
20260905194143 86 215 4.0 8.0 0.00 0.00 0.00 27 1014.6
20260905194122 86 225 4.0 4.0 0.00 0.00 0.00 27 1013.5
20260905194022 86 146 1.0 0.0 0.00 0.00 0.00 27 1013.7
20260905193928 86 146 1.0 0.0 0.00 0.00 0.00 27 1013.7
20260905193920 86 146 1.0 0.0 0.00 0.00 0.00 27 1013.7
20260905193851 86 146 1.0 0.0 0.00 0.00 0.00 27 1013.7
20260905193834 85 146 1.0 0.0 0.00 0.00 0.00 27 1013.7
20260905193655 86 146 1.0 0.0 0.00 0.00 0.00 27 1013.7
20260905193638 86 100 5.0 8.0 0.00 0.00 0.00 26 1014.7
20260905193620 85 146 1.0 0.0 0.00 0.00 0.00 27 1013.7
20260905193609 86 146 1.0 0.0 0.00 0.00 0.00 27 1013.7
20260905193559 85 146 1.0 0.0 0.00 0.00 0.00 27 1013.7
20260905193426 85 240 3.0 0.0 0.00 0.00 0.00 27 1013.9
20260905193421 86 146 1.0 0.0 0.00 0.00 0.00 26 1013.7
20260905193341 86 146 1.0 0.0 0.00 0.00 0.00 26 1013.7
20260905193331 86 146 1.0 0.0 0.00 0.00 0.00 26 1013.7
20260905193149 86 146 1.0 0.0 0.00 0.00 0.00 26 1013.7
20260905193133 86 24 0.0 4.0 0.00 0.00 0.00 27 1014.6
20260905193122 86 146 1.0 1.0 0.00 0.00 0.00 27 1013.7
20260905193059 85 240 3.0 0.0 0.00 0.00 0.00 27 1013.9
20260905192921 85 240 3.0 0.0 0.00 0.00 0.00 27 1013.9
20260905192850 85 240 3.0 0.0 0.00 0.00 0.00 27 1013.9
20260905192819 85 240 3.0 0.0 0.00 0.00 0.00 27 1013.9
20260905192751 85 240 3.0 0.0 0.00 0.00 0.00 27 1013.9
20260905192720 85 240 3.0 0.0 0.00 0.00 0.00 27 1013.9
20260905192649 85 240 3.0 0.0 0.00 0.00 0.00 26 1013.9
20260905192628 86 214 6.0 6.0 0.00 0.00 0.00 26 1014.7
20260905192620 86 240 3.0 0.0 0.00 0.00 0.00 26 1013.9
20260905192549 86 240 3.0 0.0 0.00 0.00 0.00 26 1013.9
20260905192523 86 240 3.0 0.0 0.00 0.00 0.00 27 1013.9
20260905192450 86 240 3.0 0.0 0.00 0.00 0.00 28 1013.9
20260905192419 86 240 3.0 0.0 0.00 0.00 0.00 27 1013.9
20260905192350 86 240 3.0 0.0 0.00 0.00 0.00 27 1013.9
20260905192338 85 203 2.0 0.0 0.00 0.00 0.00 28 1013.9
20260905192334 85 240 3.0 0.0 0.00 0.00 0.00 27 1013.9
20260905192252 85 240 3.0 0.0 0.00 0.00 0.00 27 1013.9
20260905192220 86 240 3.0 0.0 0.00 0.00 0.00 27 1013.9
20260905192149 86 240 3.0 0.0 0.00 0.00 0.00 28 1013.9
20260905192125 86 204 2.0 4.0 0.00 0.00 0.00 28 1014.7
20260905192122 86 240 3.0 5.0 0.00 0.00 0.00 27 1013.9
20260905192104 85 203 2.0 0.0 0.00 0.00 0.00 29 1013.9
20260905192050 86 203 2.0 0.0 0.00 0.00 0.00 27 1013.9
20260905192037 84 203 2.0 0.0 0.00 0.00 0.00 29 1013.9
20260905192033 85 203 2.0 0.0 0.00 0.00 0.00 28 1013.9
20260905192012 85 203 2.0 0.0 0.00 0.00 0.00 28 1013.9
20260905191819 85 203 2.0 0.0 0.00 0.00 0.00 28 1013.9
20260905191805 83 220 3.0 0.0 0.00 0.00 0.00 32 1014.1
20260905191752 85 203 2.0 0.0 0.00 0.00 0.00 28 1013.9
20260905191742 85 203 2.0 0.0 0.00 0.00 0.00 29 1013.9
20260905191732 85 203 2.0 0.0 0.00 0.00 0.00 30 1013.9
20260905191624 84 279 2.0 2.0 0.00 0.00 0.00 30 1014.8
20260905191609 84 203 2.0 0.0 0.00 0.00 0.00 30 1013.9
20260905191559 84 203 2.0 0.0 0.00 0.00 0.00 29 1013.9
20260905191420 84 203 2.0 0.0 0.00 0.00 0.00 29 1013.9
20260905191336 84 220 3.0 0.0 0.00 0.00 0.00 32 1014.1
20260905191320 84 203 2.0 0.0 0.00 0.00 0.00 28 1013.9
20260905191253 84 220 3.0 0.0 0.00 0.00 0.00 31 1014.1
20260905191249 84 203 2.0 0.0 0.00 0.00 0.00 29 1013.9
20260905191225 84 203 2.0 0.0 0.00 0.00 0.00 30 1013.9
20260905191215 84 203 2.0 0.0 0.00 0.00 0.00 31 1013.9
20260905191205 84 203 2.0 6.0 0.00 0.00 0.00 31 1013.9
20260905191122 84 207 2.0 4.0 0.00 0.00 0.00 32 1015.0
20260905191040 84 220 3.0 0.0 0.00 0.00 0.00 32 1014.1
20260905191031 84 220 3.0 0.0 0.00 0.00 0.00 32 1014.1
20260905191020 85 220 3.0 0.0 0.00 0.00 0.00 31 1014.1
20260905191010 85 220 3.0 0.0 0.00 0.00 0.00 32 1014.1
20260905190721 84 220 3.0 0.0 0.00 0.00 0.00 31 1014.1
20260905190626 84 67 6.0 0.0 0.00 0.00 0.00 34 1014.3
20260905190622 84 220 3.0 0.0 0.00 0.00 0.00 31 1014.1
20260905190620 84 258 1.0 6.0 0.00 0.00 0.00 32 1014.9
20260905190612 84 220 3.0 0.0 0.00 0.00 0.00 32 1014.1
20260905190600 83 220 3.0 0.0 0.00 0.00 0.00 32 1014.1
20260905190420 84 220 3.0 0.0 0.00 0.00 0.00 32 1014.1
20260905190320 84 220 3.0 0.0 0.00 0.00 0.00 32 1014.1
20260905190221 84 220 3.0 0.0 0.00 0.00 0.00 32 1014.1
20260905190211 84 220 3.0 0.0 0.00 0.00 0.00 33 1014.1
20260905190201 84 220 3.0 4.0 0.00 0.00 0.00 32 1014.1
20260905190150 85 67 6.0 0.0 0.00 0.00 0.00 32 1014.3
20260905190115 84 213 4.0 4.0 0.00 0.00 0.00 34 1015.2
20260905185949 84 67 6.0 0.0 0.00 0.00 0.00 34 1014.3
20260905185921 84 67 6.0 0.0 0.00 0.00 0.00 33 1014.3
20260905185852 84 67 6.0 0.0 0.00 0.00 0.00 34 1014.3
20260905185843 82 67 6.0 0.0 0.00 0.00 0.00 34 1014.3
20260905185820 83 67 6.0 0.0 0.00 0.00 0.00 34 1014.3
20260905185750 83 67 6.0 0.0 0.00 0.00 0.00 36 1014.3
20260905185720 83 67 6.0 0.0 0.00 0.00 0.00 35 1014.3
20260905185619 82 67 6.0 0.0 0.00 0.00 0.00 35 1014.3
20260905185614 82 159 2.0 4.0 0.00 0.00 0.00 34 1015.1
20260905185555 82 67 6.0 0.0 0.00 0.00 0.00 35 1014.3
20260905185545 82 67 6.0 0.0 0.00 0.00 0.00 34 1014.3
20260905185522 82 67 6.0 0.0 0.00 0.00 0.00 35 1014.3
20260905185511 82 67 6.0 0.0 0.00 0.00 0.00 34 1014.3
20260905185319 82 67 6.0 0.0 0.00 0.00 0.00 35 1014.3
20260905185251 82 67 6.0 0.0 0.00 0.00 0.00 35 1014.3
20260905185219 82 67 6.0 0.0 0.00 0.00 0.00 34 1014.3
20260905185151 82 67 6.0 0.0 0.00 0.00 0.00 34 1014.3
20260905185125 83 67 6.0 7.0 0.00 0.00 0.00 34 1014.3
20260905185114 83 135 1.0 4.0 0.00 0.00 0.00 34 1015.2
20260905185049 83 120 2.0 0.0 0.00 0.00 0.00 35 1014.4
20260905185032 82 120 2.0 0.0 0.00 0.00 0.00 35 1014.4
20260905185020 83 120 2.0 0.0 0.00 0.00 0.00 34 1014.4
20260905184920 83 120 2.0 0.0 0.00 0.00 0.00 35 1014.4
20260905184849 83 120 2.0 0.0 0.00 0.00 0.00 34 1014.4
20260905184820 83 120 2.0 0.0 0.00 0.00 0.00 35 1014.4
20260905184720 83 120 2.0 0.0 0.00 0.00 0.00 35 1014.4
20260905184710 83 120 2.0 0.0 0.00 0.00 0.00 35 1014.4
20260905184700 82 120 2.0 0.0 0.00 0.00 0.00 35 1014.4
20260905184608 82 304 1.0 2.0 0.00 0.00 0.00 35 1015.1
20260905184529 82 188 2.0 0.0 0.00 0.00 0.00 37 1014.4
20260905184519 82 120 2.0 0.0 0.00 0.00 0.00 35 1014.4
20260905184429 82 120 2.0 0.0 0.00 0.00 0.00 35 1014.4
20260905184351 82 120 2.0 0.0 0.00 0.00 0.00 35 1014.4
20260905184320 82 120 2.0 0.0 0.00 0.00 0.00 36 1014.4
20260905184252 82 120 2.0 0.0 0.00 0.00 0.00 36 1014.4
20260905184233 82 188 2.0 0.0 0.00 0.00 0.00 36 1014.4
20260905184222 82 120 2.0 0.0 0.00 0.00 0.00 36 1014.4
20260905184210 82 120 2.0 0.0 0.00 0.00 0.00 36 1014.4
20260905184200 82 120 2.0 3.0 0.00 0.00 0.00 35 1014.4
20260905184107 82 114 1.0 7.0 0.00 0.00 0.00 36 1015.3
20260905184023 82 188 2.0 0.0 0.00 0.00 0.00 36 1014.4
20260905183924 82 188 2.0 0.0 0.00 0.00 0.00 35 1014.4
20260905183920 82 188 2.0 0.0 0.00 0.00 0.00 36 1014.4
20260905183909 82 188 2.0 0.0 0.00 0.00 0.00 36 1014.4
20260905183859 82 188 2.0 0.0 0.00 0.00 0.00 35 1014.4
20260905183720 82 188 2.0 0.0 0.00 0.00 0.00 36 1014.4
20260905183649 82 188 2.0 0.0 0.00 0.00 0.00 36 1014.4
20260905183622 82 188 2.0 0.0 0.00 0.00 0.00 35 1014.4
20260905183607 82 123 4.0 6.0 0.00 0.00 0.00 35 1015.3
20260905183536 82 188 2.0 0.0 0.00 0.00 0.00 36 1014.4
20260905183320 82 188 2.0 0.0 0.00 0.00 0.00 35 1014.4
20260905183233 82 188 2.0 0.0 0.00 0.00 0.00 35 1014.4
20260905183203 82 208 3.0 0.0 0.00 0.00 0.00 34 1014.4
20260905183150 83 188 2.0 0.0 0.00 0.00 0.00 35 1014.4
20260905183122 83 188 2.0 5.0 0.00 0.00 0.00 34 1014.4
20260905183103 83 208 3.0 0.0 0.00 0.00 0.00 35 1014.4
20260905183021 83 208 3.0 0.0 0.00 0.00 0.00 35 1014.4
20260905182922 82 208 3.0 0.0 0.00 0.00 0.00 36 1014.4
20260905182912 82 208 3.0 0.0 0.00 0.00 0.00 34 1014.4
20260905182834 82 208 3.0 0.0 0.00 0.00 0.00 34 1014.4
20260905182650 82 208 3.0 0.0 0.00 0.00 0.00 33 1014.4
20260905182620 82 208 3.0 0.0 0.00 0.00 0.00 34 1014.4
20260905182601 82 205 4.0 4.0 0.00 0.00 0.00 34 1015.3
20260905182536 82 208 3.0 0.0 0.00 0.00 0.00 33 1014.4
20260905182350 82 208 3.0 0.0 0.00 0.00 0.00 34 1014.4
20260905182319 82 208 3.0 0.0 0.00 0.00 0.00 34 1014.4
20260905182223 82 208 3.0 0.0 0.00 0.00 0.00 33 1014.4
20260905182150 82 208 3.0 0.0 0.00 0.00 0.00 33 1014.4
20260905182122 82 208 3.0 4.0 0.00 0.00 0.00 33 1014.4
20260905182056 82 142 0.0 3.0 0.00 0.00 0.00 33 1015.4
20260905182050 82 112 0.0 0.0 0.00 0.00 0.00 33 1014.5
20260905182022 82 112 0.0 0.0 0.00 0.00 0.00 34 1014.5
20260905181920 82 112 0.0 0.0 0.00 0.00 0.00 33 1014.5
20260905181901 82 112 0.0 0.0 0.00 0.00 0.00 31 1014.5
20260905181849 82 112 0.0 0.0 0.00 0.00 0.00 34 1014.5
20260905181820 82 112 0.0 0.0 0.00 0.00 0.00 33 1014.5
20260905181750 82 112 0.0 0.0 0.00 0.00 0.00 33 1014.5
20260905181719 82 112 0.0 0.0 0.00 0.00 0.00 33 1014.5
20260905181651 82 112 0.0 0.0 0.00 0.00 0.00 32 1014.5
20260905181619 82 112 0.0 0.0 0.00 0.00 0.00 33 1014.5
20260905181556 82 23 2.0 2.0 0.00 0.00 0.00 32 1015.4
20260905181549 82 112 0.0 0.0 0.00 0.00 0.00 31 1014.5
20260905181535 82 112 0.0 0.0 0.00 0.00 0.00 32 1014.5
20260905181322 82 112 0.0 0.0 0.00 0.00 0.00 31 1014.5
20260905181249 82 112 0.0 0.0 0.00 0.00 0.00 31 1014.5
20260905181220 82 112 0.0 0.0 0.00 0.00 0.00 32 1014.5
20260905181149 81 112 0.0 0.0 0.00 0.00 0.00 31 1014.5
20260905181121 81 112 0.0 1.0 0.00 0.00 0.00 31 1014.5
20260905181055 81 106 0.0 2.0 0.00 0.00 0.00 32 1015.5
20260905181049 81 219 0.0 0.0 0.00 0.00 0.00 32 1014.6
20260905181022 81 219 0.0 0.0 0.00 0.00 0.00 31 1014.6
20260905180950 81 219 0.0 0.0 0.00 0.00 0.00 32 1014.6
20260905180937 81 219 0.0 0.0 0.00 0.00 0.00 32 1014.6
20260905180920 81 219 0.0 0.0 0.00 0.00 0.00 31 1014.6
20260905180849 81 219 0.0 0.0 0.00 0.00 0.00 31 1014.6
20260905180833 81 219 0.0 0.0 0.00 0.00 0.00 32 1014.6
20260905180749 81 219 0.0 0.0 0.00 0.00 0.00 31 1014.6
20260905180725 82 219 0.0 0.0 0.00 0.00 0.00 32 1014.6
20260905180719 81 219 0.0 0.0 0.00 0.00 0.00 32 1014.6
20260905180650 81 219 0.0 0.0 0.00 0.00 0.00 32 1014.6
20260905180625 82 210 0.0 0.0 0.00 0.00 0.00 30 1014.5
20260905180618 81 219 0.0 0.0 0.00 0.00 0.00 32 1014.6
20260905180612 81 219 0.0 0.0 0.00 0.00 0.00 32 1014.6
20260905180603 81 219 0.0 0.0 0.00 0.00 0.00 33 1014.6
20260905180550 81 211 1.0 4.0 0.00 0.00 0.00 32 1015.4
20260905180443 82 210 0.0 0.0 0.00 0.00 0.00 29 1014.5
20260905180433 82 210 0.0 0.0 0.00 0.00 0.00 32 1014.5
20260905180426 81 219 0.0 0.0 0.00 0.00 0.00 33 1014.6
20260905180413 81 219 0.0 0.0 0.00 0.00 0.00 33 1014.6
20260905180403 81 219 0.0 0.0 0.00 0.00 0.00 33 1014.6
20260905180353 82 219 0.0 0.0 0.00 0.00 0.00 33 1014.6
20260905180234 82 219 0.0 2.0 0.00 0.00 0.00 32 1014.6
20260905180222 82 210 0.0 0.0 0.00 0.00 0.00 31 1014.5
20260905180046 82 164 0.0 4.0 0.00 0.00 0.00 30 1015.3
20260905175919 81 210 0.0 0.0 0.00 0.00 0.00 27 1014.5
20260905175909 82 210 0.0 0.0 0.00 0.00 0.00 28 1014.5
20260905175859 82 210 0.0 0.0 0.00 0.00 0.00 31 1014.5
20260905175723 82 210 0.0 0.0 0.00 0.00 0.00 32 1014.5
20260905175649 82 210 0.0 0.0 0.00 0.00 0.00 33 1014.5
20260905175620 82 210 0.0 0.0 0.00 0.00 0.00 32 1014.5
20260905175545 82 138 2.0 3.0 0.00 0.00 0.00 32 1015.3
20260905175521 82 210 0.0 0.0 0.00 0.00 0.00 32 1014.5
20260905175458 80 172 1.0 0.0 0.00 0.00 0.00 34 1014.6
20260905175420 81 210 0.0 0.0 0.00 0.00 0.00 32 1014.5
20260905175349 81 210 0.0 0.0 0.00 0.00 0.00 32 1014.5
20260905175325 80 172 1.0 0.0 0.00 0.00 0.00 34 1014.6
20260905175320 80 210 0.0 0.0 0.00 0.00 0.00 32 1014.5
20260905175250 80 210 0.0 0.0 0.00 0.00 0.00 33 1014.5
20260905175219 80 210 0.0 0.0 0.00 0.00 0.00 34 1014.5
20260905175159 82 172 1.0 0.0 0.00 0.00 0.00 35 1014.6
20260905175155 80 210 0.0 0.0 0.00 0.00 0.00 32 1014.5
20260905175145 80 210 0.0 2.0 0.00 0.00 0.00 32 1014.5
20260905175133 80 172 1.0 0.0 0.00 0.00 0.00 32 1014.6
20260905175041 80 214 6.0 6.0 0.00 0.00 0.00 32 1015.5
20260905174959 80 172 1.0 0.0 0.00 0.00 0.00 34 1014.6
20260905174823 81 172 1.0 0.0 0.00 0.00 0.00 34 1014.6
20260905174810 81 172 1.0 0.0 0.00 0.00 0.00 35 1014.6
20260905174801 82 172 1.0 0.0 0.00 0.00 0.00 35 1014.6
20260905174619 82 172 1.0 0.0 0.00 0.00 0.00 34 1014.6
20260905174536 81 223 1.0 6.0 0.00 0.00 0.00 34 1015.2
20260905174523 81 172 1.0 0.0 0.00 0.00 0.00 34 1014.6
20260905174450 81 172 1.0 0.0 0.00 0.00 0.00 34 1014.6
20260905174434 80 205 5.0 0.0 0.00 0.00 0.00 37 1014.3
20260905174420 81 172 1.0 0.0 0.00 0.00 0.00 33 1014.6
20260905174350 82 172 1.0 0.0 0.00 0.00 0.00 34 1014.6
20260905174320 82 172 1.0 0.0 0.00 0.00 0.00 33 1014.6
20260905174249 82 172 1.0 0.0 0.00 0.00 0.00 32 1014.6
20260905174233 80 205 5.0 0.0 0.00 0.00 0.00 37 1014.3
20260905174221 81 172 1.0 0.0 0.00 0.00 0.00 32 1014.6
20260905174151 81 172 1.0 0.0 0.00 0.00 0.00 32 1014.6
20260905174127 79 205 5.0 0.0 0.00 0.00 0.00 39 1014.3
20260905174123 81 172 1.0 2.0 0.00 0.00 0.00 31 1014.6
20260905174111 81 205 5.0 0.0 0.00 0.00 0.00 32 1014.3
20260905174101 81 205 5.0 0.0 0.00 0.00 0.00 34 1014.3
20260905174031 81 213 3.0 4.0 0.00 0.00 0.00 35 1015.4
20260905173941 78 205 5.0 0.0 0.00 0.00 0.00 39 1014.3
20260905173930 78 205 5.0 0.0 0.00 0.00 0.00 39 1014.3
20260905173919 80 205 5.0 0.0 0.00 0.00 0.00 36 1014.3
20260905173909 79 205 5.0 6.0 0.00 0.00 0.00 39 1014.3
20260905173905 80 205 5.0 0.0 0.00 0.00 0.00 37 1014.3
20260905173855 80 205 5.0 0.0 0.00 0.00 0.00 36 1014.3
20260905173846 80 205 5.0 0.0 0.00 0.00 0.00 36 1014.3
20260905173720 79 205 5.0 0.0 0.00 0.00 0.00 38 1014.3
20260905173710 79 205 5.0 0.0 0.00 0.00 0.00 38 1014.3
20260905173528 79 210 0.0 5.0 0.00 0.00 0.00 39 1015.3
20260905173435 78 205 5.0 0.0 0.00 0.00 0.00 39 1014.3
20260905173257 79 32 2.0 0.0 0.00 0.00 0.00 38 1014.2
20260905173253 78 205 5.0 0.0 0.00 0.00 0.00 38 1014.3
20260905173243 78 205 5.0 0.0 0.00 0.00 0.00 40 1014.3
20260905173233 78 205 5.0 0.0 0.00 0.00 0.00 39 1014.3
20260905173050 79 32 2.0 0.0 0.00 0.00 0.00 39 1014.2
20260905173029 79 55 0.0 4.0 0.00 0.00 0.00 38 1015.1
20260905173021 79 32 2.0 0.0 0.00 0.00 0.00 38 1014.2
20260905172920 79 32 2.0 0.0 0.00 0.00 0.00 38 1014.2
20260905172855 79 32 2.0 0.0 0.00 0.00 0.00 38 1014.2
20260905172822 79 32 2.0 0.0 0.00 0.00 0.00 36 1014.2
20260905172811 79 32 2.0 0.0 0.00 0.00 0.00 37 1014.2
20260905172801 79 32 2.0 0.0 0.00 0.00 0.00 38 1014.2
20260905172621 79 32 2.0 0.0 0.00 0.00 0.00 39 1014.2
20260905172538 79 32 2.0 0.0 0.00 0.00 0.00 39 1014.2
20260905172529 79 32 2.0 0.0 0.00 0.00 0.00 39 1014.2
20260905172527 79 75 0.0 4.0 0.00 0.00 0.00 39 1015.2
20260905172319 79 32 2.0 0.0 0.00 0.00 0.00 39 1014.2
20260905172223 79 32 2.0 0.0 0.00 0.00 0.00 39 1014.2
20260905172150 79 32 2.0 0.0 0.00 0.00 0.00 38 1014.2
20260905172123 80 32 2.0 3.0 0.00 0.00 0.00 37 1014.2
20260905172054 80 20 0.0 1.0 0.00 0.00 0.00 39 1014.3
20260905172033 80 20 0.0 0.0 0.00 0.00 0.00 39 1014.3
20260905172023 80 80 2.0 3.0 0.00 0.00 0.00 39 1015.3
20260905171920 80 20 0.0 0.0 0.00 0.00 0.00 38 1014.3
20260905171910 81 20 0.0 0.0 0.00 0.00 0.00 38 1014.3
20260905171851 80 20 0.0 0.0 0.00 0.00 0.00 38 1014.3
20260905171819 80 20 0.0 0.0 0.00 0.00 0.00 38 1014.3
20260905171750 80 20 0.0 0.0 0.00 0.00 0.00 36 1014.3
20260905171739 81 20 0.0 0.0 0.00 0.00 0.00 37 1014.3
20260905171728 80 20 0.0 0.0 0.00 0.00 0.00 37 1014.3
20260905171719 80 20 0.0 0.0 0.00 0.00 0.00 37 1014.3
20260905171708 80 20 0.0 0.0 0.00 0.00 0.00 38 1014.3
20260905171550 80 20 0.0 0.0 0.00 0.00 0.00 38 1014.3
20260905171540 80 20 0.0 0.0 0.00 0.00 0.00 39 1014.3
20260905171530 80 20 0.0 0.0 0.00 0.00 0.00 39 1014.3
20260905171519 80 263 0.0 4.0 0.00 0.00 0.00 39 1015.2
20260905171410 80 207 2.0 0.0 0.00 0.00 0.00 37 1014.2
20260905171400 81 20 0.0 0.0 0.00 0.00 0.00 38 1014.3
20260905171240 80 20 0.0 0.0 0.00 0.00 0.00 37 1014.3
20260905171232 80 20 0.0 0.0 0.00 0.00 0.00 37 1014.3
20260905171054 80 207 2.0 0.0 0.00 0.00 0.00 39 1014.2
20260905171049 80 207 2.0 0.0 0.00 0.00 0.00 37 1014.2
20260905171039 80 207 2.0 0.0 0.00 0.00 0.00 38 1014.2
20260905171030 80 207 2.0 0.0 0.00 0.00 0.00 38 1014.2
20260905171015 80 138 0.0 3.0 0.00 0.00 0.00 38 1015.1
20260905170842 79 207 2.0 0.0 0.00 0.00 0.00 40 1014.2
20260905170833 79 207 2.0 0.0 0.00 0.00 0.00 40 1014.2
20260905170827 80 207 2.0 4.0 0.00 0.00 0.00 39 1014.2
20260905170823 80 207 2.0 0.0 0.00 0.00 0.00 38 1014.2
20260905170806 79 198 2.0 0.0 0.00 0.00 0.00 41 1014.2
20260905170756 80 198 2.0 0.0 0.00 0.00 0.00 39 1014.2
20260905170739 80 207 2.0 0.0 0.00 0.00 0.00 38 1014.2
20260905170729 80 207 2.0 0.0 0.00 0.00 0.00 37 1014.2
20260905170706 80 207 2.0 0.0 0.00 0.00 0.00 38 1014.2
20260905170657 80 207 2.0 0.0 0.00 0.00 0.00 37 1014.2
20260905170647 80 207 2.0 0.0 0.00 0.00 0.00 38 1014.2
20260905170527 79 207 2.0 0.0 0.00 0.00 0.00 39 1014.2
20260905170514 79 207 2.0 0.0 0.00 0.00 0.00 40 1014.2
20260905170511 80 246 1.0 4.0 0.00 0.00 0.00 39 1014.9
20260905170111 80 198 2.0 0.0 0.00 0.00 0.00 40 1014.2
20260905170006 79 224 0.0 5.0 0.00 0.00 0.00 41 1015.1
20260905165920 79 198 2.0 0.0 0.00 0.00 0.00 41 1014.2
20260905165900 80 198 2.0 0.0 0.00 0.00 0.00 40 1014.2
20260905165720 80 198 2.0 0.0 0.00 0.00 0.00 39 1014.2
20260905165650 80 198 2.0 0.0 0.00 0.00 0.00 39 1014.2
20260905165624 79 157 0.0 0.0 0.00 0.00 0.00 40 1013.9
20260905165620 80 198 2.0 0.0 0.00 0.00 0.00 39 1014.2
20260905165549 80 198 2.0 0.0 0.00 0.00 0.00 40 1014.2
20260905165520 79 198 2.0 0.0 0.00 0.00 0.00 40 1014.2
20260905165508 79 157 0.0 0.0 0.00 0.00 0.00 41 1013.9
20260905165501 79 66 0.0 3.0 0.00 0.00 0.00 41 1015.0
20260905165420 79 198 2.0 0.0 0.00 0.00 0.00 41 1014.2
20260905165353 79 157 0.0 0.0 0.00 0.00 0.00 42 1013.9
20260905165349 79 198 2.0 0.0 0.00 0.00 0.00 40 1014.2
20260905165328 77 157 0.0 0.0 0.00 0.00 0.00 44 1013.9
20260905165323 79 198 2.0 0.0 0.00 0.00 0.00 41 1014.2
20260905165314 79 198 2.0 0.0 0.00 0.00 0.00 41 1014.2
20260905165306 78 198 2.0 0.0 0.00 0.00 0.00 41 1014.2
20260905165253 78 198 2.0 0.0 0.00 0.00 0.00 41 1014.2
20260905165243 79 198 2.0 3.0 0.00 0.00 0.00 41 1014.2
20260905165011 79 157 0.0 0.0 0.00 0.00 0.00 41 1013.9
20260905165001 79 157 0.0 0.0 0.00 0.00 0.00 42 1013.9
20260905164956 79 170 1.0 2.0 0.00 0.00 0.00 42 1014.9
20260905164819 78 157 0.0 0.0 0.00 0.00 0.00 43 1013.9
20260905164749 78 157 0.0 0.0 0.00 0.00 0.00 44 1013.9
20260905164720 78 157 0.0 0.0 0.00 0.00 0.00 43 1013.9
20260905164650 78 157 0.0 0.0 0.00 0.00 0.00 43 1013.9
20260905164619 78 157 0.0 0.0 0.00 0.00 0.00 43 1013.9
20260905164550 78 157 0.0 0.0 0.00 0.00 0.00 44 1013.9
20260905164534 77 157 0.0 0.0 0.00 0.00 0.00 44 1013.9
20260905164455 77 182 1.0 5.0 0.00 0.00 0.00 44 1015.1
20260905164349 77 157 0.0 0.0 0.00 0.00 0.00 45 1013.9
20260905164320 77 157 0.0 0.0 0.00 0.00 0.00 44 1013.9
20260905164249 77 157 0.0 0.0 0.00 0.00 0.00 44 1013.9
20260905164220 77 157 0.0 0.0 0.00 0.00 0.00 43 1013.9
20260905164149 77 157 0.0 0.0 0.00 0.00 0.00 44 1013.9
20260905164122 77 157 0.0 0.0 0.00 0.00 0.00 46 1013.9
20260905164049 77 147 0.0 0.0 0.00 0.00 0.00 46 1014.1
20260905164020 76 147 0.0 0.0 0.00 0.00 0.00 46 1014.1
20260905163950 77 221 2.0 4.0 0.00 0.00 0.00 46 1015.2
20260905163923 77 147 0.0 0.0 0.00 0.00 0.00 46 1014.1
20260905163820 77 147 0.0 0.0 0.00 0.00 0.00 45 1014.1
20260905163750 77 147 0.0 0.0 0.00 0.00 0.00 45 1014.1
20260905163734 76 147 0.0 0.0 0.00 0.00 0.00 45 1014.1
20260905163719 77 147 0.0 0.0 0.00 0.00 0.00 45 1014.1
20260905163620 77 147 0.0 0.0 0.00 0.00 0.00 45 1014.1
20260905163521 77 147 0.0 0.0 0.00 0.00 0.00 45 1014.1
20260905163450 77 147 0.0 0.0 0.00 0.00 0.00 45 1014.1
20260905163447 77 96 0.0 2.0 0.00 0.00 0.00 46 1015.0
20260905163420 77 147 0.0 0.0 0.00 0.00 0.00 46 1014.1
20260905163400 77 147 0.0 0.0 0.00 0.00 0.00 45 1014.1
20260905163219 76 147 0.0 0.0 0.00 0.00 0.00 45 1014.1
20260905163149 76 147 0.0 0.0 0.00 0.00 0.00 46 1014.1
20260905163122 76 147 0.0 1.0 0.00 0.00 0.00 46 1014.1
20260905163050 76 269 0.0 0.0 0.00 0.00 0.00 45 1014.2
20260905163026 76 269 0.0 0.0 0.00 0.00 0.00 44 1014.2
20260905162943 76 55 0.0 3.0 0.00 0.00 0.00 44 1015.0
20260905162921 76 269 0.0 0.0 0.00 0.00 0.00 44 1014.2
20260905162903 78 269 0.0 0.0 0.00 0.00 0.00 48 1014.2
20260905162850 76 269 0.0 0.0 0.00 0.00 0.00 44 1014.2
20260905162820 76 269 0.0 0.0 0.00 0.00 0.00 44 1014.2
20260905162749 76 269 0.0 0.0 0.00 0.00 0.00 44 1014.2
20260905162721 77 269 0.0 0.0 0.00 0.00 0.00 44 1014.2
20260905162650 77 269 0.0 0.0 0.00 0.00 0.00 44 1014.2
20260905162620 77 269 0.0 0.0 0.00 0.00 0.00 44 1014.2
20260905162540 77 269 0.0 0.0 0.00 0.00 0.00 46 1014.2
20260905162530 78 269 0.0 0.0 0.00 0.00 0.00 44 1014.2
20260905162438 78 44 0.0 2.0 0.00 0.00 0.00 50 1014.9
20260905162349 78 269 0.0 0.0 0.00 0.00 0.00 50 1014.2
20260905162321 78 269 0.0 0.0 0.00 0.00 0.00 49 1014.2
20260905162310 79 210 1.0 0.0 0.00 0.00 0.00 50 1013.9
20260905162250 78 269 0.0 0.0 0.00 0.00 0.00 49 1014.2
20260905162220 78 269 0.0 0.0 0.00 0.00 0.00 48 1014.2
20260905162153 79 210 1.0 0.0 0.00 0.00 0.00 49 1013.9
20260905162149 78 269 0.0 0.0 0.00 0.00 0.00 49 1014.2
20260905162122 79 269 0.0 0.0 0.00 0.00 0.00 48 1014.2
20260905162050 79 210 1.0 0.0 0.00 0.00 0.00 48 1013.9
20260905162041 79 210 1.0 0.0 0.00 0.00 0.00 49 1013.9
20260905162022 79 210 1.0 0.0 0.00 0.00 0.00 50 1013.9
20260905162011 78 206 0.0 0.0 0.00 0.00 0.00 50 1014.0
20260905161955 79 210 1.0 0.0 0.00 0.00 0.00 49 1013.9
20260905161945 79 210 1.0 0.0 0.00 0.00 0.00 50 1013.9
20260905161932 79 110 1.0 2.0 0.00 0.00 0.00 50 1014.9
20260905161818 78 210 1.0 0.0 0.00 0.00 0.00 50 1013.9
20260905161810 78 210 1.0 0.0 0.00 0.00 0.00 50 1013.9
20260905161530 79 206 0.0 0.0 0.00 0.00 0.00 49 1014.0
20260905161520 79 210 1.0 0.0 0.00 0.00 0.00 49 1013.9
20260905161451 79 210 1.0 0.0 0.00 0.00 0.00 49 1013.9
20260905161427 79 206 0.0 0.0 0.00 0.00 0.00 47 1014.0
20260905161420 79 210 1.0 0.0 0.00 0.00 0.00 49 1013.9
20260905161404 78 210 1.0 0.0 0.00 0.00 0.00 48 1013.9
20260905161354 78 210 1.0 0.0 0.00 0.00 0.00 47 1013.9
20260905161344 77 210 1.0 0.0 0.00 0.00 0.00 48 1013.9
20260905161228 77 206 0.0 0.0 0.00 0.00 0.00 53 1014.0
20260905161224 77 210 1.0 0.0 0.00 0.00 0.00 50 1013.9
20260905161214 77 210 1.0 0.0 0.00 0.00 0.00 49 1013.9
20260905161204 78 210 1.0 2.0 0.00 0.00 0.00 50 1013.9
20260905161153 78 206 0.0 0.0 0.00 0.00 0.00 49 1014.0
20260905161032 79 206 0.0 0.0 0.00 0.00 0.00 48 1014.0
20260905160924 79 117 0.0 1.0 0.00 0.00 0.00 48 1014.9
20260905160851 79 206 0.0 0.0 0.00 0.00 0.00 48 1014.0
20260905160820 79 206 0.0 0.0 0.00 0.00 0.00 49 1014.0
20260905160803 79 206 0.0 0.0 0.00 0.00 0.00 49 1014.0
20260905160740 78 206 0.0 0.0 0.00 0.00 0.00 49 1014.0
20260905160730 78 206 0.0 0.0 0.00 0.00 0.00 49 1014.0
20260905160610 77 206 0.0 0.0 0.00 0.00 0.00 52 1014.0
20260905160600 77 206 0.0 0.0 0.00 0.00 0.00 53 1014.0
20260905160420 77 206 0.0 0.0 0.00 0.00 0.00 53 1014.0
20260905160418 77 225 2.0 2.0 0.00 0.00 0.00 54 1014.9
20260905160402 77 206 0.0 0.0 0.00 0.00 0.00 54 1014.0
20260905160321 76 206 0.0 0.0 0.00 0.00 0.00 54 1014.0
20260905160249 76 206 0.0 0.0 0.00 0.00 0.00 55 1014.0
20260905160223 75 206 0.0 0.0 0.00 0.00 0.00 56 1014.0
20260905160150 75 206 0.0 0.0 0.00 0.00 0.00 58 1014.0
20260905160122 75 206 0.0 1.0 0.00 0.00 0.00 57 1014.0
20260905160022 75 197 0.0 0.0 0.00 0.00 0.00 58 1013.9
20260905155950 75 197 0.0 0.0 0.00 0.00 0.00 58 1013.9
20260905155919 75 197 0.0 0.0 0.00 0.00 0.00 58 1013.9
20260905155823 75 197 0.0 0.0 0.00 0.00 0.00 59 1013.9
20260905155749 74 197 0.0 0.0 0.00 0.00 0.00 61 1013.9
20260905155720 74 197 0.0 0.0 0.00 0.00 0.00 60 1013.9
20260905155650 74 197 0.0 0.0 0.00 0.00 0.00 60 1013.9
20260905155630 76 197 0.0 0.0 0.00 0.00 0.00 59 1013.9
20260905155620 75 197 0.0 0.0 0.00 0.00 0.00 60 1013.9
20260905155520 75 197 0.0 0.0 0.00 0.00 0.00 60 1013.9
20260905155449 74 197 0.0 0.0 0.00 0.00 0.00 60 1013.9
20260905155420 74 197 0.0 0.0 0.00 0.00 0.00 61 1013.9
20260905155413 75 192 1.0 3.0 0.00 0.00 0.00 60 1014.9
20260905155401 75 207 0.0 0.0 0.00 0.00 0.00 61 1014.1
20260905155349 74 197 0.0 0.0 0.00 0.00 0.00 61 1013.9
20260905155328 74 207 0.0 0.0 0.00 0.00 0.00 63 1014.1
20260905155324 75 197 0.0 0.0 0.00 0.00 0.00 60 1013.9
20260905155310 76 197 0.0 0.0 0.00 0.00 0.00 59 1013.9
20260905155259 76 197 0.0 0.0 0.00 0.00 0.00 58 1013.9
20260905155122 76 197 0.0 2.0 0.00 0.00 0.00 60 1013.9
20260905155050 76 207 0.0 0.0 0.00 0.00 0.00 59 1014.1
20260905155040 76 207 0.0 0.0 0.00 0.00 0.00 60 1014.1
20260905155031 76 207 0.0 0.0 0.00 0.00 0.00 59 1014.1
20260905154911 75 150 0.0 2.0 0.00 0.00 0.00 62 1014.8
20260905154840 75 207 0.0 0.0 0.00 0.00 0.00 61 1014.1
20260905154832 75 207 0.0 0.0 0.00 0.00 0.00 61 1014.1
20260905154649 74 207 0.0 0.0 0.00 0.00 0.00 64 1014.1
20260905154630 73 207 0.0 0.0 0.00 0.00 0.00 63 1014.1
20260905154619 73 207 0.0 0.0 0.00 0.00 0.00 65 1014.1
20260905154520 73 207 0.0 0.0 0.00 0.00 0.00 64 1014.1
20260905154504 73 218 0.0 0.0 0.00 0.00 0.00 63 1014.0
20260905154421 73 207 0.0 0.0 0.00 0.00 0.00 64 1014.1
20260905154407 73 204 1.0 2.0 0.00 0.00 0.00 64 1015.0
20260905154349 73 207 0.0 0.0 0.00 0.00 0.00 63 1014.1
20260905154335 75 218 0.0 0.0 0.00 0.00 0.00 62 1014.0
20260905154331 73 207 0.0 0.0 0.00 0.00 0.00 64 1014.1
20260905154322 73 207 0.0 0.0 0.00 0.00 0.00 64 1014.1
20260905154310 73 207 0.0 0.0 0.00 0.00 0.00 63 1014.1
20260905154300 73 207 0.0 0.0 0.00 0.00 0.00 63 1014.1
20260905154138 73 218 0.0 0.0 0.00 0.00 0.00 62 1014.0
20260905153920 73 218 0.0 0.0 0.00 0.00 0.00 64 1014.0
20260905153903 73 187 0.0 4.0 0.00 0.00 0.00 64 1015.0
20260905153840 73 218 0.0 0.0 0.00 0.00 0.00 64 1014.0
20260905153830 74 218 0.0 0.0 0.00 0.00 0.00 63 1014.0
20260905153649 75 218 0.0 0.0 0.00 0.00 0.00 63 1014.0
20260905153622 74 218 0.0 0.0 0.00 0.00 0.00 64 1014.0
20260905153550 74 218 0.0 0.0 0.00 0.00 0.00 64 1014.0
20260905153524 75 202 0.0 0.0 0.00 0.00 0.00 61 1014.0
20260905153520 74 218 0.0 0.0 0.00 0.00 0.00 63 1014.0
20260905153449 74 218 0.0 0.0 0.00 0.00 0.00 63 1014.0
20260905153422 74 218 0.0 0.0 0.00 0.00 0.00 62 1014.0
20260905153411 76 202 0.0 0.0 0.00 0.00 0.00 60 1014.0
20260905153359 74 34 0.0 0.0 0.00 0.00 0.00 63 1014.9
20260905153351 74 218 0.0 0.0 0.00 0.00 0.00 62 1014.0
20260905153320 74 218 0.0 0.0 0.00 0.00 0.00 63 1014.0
20260905153249 73 218 0.0 0.0 0.00 0.00 0.00 64 1014.0
20260905153222 73 218 0.0 0.0 0.00 0.00 0.00 63 1014.0
20260905153210 73 218 0.0 0.0 0.00 0.00 0.00 63 1014.0
20260905153200 74 218 0.0 0.0 0.00 0.00 0.00 63 1014.0
20260905153148 74 202 0.0 0.0 0.00 0.00 0.00 62 1014.0
20260905152858 75 117 0.0 1.0 0.00 0.00 0.00 60 1014.8
20260905152824 75 195 0.0 0.0 0.00 0.00 0.00 61 1013.8
20260905152820 75 202 0.0 0.0 0.00 0.00 0.00 60 1014.0
20260905152750 75 202 0.0 0.0 0.00 0.00 0.00 60 1014.0
20260905152720 75 202 0.0 0.0 0.00 0.00 0.00 61 1014.0
20260905152650 74 202 0.0 0.0 0.00 0.00 0.00 61 1014.0
20260905152626 72 202 0.0 0.0 0.00 0.00 0.00 64 1014.0
20260905152619 74 202 0.0 0.0 0.00 0.00 0.00 61 1014.0
20260905152521 74 202 0.0 0.0 0.00 0.00 0.00 61 1014.0
20260905152510 74 195 0.0 0.0 0.00 0.00 0.00 61 1013.8
20260905152505 74 195 0.0 0.0 0.00 0.00 0.00 61 1013.8
20260905152447 74 202 0.0 0.0 0.00 0.00 0.00 62 1014.0
20260905152437 74 202 0.0 0.0 0.00 0.00 0.00 63 1014.0
20260905152357 73 87 1.0 2.0 0.00 0.00 0.00 64 1014.8
20260905152320 73 202 0.0 0.0 0.00 0.00 0.00 63 1014.0
20260905152309 72 202 0.0 0.0 0.00 0.00 0.00 65 1014.0
20260905152258 72 202 0.0 0.0 0.00 0.00 0.00 66 1014.0
20260905152248 72 202 0.0 0.0 0.00 0.00 0.00 65 1014.0
20260905152121 73 195 0.0 0.0 0.00 0.00 0.00 63 1013.8
20260905152110 74 195 0.0 0.0 0.00 0.00 0.00 62 1013.8
20260905151852 75 119 0.0 1.0 0.00 0.00 0.00 60 1014.9
20260905151825 72 195 0.0 0.0 0.00 0.00 0.00 65 1013.8
20260905151820 74 195 0.0 0.0 0.00 0.00 0.00 61 1013.8
20260905151756 72 195 0.0 0.0 0.00 0.00 0.00 65 1013.8
20260905151752 75 195 0.0 0.0 0.00 0.00 0.00 60 1013.8
20260905151742 75 195 0.0 0.0 0.00 0.00 0.00 59 1013.8
20260905151732 75 195 0.0 0.0 0.00 0.00 0.00 60 1013.8
20260905151550 75 195 0.0 0.0 0.00 0.00 0.00 62 1013.8
20260905151534 74 44 0.0 0.0 0.00 0.00 0.00 50 1013.8
20260905151522 74 195 0.0 0.0 0.00 0.00 0.00 62 1013.8
20260905151510 76 44 0.0 0.0 0.00 0.00 0.00 57 1013.8
20260905151506 74 195 0.0 0.0 0.00 0.00 0.00 62 1013.8
20260905151456 74 195 0.0 0.0 0.00 0.00 0.00 63 1013.8
20260905151446 73 195 0.0 0.0 0.00 0.00 0.00 64 1013.8
20260905151349 72 160 0.0 0.0 0.00 0.00 0.00 65 1014.9
20260905151150 72 195 0.0 0.0 0.00 0.00 0.00 64 1013.8
20260905151130 75 44 0.0 0.0 0.00 0.00 0.00 53 1013.8
20260905151126 72 195 0.0 0.0 0.00 0.00 0.00 64 1013.8
20260905151115 72 44 0.0 0.0 0.00 0.00 0.00 64 1013.8
20260905151105 73 44 0.0 0.0 0.00 0.00 0.00 61 1013.8
20260905150951 73 44 0.0 0.0 0.00 0.00 0.00 61 1013.8
20260905150941 75 44 0.0 0.0 0.00 0.00 0.00 57 1013.8
20260905150930 75 44 0.0 0.0 0.00 0.00 0.00 57 1013.8
20260905150848 75 166 0.0 0.0 0.00 0.00 0.00 57 1014.7
20260905150750 76 44 0.0 0.0 0.00 0.00 0.00 57 1013.8
20260905150739 73 44 0.0 0.0 0.00 0.00 0.00 51 1013.8
20260905150720 76 44 0.0 0.0 0.00 0.00 0.00 57 1013.8
20260905150705 71 53 0.0 0.0 0.00 0.00 0.00 51 1013.7
20260905150659 76 44 0.0 0.0 0.00 0.00 0.00 56 1013.8
20260905150649 76 44 0.0 0.0 0.00 0.00 0.00 52 1013.8
20260905150529 75 44 0.0 0.0 0.00 0.00 0.00 53 1013.8
20260905150519 74 44 0.0 0.0 0.00 0.00 0.00 51 1013.8
20260905150342 74 73 0.0 1.0 0.00 0.00 0.00 50 1014.6
20260905150220 73 44 0.0 0.0 0.00 0.00 0.00 51 1013.8
20260905150153 73 44 0.0 0.0 0.00 0.00 0.00 51 1013.8
20260905150143 71 53 0.0 0.0 0.00 0.00 0.00 50 1013.7
20260905150133 72 44 0.0 0.0 0.00 0.00 0.00 50 1013.8
20260905150113 72 53 0.0 0.0 0.00 0.00 0.00 51 1013.7
20260905145920 71 53 0.0 0.0 0.00 0.00 0.00 50 1013.7
20260905145850 71 53 0.0 0.0 0.00 0.00 0.00 51 1013.7
20260905145840 71 97 0.0 2.0 0.00 0.00 0.00 51 1014.6
20260905145820 71 53 0.0 0.0 0.00 0.00 0.00 50 1013.7
20260905145800 71 53 0.0 0.0 0.00 0.00 0.00 51 1013.7
20260905145628 70 53 0.0 0.0 0.00 0.00 0.00 53 1013.7
20260905145623 71 53 0.0 0.0 0.00 0.00 0.00 51 1013.7
20260905145549 71 53 0.0 0.0 0.00 0.00 0.00 50 1013.7
20260905145524 71 53 0.0 0.0 0.00 0.00 0.00 51 1013.7
20260905145421 71 53 0.0 0.0 0.00 0.00 0.00 52 1013.7
20260905145350 71 53 0.0 0.0 0.00 0.00 0.00 52 1013.7
20260905145340 70 64 0.0 1.0 0.00 0.00 0.00 52 1014.6
20260905145320 70 53 0.0 0.0 0.00 0.00 0.00 53 1013.7
20260905145308 68 108 1.0 0.0 0.00 0.00 0.00 55 1013.6
20260905145259 70 53 0.0 0.0 0.00 0.00 0.00 53 1013.7
20260905145136 65 108 1.0 0.0 0.00 0.00 0.00 58 1013.6
20260905145124 69 53 0.0 1.0 0.00 0.00 0.00 54 1013.7
20260905145022 69 108 1.0 0.0 0.00 0.00 0.00 55 1013.6
20260905145004 66 108 1.0 0.0 0.00 0.00 0.00 57 1013.6
20260905144958 66 108 1.0 0.0 0.00 0.00 0.00 57 1013.6
20260905144952 69 108 1.0 0.0 0.00 0.00 0.00 54 1013.6
20260905144943 69 108 1.0 0.0 0.00 0.00 0.00 55 1013.6
20260905144933 69 108 1.0 0.0 0.00 0.00 0.00 55 1013.6
20260905144833 68 83 1.0 2.0 0.00 0.00 0.00 55 1014.7
20260905144807 68 108 1.0 0.0 0.00 0.00 0.00 55 1013.6
20260905144636 67 108 1.0 0.0 0.00 0.00 0.00 55 1013.6
20260905144626 67 108 1.0 0.0 0.00 0.00 0.00 56 1013.6
20260905144616 67 108 1.0 0.0 0.00 0.00 0.00 57 1013.6
20260905144323 66 75 2.0 2.0 0.00 0.00 0.00 57 1014.5
20260905144320 65 108 1.0 0.0 0.00 0.00 0.00 57 1013.6
20260905144310 65 108 1.0 0.0 0.00 0.00 0.00 57 1013.6
20260905144300 65 108 1.0 0.0 0.00 0.00 0.00 58 1013.6
20260905144122 65 108 1.0 3.0 0.00 0.00 0.00 58 1013.6
20260905144027 65 82 1.0 0.0 0.00 0.00 0.00 58 1013.7
20260905143931 64 82 1.0 0.0 0.00 0.00 0.00 59 1013.7
20260905143921 65 82 1.0 0.0 0.00 0.00 0.00 58 1013.7
20260905143822 65 81 1.0 3.0 0.00 0.00 0.00 58 1014.5
20260905143820 65 82 1.0 0.0 0.00 0.00 0.00 58 1013.7
20260905143721 65 82 1.0 0.0 0.00 0.00 0.00 58 1013.7
20260905143650 65 82 1.0 0.0 0.00 0.00 0.00 58 1013.7
20260905143624 62 93 1.0 0.0 0.00 0.00 0.00 63 1013.6
20260905143620 64 82 1.0 0.0 0.00 0.00 0.00 58 1013.7
20260905143610 64 82 1.0 0.0 0.00 0.00 0.00 58 1013.7
20260905143600 64 82 1.0 0.0 0.00 0.00 0.00 59 1013.7
20260905143419 64 82 1.0 0.0 0.00 0.00 0.00 60 1013.7
20260905143320 63 82 1.0 0.0 0.00 0.00 0.00 61 1013.7
20260905143317 63 89 1.0 2.0 0.00 0.00 0.00 61 1014.4
20260905143220 63 82 1.0 0.0 0.00 0.00 0.00 61 1013.7
20260905143202 62 42 1.0 0.0 0.00 0.00 0.00 62 1013.5
20260905143154 63 82 1.0 0.0 0.00 0.00 0.00 62 1013.7
20260905143144 62 82 1.0 2.0 0.00 0.00 0.00 62 1013.7
20260905143133 62 93 1.0 0.0 0.00 0.00 0.00 62 1013.6
20260905142952 62 93 1.0 0.0 0.00 0.00 0.00 62 1013.6
20260905142920 62 93 1.0 0.0 0.00 0.00 0.00 62 1013.6
20260905142858 62 93 1.0 0.0 0.00 0.00 0.00 62 1013.6
20260905142853 62 93 1.0 0.0 0.00 0.00 0.00 63 1013.6
20260905142843 62 93 1.0 0.0 0.00 0.00 0.00 62 1013.6
20260905142815 62 73 2.0 2.0 0.00 0.00 0.00 62 1014.6
20260905142721 62 93 1.0 0.0 0.00 0.00 0.00 62 1013.6
20260905142707 62 93 1.0 2.0 0.00 0.00 0.00 62 1013.6
20260905142700 62 93 1.0 0.0 0.00 0.00 0.00 62 1013.6
20260905142652 62 93 1.0 0.0 0.00 0.00 0.00 62 1013.6
20260905142520 62 93 1.0 0.0 0.00 0.00 0.00 62 1013.6
20260905142501 61 42 1.0 0.0 0.00 0.00 0.00 65 1013.5
20260905142457 61 42 1.0 0.0 0.00 0.00 0.00 65 1013.5
20260905142448 62 93 1.0 0.0 0.00 0.00 0.00 62 1013.6
20260905142320 62 93 1.0 0.0 0.00 0.00 0.00 62 1013.6
20260905142312 62 93 1.0 0.0 0.00 0.00 0.00 62 1013.6
20260905142309 62 70 0.0 2.0 0.00 0.00 0.00 62 1014.6
20260905142023 62 42 1.0 0.0 0.00 0.00 0.00 63 1013.5
20260905141922 62 42 1.0 0.0 0.00 0.00 0.00 63 1013.5
20260905141911 60 42 1.0 0.0 0.00 0.00 0.00 65 1013.5
20260905141907 60 42 1.0 0.0 0.00 0.00 0.00 65 1013.5
20260905141903 62 42 1.0 0.0 0.00 0.00 0.00 64 1013.5
20260905141853 61 42 1.0 0.0 0.00 0.00 0.00 64 1013.5
20260905141806 61 100 2.0 2.0 0.00 0.00 0.00 64 1014.4
20260905141520 60 42 1.0 0.0 0.00 0.00 0.00 65 1013.5
20260905141450 60 42 1.0 0.0 0.00 0.00 0.00 65 1013.5
20260905141301 60 45 0.0 2.0 0.00 0.00 0.00 65 1014.4
20260905141149 60 42 1.0 0.0 0.00 0.00 0.00 65 1013.5
20260905141123 60 42 1.0 2.0 0.00 0.00 0.00 65 1013.5
20260905141022 60 64 3.0 0.0 0.00 0.00 0.00 65 1013.2
20260905140920 60 64 3.0 0.0 0.00 0.00 0.00 65 1013.2
20260905140820 60 64 3.0 0.0 0.00 0.00 0.00 64 1013.2
20260905140756 60 9 2.0 3.0 0.00 0.00 0.00 64 1014.4
20260905140720 60 64 3.0 0.0 0.00 0.00 0.00 64 1013.2
20260905140620 60 64 3.0 0.0 0.00 0.00 0.00 64 1013.2
20260905140549 60 64 3.0 0.0 0.00 0.00 0.00 64 1013.2
20260905140519 60 64 3.0 0.0 0.00 0.00 0.00 64 1013.2
20260905140422 60 64 3.0 0.0 0.00 0.00 0.00 64 1013.2
20260905140329 60 46 3.0 0.0 0.00 0.00 0.00 63 1013.3
20260905140322 60 64 3.0 0.0 0.00 0.00 0.00 64 1013.2
20260905140256 60 67 3.0 4.0 0.00 0.00 0.00 64 1014.3
20260905140220 60 64 3.0 0.0 0.00 0.00 0.00 64 1013.2
20260905140149 60 64 3.0 0.0 0.00 0.00 0.00 64 1013.2
20260905140122 60 64 3.0 3.0 0.00 0.00 0.00 64 1013.2
20260905140107 60 46 3.0 0.0 0.00 0.00 0.00 63 1013.3
20260905140021 60 46 3.0 0.0 0.00 0.00 0.00 64 1013.3
20260905140009 60 46 3.0 0.0 0.00 0.00 0.00 64 1013.3
20260905135959 60 46 3.0 0.0 0.00 0.00 0.00 63 1013.3
20260905135820 60 46 3.0 0.0 0.00 0.00 0.00 64 1013.3
20260905135755 60 47 3.0 4.0 0.00 0.00 0.00 63 1014.0
20260905135734 60 46 3.0 0.0 0.00 0.00 0.00 63 1013.3
20260905135520 60 46 3.0 0.0 0.00 0.00 0.00 63 1013.3
20260905135421 60 46 3.0 0.0 0.00 0.00 0.00 63 1013.3
20260905135349 60 46 3.0 0.0 0.00 0.00 0.00 63 1013.3
20260905135326 60 46 3.0 0.0 0.00 0.00 0.00 62 1013.3
20260905135251 59 39 2.0 5.0 0.00 0.00 0.00 62 1014.0
20260905135249 60 46 3.0 0.0 0.00 0.00 0.00 62 1013.3
20260905135221 59 46 3.0 0.0 0.00 0.00 0.00 62 1013.3
20260905135150 59 46 3.0 0.0 0.00 0.00 0.00 62 1013.3
20260905135122 59 46 3.0 4.0 0.00 0.00 0.00 62 1013.3
20260905135026 59 3 1.0 0.0 0.00 0.00 0.00 63 1013.1
20260905134920 59 3 1.0 0.0 0.00 0.00 0.00 63 1013.1
20260905134833 59 3 1.0 0.0 0.00 0.00 0.00 62 1013.1
20260905134751 59 36 2.0 4.0 0.00 0.00 0.00 62 1014.0
20260905134724 59 3 1.0 0.0 0.00 0.00 0.00 62 1013.1
20260905134720 59 3 1.0 0.0 0.00 0.00 0.00 62 1013.1
20260905134634 59 3 1.0 0.0 0.00 0.00 0.00 62 1013.1
20260905134520 59 3 1.0 0.0 0.00 0.00 0.00 62 1013.1
20260905134419 59 3 1.0 0.0 0.00 0.00 0.00 62 1013.1
20260905134401 59 3 1.0 0.0 0.00 0.00 0.00 62 1013.1
20260905134244 59 12 2.0 3.0 0.00 0.00 0.00 62 1014.0
20260905134220 59 3 1.0 0.0 0.00 0.00 0.00 62 1013.1
20260905134151 59 3 1.0 0.0 0.00 0.00 0.00 62 1013.1
20260905134122 59 3 1.0 1.0 0.00 0.00 0.00 62 1013.1
20260905134038 59 153 1.0 0.0 0.00 0.00 0.00 63 1012.8
20260905134032 59 153 1.0 0.0 0.00 0.00 0.00 62 1012.8
20260905133920 59 153 1.0 0.0 0.00 0.00 0.00 62 1012.8
20260905133850 59 153 1.0 0.0 0.00 0.00 0.00 62 1012.8
20260905133820 59 153 1.0 0.0 0.00 0.00 0.00 62 1012.8
20260905133739 59 22 0.0 2.0 0.00 0.00 0.00 62 1014.1
20260905133719 59 153 1.0 0.0 0.00 0.00 0.00 62 1012.8
20260905133700 59 153 1.0 0.0 0.00 0.00 0.00 63 1012.8
20260905133520 59 153 1.0 0.0 0.00 0.00 0.00 63 1012.8
20260905133421 59 153 1.0 0.0 0.00 0.00 0.00 63 1012.8
20260905133321 59 153 1.0 0.0 0.00 0.00 0.00 62 1012.8
20260905133253 59 153 1.0 0.0 0.00 0.00 0.00 62 1012.8
20260905133234 59 120 2.0 2.0 0.00 0.00 0.00 62 1014.0
20260905133220 59 153 1.0 0.0 0.00 0.00 0.00 62 1012.8
20260905133150 59 153 1.0 0.0 0.00 0.00 0.00 62 1012.8
20260905133122 59 153 1.0 2.0 0.00 0.00 0.00 62 1012.8
20260905133055 59 42 2.0 0.0 0.00 0.00 0.00 61 1012.9
20260905133021 59 42 2.0 0.0 0.00 0.00 0.00 62 1012.9
20260905132920 59 42 2.0 0.0 0.00 0.00 0.00 61 1012.9
20260905132849 59 42 2.0 0.0 0.00 0.00 0.00 61 1012.9
20260905132819 59 42 2.0 0.0 0.00 0.00 0.00 61 1012.9
20260905132734 59 42 2.0 0.0 0.00 0.00 0.00 61 1012.9
20260905132521 59 42 2.0 0.0 0.00 0.00 0.00 61 1012.9
20260905132449 59 42 2.0 0.0 0.00 0.00 0.00 61 1012.9
20260905132429 59 150 0.0 0.0 0.00 0.00 0.00 60 1012.8
20260905132422 59 42 2.0 0.0 0.00 0.00 0.00 60 1012.9
20260905132320 59 42 2.0 0.0 0.00 0.00 0.00 60 1012.9
20260905132305 59 150 0.0 0.0 0.00 0.00 0.00 61 1012.8
20260905132249 59 42 2.0 0.0 0.00 0.00 0.00 60 1012.9
20260905132229 59 62 2.0 2.0 0.00 0.00 0.00 61 1013.8
20260905132220 59 42 2.0 0.0 0.00 0.00 0.00 61 1012.9
20260905132149 59 42 2.0 0.0 0.00 0.00 0.00 61 1012.9
20260905132137 59 42 2.0 2.0 0.00 0.00 0.00 60 1012.9
20260905132054 59 150 0.0 0.0 0.00 0.00 0.00 61 1012.8
20260905132045 59 150 0.0 0.0 0.00 0.00 0.00 61 1012.8
20260905131758 59 150 0.0 0.0 0.00 0.00 0.00 62 1012.8
20260905131748 59 150 0.0 0.0 0.00 0.00 0.00 61 1012.8
20260905131724 59 66 0.0 3.0 0.00 0.00 0.00 62 1013.7
20260905131719 59 150 0.0 0.0 0.00 0.00 0.00 62 1012.8
20260905131648 59 150 0.0 0.0 0.00 0.00 0.00 62 1012.8
20260905131620 59 150 0.0 0.0 0.00 0.00 0.00 63 1012.8
20260905131548 59 150 0.0 0.0 0.00 0.00 0.00 62 1012.8
20260905131522 59 150 0.0 0.0 0.00 0.00 0.00 63 1012.8
20260905131440 59 33 2.0 0.0 0.00 0.00 0.00 62 1012.7
20260905131435 59 150 0.0 0.0 0.00 0.00 0.00 62 1012.8
20260905131249 59 150 0.0 0.0 0.00 0.00 0.00 62 1012.8
20260905131223 59 150 0.0 0.0 0.00 0.00 0.00 63 1012.8
20260905131220 59 85 1.0 2.0 0.00 0.00 0.00 63 1013.8
20260905131148 59 150 0.0 0.0 0.00 0.00 0.00 63 1012.8
20260905131120 59 150 0.0 0.0 0.00 0.00 0.00 62 1012.8
20260905131102 59 33 2.0 0.0 0.00 0.00 0.00 62 1012.7
20260905131024 59 33 2.0 0.0 0.00 0.00 0.00 62 1012.7
20260905130959 59 33 2.0 0.0 0.00 0.00 0.00 62 1012.7
20260905130832 59 33 2.0 0.0 0.00 0.00 0.00 63 1012.7
20260905130749 59 33 2.0 0.0 0.00 0.00 0.00 63 1012.7
20260905130732 59 33 2.0 0.0 0.00 0.00 0.00 64 1012.7
20260905130719 59 45 2.0 2.0 0.00 0.00 0.00 65 1014.0
20260905130700 58 33 2.0 0.0 0.00 0.00 0.00 70 1012.7
20260905130649 59 33 2.0 0.0 0.00 0.00 0.00 64 1012.7
20260905130621 59 33 2.0 0.0 0.00 0.00 0.00 65 1012.7
20260905130601 59 33 2.0 0.0 0.00 0.00 0.00 66 1012.7
20260905130515 58 33 2.0 0.0 0.00 0.00 0.00 66 1012.7
20260905130448 58 33 2.0 0.0 0.00 0.00 0.00 66 1012.7
20260905130419 58 33 2.0 0.0 0.00 0.00 0.00 67 1012.7
20260905130402 58 33 2.0 0.0 0.00 0.00 0.00 68 1012.7
20260905130339 58 33 2.0 0.0 0.00 0.00 0.00 69 1012.7
20260905130329 58 33 2.0 0.0 0.00 0.00 0.00 69 1012.7
20260905130214 58 33 1.0 2.0 0.00 0.00 0.00 70 1013.7
20260905130201 58 33 2.0 0.0 0.00 0.00 0.00 70 1012.7
20260905130121 58 33 2.0 2.0 0.00 0.00 0.00 70 1012.7
20260905130035 58 45 2.0 0.0 0.00 0.00 0.00 74 1012.9
20260905130021 58 45 2.0 0.0 0.00 0.00 0.00 71 1012.9
20260905125920 58 45 2.0 0.0 0.00 0.00 0.00 71 1012.9
20260905125819 58 45 2.0 0.0 0.00 0.00 0.00 72 1012.9
20260905125720 58 45 2.0 0.0 0.00 0.00 0.00 73 1012.9
20260905125709 58 64 0.0 2.0 0.00 0.00 0.00 74 1013.8
20260905125701 58 45 2.0 0.0 0.00 0.00 0.00 74 1012.9
20260905125520 58 45 2.0 0.0 0.00 0.00 0.00 74 1012.9
20260905125419 58 45 2.0 0.0 0.00 0.00 0.00 74 1012.9
20260905125320 58 45 2.0 0.0 0.00 0.00 0.00 75 1012.9
20260905125227 58 87 1.0 0.0 0.00 0.00 0.00 78 1012.8
20260905125221 58 45 2.0 0.0 0.00 0.00 0.00 75 1012.9
20260905125203 58 45 2.0 2.0 0.00 0.00 0.00 76 1013.6
20260905125149 58 45 2.0 0.0 0.00 0.00 0.00 75 1012.9
20260905125120 58 45 2.0 2.0 0.00 0.00 0.00 76 1012.9
20260905125022 58 87 1.0 0.0 0.00 0.00 0.00 76 1012.8
20260905124921 58 87 1.0 0.0 0.00 0.00 0.00 77 1012.8
20260905124911 58 87 1.0 0.0 0.00 0.00 0.00 77 1012.8
20260905124901 58 87 1.0 0.0 0.00 0.00 0.00 78 1012.8
20260905124726 58 87 1.0 0.0 0.00 0.00 0.00 78 1012.8
20260905124719 58 87 1.0 0.0 0.00 0.00 0.00 78 1012.8
20260905124659 58 78 2.0 2.0 0.00 0.00 0.00 78 1013.9
20260905124620 58 87 1.0 0.0 0.00 0.00 0.00 78 1012.8
20260905124520 58 87 1.0 0.0 0.00 0.00 0.00 78 1012.8
20260905124503 58 89 2.0 0.0 0.00 0.00 0.00 77 1012.9
20260905124419 58 87 1.0 0.0 0.00 0.00 0.00 78 1012.8
20260905124358 58 87 1.0 0.0 0.00 0.00 0.00 78 1012.8
20260905124226 59 89 2.0 0.0 0.00 0.00 0.00 77 1012.9
20260905124218 58 87 1.0 0.0 0.00 0.00 0.00 78 1012.8
20260905124202 59 89 2.0 0.0 0.00 0.00 0.00 76 1012.9
20260905124158 58 87 1.0 0.0 0.00 0.00 0.00 78 1012.8
20260905124155 58 86 1.0 2.0 0.00 0.00 0.00 78 1013.7
20260905124149 58 87 1.0 2.0 0.00 0.00 0.00 78 1012.8
20260905124137 58 89 2.0 0.0 0.00 0.00 0.00 78 1012.9
20260905123922 58 89 2.0 0.0 0.00 0.00 0.00 77 1012.9
20260905123841 58 89 2.0 0.0 0.00 0.00 0.00 77 1012.9
20260905123832 58 89 2.0 0.0 0.00 0.00 0.00 77 1012.9
20260905123700 59 89 2.0 0.0 0.00 0.00 0.00 77 1012.9
20260905123651 59 105 1.0 2.0 0.00 0.00 0.00 77 1013.7
20260905123519 59 89 2.0 0.0 0.00 0.00 0.00 76 1012.9
20260905123420 59 89 2.0 0.0 0.00 0.00 0.00 76 1012.9
20260905123320 59 89 2.0 0.0 0.00 0.00 0.00 76 1012.9
20260905123221 59 89 2.0 0.0 0.00 0.00 0.00 76 1012.9
20260905123149 60 89 2.0 0.0 0.00 0.00 0.00 76 1012.9
20260905123120 60 89 2.0 3.0 0.00 0.00 0.00 76 1012.9
20260905123036 60 31 3.0 0.0 0.00 0.00 0.00 76 1012.8
20260905123024 60 31 3.0 0.0 0.00 0.00 0.00 76 1012.8
20260905122926 60 31 3.0 0.0 0.00 0.00 0.00 76 1012.8
20260905122922 60 31 3.0 0.0 0.00 0.00 0.00 76 1012.8
20260905122819 60 31 3.0 0.0 0.00 0.00 0.00 76 1012.8
20260905122759 60 31 3.0 0.0 0.00 0.00 0.00 77 1012.8
20260905122754 60 31 3.0 3.0 0.00 0.00 0.00 77 1012.8
20260905122737 60 44 0.0 0.0 0.00 0.00 0.00 77 1012.7
20260905122726 60 44 0.0 0.0 0.00 0.00 0.00 78 1012.7
20260905122721 60 31 3.0 0.0 0.00 0.00 0.00 76 1012.8
20260905122707 60 31 3.0 0.0 0.00 0.00 0.00 76 1012.8
20260905122647 60 61 1.0 2.0 0.00 0.00 0.00 76 1013.8
20260905122425 60 31 3.0 0.0 0.00 0.00 0.00 76 1012.8
20260905122414 60 31 3.0 0.0 0.00 0.00 0.00 76 1012.8
20260905122142 60 43 2.0 3.0 0.00 0.00 0.00 77 1013.7
20260905121949 60 44 0.0 0.0 0.00 0.00 0.00 77 1012.7
20260905121930 60 44 0.0 0.0 0.00 0.00 0.00 78 1012.7
20260905121920 59 44 0.0 0.0 0.00 0.00 0.00 77 1012.7
20260905121848 60 44 0.0 0.0 0.00 0.00 0.00 77 1012.7
20260905121819 60 44 0.0 0.0 0.00 0.00 0.00 78 1012.7
20260905121741 60 44 0.0 0.0 0.00 0.00 0.00 78 1012.7
20260905121715 60 44 0.0 0.0 0.00 0.00 0.00 78 1012.7
20260905121637 60 160 0.0 2.0 0.00 0.00 0.00 78 1013.5
20260905121419 60 44 0.0 0.0 0.00 0.00 0.00 78 1012.7
20260905121319 60 44 0.0 0.0 0.00 0.00 0.00 78 1012.7
20260905121231 59 54 1.0 0.0 0.00 0.00 0.00 78 1012.8
20260905121220 60 44 0.0 0.0 0.00 0.00 0.00 78 1012.7
20260905121149 60 44 0.0 0.0 0.00 0.00 0.00 78 1012.7
20260905121132 60 41 1.0 3.0 0.00 0.00 0.00 78 1013.7
20260905121120 60 44 0.0 1.0 0.00 0.00 0.00 78 1012.7
20260905121100 60 32 1.0 0.0 0.00 0.00 0.00 78 1012.8
20260905121024 60 54 1.0 0.0 0.00 0.00 0.00 78 1012.8
20260905120950 60 54 1.0 0.0 0.00 0.00 0.00 78 1012.8
20260905120932 59 54 1.0 0.0 0.00 0.00 0.00 78 1012.8
20260905120919 60 54 1.0 0.0 0.00 0.00 0.00 78 1012.8
20260905120857 60 54 1.0 0.0 0.00 0.00 0.00 78 1012.8
20260905120849 60 54 1.0 0.0 0.00 0.00 0.00 78 1012.8
20260905120733 59 54 1.0 0.0 0.00 0.00 0.00 78 1012.8
20260905120722 59 54 1.0 0.0 0.00 0.00 0.00 78 1012.8
20260905120631 59 359 2.0 4.0 0.00 0.00 0.00 78 1013.7
20260905120608 59 54 1.0 0.0 0.00 0.00 0.00 78 1012.8
20260905120558 60 54 1.0 0.0 0.00 0.00 0.00 78 1012.8
20260905120419 59 54 1.0 0.0 0.00 0.00 0.00 78 1012.8
20260905120402 60 32 1.0 0.0 0.00 0.00 0.00 78 1012.8
20260905120355 60 32 1.0 0.0 0.00 0.00 0.00 78 1012.8
20260905120334 59 54 1.0 0.0 0.00 0.00 0.00 78 1012.8
20260905120209 60 32 1.0 0.0 0.00 0.00 0.00 78 1012.8
20260905120205 59 54 1.0 0.0 0.00 0.00 0.00 78 1012.8
20260905120155 60 54 1.0 2.0 0.00 0.00 0.00 78 1012.8
20260905120128 60 32 1.0 0.0 0.00 0.00 0.00 78 1012.8
20260905120126 60 40 0.0 3.0 0.00 0.00 0.00 78 1013.8
20260905115726 60 32 1.0 0.0 0.00 0.00 0.00 78 1012.8
20260905115719 60 32 1.0 0.0 0.00 0.00 0.00 78 1012.8
20260905115634 60 32 1.0 0.0 0.00 0.00 0.00 78 1012.8
20260905115626 60 77 1.0 3.0 0.00 0.00 0.00 78 1013.7
20260905115419 60 32 1.0 0.0 0.00 0.00 0.00 78 1012.8
20260905115359 60 32 1.0 0.0 0.00 0.00 0.00 78 1012.8
20260905115228 60 10 1.0 0.0 0.00 0.00 0.00 79 1012.8
20260905115223 60 32 1.0 0.0 0.00 0.00 0.00 78 1012.8
20260905115149 60 32 1.0 0.0 0.00 0.00 0.00 79 1012.8
20260905115120 60 32 1.0 2.0 0.00 0.00 0.00 79 1012.8
20260905115020 60 10 1.0 0.0 0.00 0.00 0.00 79 1012.8
20260905114919 60 10 1.0 0.0 0.00 0.00 0.00 79 1012.8
20260905114858 60 10 1.0 0.0 0.00 0.00 0.00 79 1012.8
20260905114720 60 10 1.0 0.0 0.00 0.00 0.00 79 1012.8
20260905114650 60 10 1.0 0.0 0.00 0.00 0.00 79 1012.8
20260905114620 60 55 1.0 3.0 0.00 0.00 0.00 79 1013.9
20260905114519 60 10 1.0 0.0 0.00 0.00 0.00 79 1012.8
20260905114420 60 10 1.0 0.0 0.00 0.00 0.00 79 1012.8
20260905114321 60 10 1.0 0.0 0.00 0.00 0.00 79 1012.8
20260905114223 60 10 1.0 0.0 0.00 0.00 0.00 79 1012.8
20260905114149 60 10 1.0 0.0 0.00 0.00 0.00 79 1012.8
20260905114120 60 10 1.0 2.0 0.00 0.00 0.00 79 1012.8
20260905114033 60 340 0.0 0.0 0.00 0.00 0.00 79 1012.9
20260905113920 60 340 0.0 0.0 0.00 0.00 0.00 79 1012.9
20260905113848 60 340 0.0 0.0 0.00 0.00 0.00 79 1012.9
20260905113819 60 340 0.0 0.0 0.00 0.00 0.00 78 1012.9
20260905113720 60 340 0.0 0.0 0.00 0.00 0.00 78 1012.9
20260905113620 60 340 0.0 0.0 0.00 0.00 0.00 78 1012.9
20260905113614 60 30 2.0 3.0 0.00 0.00 0.00 78 1013.8
20260905113519 60 340 0.0 0.0 0.00 0.00 0.00 78 1012.9
20260905113502 60 54 2.0 0.0 0.00 0.00 0.00 78 1012.9
20260905113421 60 340 0.0 0.0 0.00 0.00 0.00 78 1012.9
20260905113319 60 340 0.0 0.0 0.00 0.00 0.00 78 1012.9
20260905113220 60 340 0.0 0.0 0.00 0.00 0.00 78 1012.9
20260905113152 60 340 0.0 0.0 0.00 0.00 0.00 78 1012.9
20260905113142 60 54 2.0 0.0 0.00 0.00 0.00 78 1012.9
20260905113138 60 340 0.0 2.0 0.00 0.00 0.00 78 1012.9
20260905113109 60 33 1.0 3.0 0.00 0.00 0.00 78 1013.9
20260905112919 60 54 2.0 0.0 0.00 0.00 0.00 78 1012.9
20260905112835 60 54 2.0 0.0 0.00 0.00 0.00 78 1012.9
20260905112819 60 54 2.0 0.0 0.00 0.00 0.00 78 1012.9
20260905112734 60 54 2.0 0.0 0.00 0.00 0.00 78 1012.9
20260905112604 60 29 4.0 4.0 0.00 0.00 0.00 78 1014.0
20260905112521 60 54 2.0 0.0 0.00 0.00 0.00 78 1012.9
20260905112458 60 54 2.0 0.0 0.00 0.00 0.00 78 1012.9
20260905112318 60 54 2.0 0.0 0.00 0.00 0.00 78 1012.9
20260905112236 60 357 1.0 0.0 0.00 0.00 0.00 78 1012.9
20260905112219 60 54 2.0 0.0 0.00 0.00 0.00 78 1012.9
20260905112149 60 54 2.0 0.0 0.00 0.00 0.00 78 1012.9
20260905112120 60 54 2.0 3.0 0.00 0.00 0.00 78 1012.9
20260905112103 60 357 1.0 0.0 0.00 0.00 0.00 78 1012.9
20260905112059 60 40 2.0 4.0 0.00 0.00 0.00 78 1013.8
20260905112022 60 357 1.0 0.0 0.00 0.00 0.00 78 1012.9
20260905111950 60 357 1.0 0.0 0.00 0.00 0.00 78 1012.9
20260905111928 60 357 1.0 0.0 0.00 0.00 0.00 78 1012.9
20260905111920 60 357 1.0 0.0 0.00 0.00 0.00 78 1012.9
20260905111900 60 357 1.0 0.0 0.00 0.00 0.00 78 1012.9
20260905111738 60 357 1.0 2.0 0.00 0.00 0.00 78 1012.9
20260905111734 60 357 1.0 0.0 0.00 0.00 0.00 78 1012.9
20260905111606 60 34 0.0 0.0 0.00 0.00 0.00 78 1012.8
20260905111559 60 357 1.0 0.0 0.00 0.00 0.00 78 1012.9
20260905111554 60 22 2.0 4.0 0.00 0.00 0.00 78 1013.8
20260905111419 60 357 1.0 0.0 0.00 0.00 0.00 78 1012.9
20260905111332 60 357 1.0 0.0 0.00 0.00 0.00 78 1012.9
20260905111307 60 34 0.0 0.0 0.00 0.00 0.00 78 1012.8
20260905111258 60 357 1.0 0.0 0.00 0.00 0.00 78 1012.9
20260905111249 60 357 1.0 0.0 0.00 0.00 0.00 78 1012.9
20260905111053 60 40 2.0 3.0 0.00 0.00 0.00 78 1014.0
20260905110921 60 34 0.0 0.0 0.00 0.00 0.00 78 1012.8
20260905110908 60 34 0.0 0.0 0.00 0.00 0.00 78 1012.8
20260905110858 60 34 0.0 0.0 0.00 0.00 0.00 78 1012.8
20260905110724 60 34 0.0 0.0 0.00 0.00 0.00 78 1012.8
20260905110719 60 34 0.0 0.0 0.00 0.00 0.00 78 1012.8
20260905110628 60 34 0.0 0.0 0.00 0.00 0.00 78 1012.8
20260905110552 60 27 0.0 2.0 0.00 0.00 0.00 78 1013.7
20260905110531 60 24 1.0 0.0 0.00 0.00 0.00 78 1013.0
20260905110520 60 34 0.0 0.0 0.00 0.00 0.00 78 1012.8
20260905110502 60 34 0.0 0.0 0.00 0.00 0.00 78 1012.8
20260905110209 60 24 1.0 0.0 0.00 0.00 0.00 78 1013.0
20260905110205 60 24 1.0 0.0 0.00 0.00 0.00 78 1013.0
20260905110201 60 34 0.0 0.0 0.00 0.00 0.00 78 1012.8
20260905110138 60 34 0.0 1.0 0.00 0.00 0.00 78 1012.8
20260905110048 60 30 2.0 2.0 0.00 0.00 0.00 78 1013.9
20260905105919 60 24 1.0 0.0 0.00 0.00 0.00 78 1013.0
20260905105855 61 69 1.0 0.0 0.00 0.00 0.00 77 1013.0
20260905105823 60 24 1.0 0.0 0.00 0.00 0.00 78 1013.0
20260905105811 60 24 1.0 0.0 0.00 0.00 0.00 78 1013.0
20260905105548 60 39 1.0 2.0 0.00 0.00 0.00 78 1014.0
20260905105520 60 24 1.0 0.0 0.00 0.00 0.00 78 1013.0
20260905105506 60 43 2.0 0.0 0.00 0.00 0.00 77 1013.0
20260905105421 60 24 1.0 0.0 0.00 0.00 0.00 78 1013.0
20260905105357 60 24 1.0 0.0 0.00 0.00 0.00 78 1013.0
20260905105348 60 24 1.0 0.0 0.00 0.00 0.00 78 1013.0
20260905105219 60 24 1.0 0.0 0.00 0.00 0.00 78 1013.0
20260905105153 60 43 2.0 0.0 0.00 0.00 0.00 77 1013.0
20260905105148 60 24 1.0 0.0 0.00 0.00 0.00 78 1013.0
20260905105138 60 24 1.0 2.0 0.00 0.00 0.00 78 1013.0
20260905105047 60 42 1.0 1.0 0.00 0.00 0.00 77 1014.0
20260905105004 60 43 2.0 0.0 0.00 0.00 0.00 77 1013.0
20260905104939 61 43 2.0 0.0 0.00 0.00 0.00 77 1013.0
20260905104934 61 43 2.0 0.0 0.00 0.00 0.00 77 1013.0
20260905104923 60 43 2.0 0.0 0.00 0.00 0.00 77 1013.0
20260905104910 60 43 2.0 0.0 0.00 0.00 0.00 77 1013.0
20260905104751 60 43 2.0 0.0 0.00 0.00 0.00 77 1013.0
20260905104739 60 43 2.0 0.0 0.00 0.00 0.00 77 1013.0
20260905104543 60 29 2.0 2.0 0.00 0.00 0.00 77 1013.9
20260905104220 61 43 2.0 0.0 0.00 0.00 0.00 77 1013.0
20260905104149 61 43 2.0 0.0 0.00 0.00 0.00 77 1013.0
20260905104122 61 43 2.0 2.0 0.00 0.00 0.00 77 1013.0
20260905104043 61 28 2.0 2.0 0.00 0.00 0.00 77 1013.9
20260905104020 61 69 1.0 0.0 0.00 0.00 0.00 77 1013.0
20260905103940 61 69 1.0 0.0 0.00 0.00 0.00 77 1013.0
20260905103935 61 69 1.0 0.0 0.00 0.00 0.00 77 1013.0
20260905103800 61 69 1.0 0.0 0.00 0.00 0.00 77 1013.0
20260905103722 61 69 1.0 0.0 0.00 0.00 0.00 77 1013.0
20260905103626 61 69 1.0 0.0 0.00 0.00 0.00 77 1013.0
20260905103619 61 69 1.0 0.0 0.00 0.00 0.00 77 1013.0
20260905103604 61 0 1.0 0.0 0.00 0.00 0.00 77 1012.9
20260905103559 61 69 1.0 0.0 0.00 0.00 0.00 78 1013.0
20260905103550 61 69 1.0 0.0 0.00 0.00 0.00 77 1013.0
20260905103538 61 47 2.0 2.0 0.00 0.00 0.00 77 1013.9
20260905103258 61 69 1.0 0.0 0.00 0.00 0.00 77 1013.0
20260905103122 61 69 1.0 2.0 0.00 0.00 0.00 77 1013.0
20260905103040 61 0 1.0 0.0 0.00 0.00 0.00 77 1012.9
20260905103034 61 0 1.0 0.0 0.00 0.00 0.00 77 1012.9
20260905102850 61 0 1.0 0.0 0.00 0.00 0.00 77 1012.9
20260905102819 61 0 1.0 0.0 0.00 0.00 0.00 77 1012.9
20260905102719 61 0 1.0 0.0 0.00 0.00 0.00 77 1012.9
20260905102700 61 0 1.0 0.0 0.00 0.00 0.00 77 1012.9
20260905102530 61 54 2.0 2.0 0.00 0.00 0.00 77 1013.9
20260905102527 61 53 1.0 0.0 0.00 0.00 0.00 78 1013.0
20260905102520 61 0 1.0 0.0 0.00 0.00 0.00 77 1012.9
20260905102419 61 0 1.0 0.0 0.00 0.00 0.00 77 1012.9
20260905102321 61 0 1.0 0.0 0.00 0.00 0.00 77 1012.9
20260905102219 61 0 1.0 0.0 0.00 0.00 0.00 77 1012.9
20260905102156 61 0 1.0 0.0 0.00 0.00 0.00 77 1012.9
20260905102146 61 0 1.0 2.0 0.00 0.00 0.00 77 1012.9
20260905102135 61 53 1.0 0.0 0.00 0.00 0.00 77 1013.0
20260905102026 61 87 0.0 2.0 0.00 0.00 0.00 78 1013.7
20260905101919 61 53 1.0 0.0 0.00 0.00 0.00 78 1013.0
20260905101819 61 53 1.0 0.0 0.00 0.00 0.00 78 1013.0
20260905101750 61 53 1.0 0.0 0.00 0.00 0.00 78 1013.0
20260905101720 61 53 1.0 0.0 0.00 0.00 0.00 78 1013.0
20260905101624 61 53 1.0 0.0 0.00 0.00 0.00 78 1013.0
20260905101619 61 53 1.0 0.0 0.00 0.00 0.00 78 1013.0
20260905101533 61 53 1.0 0.0 0.00 0.00 0.00 78 1013.0
20260905101524 61 39 0.0 2.0 0.00 0.00 0.00 78 1013.8
20260905101419 61 53 1.0 0.0 0.00 0.00 0.00 78 1013.0
20260905101326 61 29 2.0 0.0 0.00 0.00 0.00 78 1013.0
20260905101322 61 53 1.0 0.0 0.00 0.00 0.00 78 1013.0
20260905101258 61 53 1.0 0.0 0.00 0.00 0.00 78 1013.0
20260905101121 61 53 1.0 2.0 0.00 0.00 0.00 78 1013.0
20260905101023 61 74 1.0 2.0 0.00 0.00 0.00 78 1013.8
20260905101021 61 29 2.0 0.0 0.00 0.00 0.00 78 1013.0
20260905101009 61 29 2.0 0.0 0.00 0.00 0.00 78 1013.0
20260905100955 61 29 2.0 0.0 0.00 0.00 0.00 78 1013.0
20260905100947 61 29 2.0 0.0 0.00 0.00 0.00 78 1013.0
20260905100821 61 29 2.0 0.0 0.00 0.00 0.00 78 1013.0
20260905100730 61 29 2.0 0.0 0.00 0.00 0.00 78 1013.0
20260905100720 61 29 2.0 0.0 0.00 0.00 0.00 78 1013.0
20260905100638 61 29 2.0 0.0 0.00 0.00 0.00 78 1013.0
20260905100624 61 29 2.0 0.0 0.00 0.00 0.00 78 1013.0
20260905100520 61 74 1.0 3.0 0.00 0.00 0.00 78 1013.9
20260905100219 61 29 2.0 0.0 0.00 0.00 0.00 78 1013.0
20260905100149 61 29 2.0 0.0 0.00 0.00 0.00 78 1013.0
20260905100125 61 29 2.0 2.0 0.00 0.00 0.00 78 1013.0
20260905100020 61 55 0.0 0.0 0.00 0.00 0.00 79 1013.0
20260905095928 61 55 0.0 0.0 0.00 0.00 0.00 79 1013.0
20260905095921 61 55 0.0 0.0 0.00 0.00 0.00 79 1013.0
20260905095818 61 55 0.0 0.0 0.00 0.00 0.00 79 1013.0
20260905095726 61 55 0.0 0.0 0.00 0.00 0.00 79 1013.0
20260905095720 61 55 0.0 0.0 0.00 0.00 0.00 79 1013.0
20260905095619 61 55 0.0 0.0 0.00 0.00 0.00 79 1013.0
20260905095558 61 55 0.0 0.0 0.00 0.00 0.00 79 1013.0
20260905095514 61 48 1.0 2.0 0.00 0.00 0.00 79 1013.8
20260905095420 61 55 0.0 0.0 0.00 0.00 0.00 79 1013.0
20260905095359 61 55 0.0 0.0 0.00 0.00 0.00 79 1013.0
20260905095219 61 55 0.0 0.0 0.00 0.00 0.00 79 1013.0
20260905095148 61 55 0.0 0.0 0.00 0.00 0.00 79 1013.0
20260905095120 61 55 0.0 1.0 0.00 0.00 0.00 79 1013.0
20260905095051 61 74 1.0 0.0 0.00 0.00 0.00 79 1012.9
20260905095034 61 74 1.0 0.0 0.00 0.00 0.00 79 1012.9
20260905095020 61 74 1.0 0.0 0.00 0.00 0.00 79 1012.9
20260905095009 61 61 0.0 2.0 0.00 0.00 0.00 79 1013.8
20260905094919 61 74 1.0 0.0 0.00 0.00 0.00 79 1012.9
20260905094819 61 74 1.0 0.0 0.00 0.00 0.00 79 1012.9
20260905094719 61 74 1.0 0.0 0.00 0.00 0.00 79 1012.9
20260905094700 61 74 1.0 0.0 0.00 0.00 0.00 79 1012.9
20260905094519 61 74 1.0 0.0 0.00 0.00 0.00 79 1012.9
20260905094504 61 71 1.0 2.0 0.00 0.00 0.00 79 1013.8
20260905094421 61 74 1.0 0.0 0.00 0.00 0.00 79 1012.9
20260905094322 61 74 1.0 0.0 0.00 0.00 0.00 79 1012.9
20260905094219 61 74 1.0 0.0 0.00 0.00 0.00 79 1012.9
20260905094148 61 74 1.0 0.0 0.00 0.00 0.00 79 1012.9
20260905094121 61 74 1.0 1.0 0.00 0.00 0.00 79 1012.9
20260905094031 61 52 2.0 0.0 0.00 0.00 0.00 79 1012.8
20260905094027 61 52 2.0 0.0 0.00 0.00 0.00 79 1012.8
20260905094002 61 89 0.0 2.0 0.00 0.00 0.00 79 1014.0
20260905093919 61 52 2.0 0.0 0.00 0.00 0.00 79 1012.8
20260905093821 61 52 2.0 0.0 0.00 0.00 0.00 79 1012.8
20260905093720 61 52 2.0 0.0 0.00 0.00 0.00 79 1012.8
20260905093709 61 52 2.0 0.0 0.00 0.00 0.00 80 1012.8
20260905093659 61 65 1.0 0.0 0.00 0.00 0.00 80 1012.9
20260905093650 61 52 2.0 0.0 0.00 0.00 0.00 79 1012.8
20260905093458 61 42 0.0 3.0 0.00 0.00 0.00 79 1014.1
20260905093420 61 52 2.0 0.0 0.00 0.00 0.00 79 1012.8
20260905093350 61 52 2.0 0.0 0.00 0.00 0.00 79 1012.8
20260905093340 61 65 1.0 0.0 0.00 0.00 0.00 80 1012.9
20260905093336 61 52 2.0 0.0 0.00 0.00 0.00 80 1012.8
20260905093210 61 52 2.0 0.0 0.00 0.00 0.00 80 1012.8
20260905093200 61 52 2.0 2.0 0.00 0.00 0.00 80 1012.8
20260905093021 61 65 1.0 0.0 0.00 0.00 0.00 80 1012.9
20260905092954 61 82 0.0 1.0 0.00 0.00 0.00 80 1013.9
20260905092920 61 65 1.0 0.0 0.00 0.00 0.00 80 1012.9
20260905092821 61 65 1.0 0.0 0.00 0.00 0.00 80 1012.9
20260905092811 61 65 1.0 0.0 0.00 0.00 0.00 79 1012.9
20260905092733 61 65 1.0 0.0 0.00 0.00 0.00 80 1012.9
20260905092520 61 65 1.0 0.0 0.00 0.00 0.00 79 1012.9
20260905092508 62 50 0.0 0.0 0.00 0.00 0.00 79 1012.9
20260905092455 62 50 0.0 0.0 0.00 0.00 0.00 79 1012.9
20260905092449 61 53 0.0 2.0 0.00 0.00 0.00 79 1013.8
20260905092433 61 65 1.0 0.0 0.00 0.00 0.00 79 1012.9
20260905092220 61 65 1.0 0.0 0.00 0.00 0.00 79 1012.9
20260905092200 62 50 0.0 0.0 0.00 0.00 0.00 79 1012.9
20260905092155 62 65 1.0 0.0 0.00 0.00 0.00 79 1012.9
20260905092144 62 65 1.0 1.0 0.00 0.00 0.00 79 1012.9
20260905092130 62 50 0.0 0.0 0.00 0.00 0.00 79 1012.9
20260905091944 62 66 0.0 1.0 0.00 0.00 0.00 79 1013.8
20260905091819 62 50 0.0 0.0 0.00 0.00 0.00 79 1012.9
20260905091759 62 50 0.0 0.0 0.00 0.00 0.00 79 1012.9
20260905091620 62 50 0.0 0.0 0.00 0.00 0.00 79 1012.9
20260905091600 62 50 0.0 1.0 0.00 0.00 0.00 79 1012.9
20260905091535 62 50 0.0 0.0 0.00 0.00 0.00 79 1012.9
20260905091438 62 29 0.0 2.0 0.00 0.00 0.00 79 1013.9
20260905091350 62 50 0.0 0.0 0.00 0.00 0.00 79 1012.9
20260905091319 62 50 0.0 0.0 0.00 0.00 0.00 79 1012.9
20260905091240 62 50 0.0 0.0 0.00 0.00 0.00 79 1012.9
20260905091232 62 50 0.0 0.0 0.00 0.00 0.00 79 1012.9